<?xml version="1.0" encoding="UTF-8" standalone="no" ?>
<gpx xmlns="http://www.topografix.com/GPX/1/1" xmlns:xsi="http://www.w3.org/2001/XMLSchema-instance" xsi:schemaLocation="http://www.topografix.com/GPX/1/1 http://www.topografix.com/GPX/1/1/gpx.xsd" version="1.1" creator="VisuGPX - https://www.visugpx.com">
  <metadata>
    <name>Rando Aveyron Lot - étape 2</name>
    <desc><![CDATA[effectuée le 17 septembre 2017]]></desc>
  </metadata>
  <trk>
    <name><![CDATA[20170926213128-xVkoV]]></name>
    <trkseg>
      <trkpt lat="44.38798" lon="2.33777">
        <ele>424</ele>
        <time>2017-09-17T07:20:49Z</time>
      </trkpt>
      <trkpt lat="44.38747" lon="2.33738">
        <ele>413</ele>
        <time>2017-09-17T08:09:02Z</time>
      </trkpt>
      <trkpt lat="44.38746" lon="2.33733">
        <ele>414</ele>
        <time>2017-09-17T08:09:09Z</time>
      </trkpt>
      <trkpt lat="44.38747" lon="2.33729">
        <ele>415</ele>
        <time>2017-09-17T08:09:14Z</time>
      </trkpt>
      <trkpt lat="44.3875" lon="2.33727">
        <ele>415</ele>
        <time>2017-09-17T08:09:18Z</time>
      </trkpt>
      <trkpt lat="44.38757" lon="2.33718">
        <ele>416</ele>
        <time>2017-09-17T08:09:29Z</time>
      </trkpt>
      <trkpt lat="44.38758" lon="2.33715">
        <ele>416</ele>
        <time>2017-09-17T08:09:32Z</time>
      </trkpt>
      <trkpt lat="44.38761" lon="2.33713">
        <ele>416</ele>
        <time>2017-09-17T08:09:50Z</time>
      </trkpt>
      <trkpt lat="44.38763" lon="2.33709">
        <ele>416</ele>
        <time>2017-09-17T08:09:53Z</time>
      </trkpt>
      <trkpt lat="44.38764" lon="2.33704">
        <ele>416</ele>
        <time>2017-09-17T08:09:57Z</time>
      </trkpt>
      <trkpt lat="44.38765" lon="2.33701">
        <ele>416</ele>
        <time>2017-09-17T08:10:11Z</time>
      </trkpt>
      <trkpt lat="44.38765" lon="2.33698">
        <ele>416</ele>
        <time>2017-09-17T08:10:16Z</time>
      </trkpt>
      <trkpt lat="44.38768" lon="2.33684">
        <ele>416</ele>
        <time>2017-09-17T08:10:35Z</time>
      </trkpt>
      <trkpt lat="44.38769" lon="2.33681">
        <ele>416</ele>
        <time>2017-09-17T08:10:42Z</time>
      </trkpt>
      <trkpt lat="44.3877" lon="2.33677">
        <ele>416</ele>
        <time>2017-09-17T08:10:45Z</time>
      </trkpt>
      <trkpt lat="44.38772" lon="2.33673">
        <ele>416</ele>
        <time>2017-09-17T08:10:50Z</time>
      </trkpt>
      <trkpt lat="44.38773" lon="2.33669">
        <ele>416</ele>
        <time>2017-09-17T08:10:56Z</time>
      </trkpt>
      <trkpt lat="44.38772" lon="2.33664">
        <ele>417</ele>
        <time>2017-09-17T08:11:31Z</time>
      </trkpt>
      <trkpt lat="44.38772" lon="2.33653">
        <ele>418</ele>
        <time>2017-09-17T08:11:40Z</time>
      </trkpt>
      <trkpt lat="44.38774" lon="2.3364">
        <ele>418</ele>
        <time>2017-09-17T08:11:51Z</time>
      </trkpt>
      <trkpt lat="44.38774" lon="2.33635">
        <ele>418</ele>
        <time>2017-09-17T08:11:54Z</time>
      </trkpt>
      <trkpt lat="44.38774" lon="2.3363">
        <ele>419</ele>
        <time>2017-09-17T08:11:59Z</time>
      </trkpt>
      <trkpt lat="44.38768" lon="2.33623">
        <ele>418</ele>
        <time>2017-09-17T08:12:08Z</time>
      </trkpt>
      <trkpt lat="44.38766" lon="2.3362">
        <ele>418</ele>
        <time>2017-09-17T08:12:12Z</time>
      </trkpt>
      <trkpt lat="44.38765" lon="2.33615">
        <ele>418</ele>
        <time>2017-09-17T08:12:17Z</time>
      </trkpt>
      <trkpt lat="44.3877" lon="2.33611">
        <ele>419</ele>
        <time>2017-09-17T08:12:24Z</time>
      </trkpt>
      <trkpt lat="44.38776" lon="2.3361">
        <ele>419</ele>
        <time>2017-09-17T08:12:32Z</time>
      </trkpt>
      <trkpt lat="44.38781" lon="2.33604">
        <ele>419</ele>
        <time>2017-09-17T08:12:38Z</time>
      </trkpt>
      <trkpt lat="44.38785" lon="2.33597">
        <ele>420</ele>
        <time>2017-09-17T08:12:45Z</time>
      </trkpt>
      <trkpt lat="44.38807" lon="2.33582">
        <ele>423</ele>
        <time>2017-09-17T08:13:09Z</time>
      </trkpt>
      <trkpt lat="44.38809" lon="2.33577">
        <ele>423</ele>
        <time>2017-09-17T08:13:15Z</time>
      </trkpt>
      <trkpt lat="44.38808" lon="2.33568">
        <ele>423</ele>
        <time>2017-09-17T08:13:20Z</time>
      </trkpt>
      <trkpt lat="44.38802" lon="2.3356">
        <ele>422</ele>
        <time>2017-09-17T08:13:27Z</time>
      </trkpt>
      <trkpt lat="44.38799" lon="2.33556">
        <ele>422</ele>
        <time>2017-09-17T08:13:31Z</time>
      </trkpt>
      <trkpt lat="44.38796" lon="2.33554">
        <ele>422</ele>
        <time>2017-09-17T08:13:47Z</time>
      </trkpt>
      <trkpt lat="44.38794" lon="2.3355">
        <ele>421</ele>
        <time>2017-09-17T08:13:51Z</time>
      </trkpt>
      <trkpt lat="44.38776" lon="2.33523">
        <ele>419</ele>
        <time>2017-09-17T08:14:12Z</time>
      </trkpt>
      <trkpt lat="44.38775" lon="2.3352">
        <ele>419</ele>
        <time>2017-09-17T08:14:16Z</time>
      </trkpt>
      <trkpt lat="44.38772" lon="2.33517">
        <ele>419</ele>
        <time>2017-09-17T08:14:22Z</time>
      </trkpt>
      <trkpt lat="44.3876" lon="2.33498">
        <ele>418</ele>
        <time>2017-09-17T08:14:37Z</time>
      </trkpt>
      <trkpt lat="44.38758" lon="2.33497">
        <ele>417</ele>
        <time>2017-09-17T08:14:39Z</time>
      </trkpt>
      <trkpt lat="44.38733" lon="2.33465">
        <ele>418</ele>
        <time>2017-09-17T08:15:07Z</time>
      </trkpt>
      <trkpt lat="44.38728" lon="2.33456">
        <ele>419</ele>
        <time>2017-09-17T08:15:14Z</time>
      </trkpt>
      <trkpt lat="44.38726" lon="2.33446">
        <ele>419</ele>
        <time>2017-09-17T08:15:21Z</time>
      </trkpt>
      <trkpt lat="44.38726" lon="2.33442">
        <ele>419</ele>
        <time>2017-09-17T08:15:23Z</time>
      </trkpt>
      <trkpt lat="44.38725" lon="2.33439">
        <ele>419</ele>
        <time>2017-09-17T08:15:26Z</time>
      </trkpt>
      <trkpt lat="44.38712" lon="2.33398">
        <ele>420</ele>
        <time>2017-09-17T08:15:54Z</time>
      </trkpt>
      <trkpt lat="44.3871" lon="2.33391">
        <ele>420</ele>
        <time>2017-09-17T08:15:58Z</time>
      </trkpt>
      <trkpt lat="44.38699" lon="2.33356">
        <ele>420</ele>
        <time>2017-09-17T08:16:18Z</time>
      </trkpt>
      <trkpt lat="44.38696" lon="2.3335">
        <ele>419</ele>
        <time>2017-09-17T08:16:22Z</time>
      </trkpt>
      <trkpt lat="44.38691" lon="2.3334">
        <ele>419</ele>
        <time>2017-09-17T08:16:30Z</time>
      </trkpt>
      <trkpt lat="44.38682" lon="2.33326">
        <ele>420</ele>
        <time>2017-09-17T08:16:41Z</time>
      </trkpt>
      <trkpt lat="44.3868" lon="2.33322">
        <ele>421</ele>
        <time>2017-09-17T08:16:44Z</time>
      </trkpt>
      <trkpt lat="44.3868" lon="2.33318">
        <ele>421</ele>
        <time>2017-09-17T08:16:47Z</time>
      </trkpt>
      <trkpt lat="44.3868" lon="2.33312">
        <ele>422</ele>
        <time>2017-09-17T08:16:51Z</time>
      </trkpt>
      <trkpt lat="44.38679" lon="2.33308">
        <ele>423</ele>
        <time>2017-09-17T08:16:54Z</time>
      </trkpt>
      <trkpt lat="44.38677" lon="2.33294">
        <ele>424</ele>
        <time>2017-09-17T08:17:03Z</time>
      </trkpt>
      <trkpt lat="44.38677" lon="2.33291">
        <ele>424</ele>
        <time>2017-09-17T08:17:06Z</time>
      </trkpt>
      <trkpt lat="44.38674" lon="2.33273">
        <ele>426</ele>
        <time>2017-09-17T08:17:18Z</time>
      </trkpt>
      <trkpt lat="44.38673" lon="2.3327">
        <ele>426</ele>
        <time>2017-09-17T08:17:21Z</time>
      </trkpt>
      <trkpt lat="44.38669" lon="2.33252">
        <ele>426</ele>
        <time>2017-09-17T08:17:34Z</time>
      </trkpt>
      <trkpt lat="44.38667" lon="2.33249">
        <ele>427</ele>
        <time>2017-09-17T08:17:37Z</time>
      </trkpt>
      <trkpt lat="44.38666" lon="2.33245">
        <ele>426</ele>
        <time>2017-09-17T08:17:40Z</time>
      </trkpt>
      <trkpt lat="44.38665" lon="2.3324">
        <ele>426</ele>
        <time>2017-09-17T08:17:44Z</time>
      </trkpt>
      <trkpt lat="44.38661" lon="2.33228">
        <ele>426</ele>
        <time>2017-09-17T08:17:53Z</time>
      </trkpt>
      <trkpt lat="44.38653" lon="2.33198">
        <ele>429</ele>
        <time>2017-09-17T08:18:18Z</time>
      </trkpt>
      <trkpt lat="44.38643" lon="2.33183">
        <ele>430</ele>
        <time>2017-09-17T08:18:30Z</time>
      </trkpt>
      <trkpt lat="44.3864" lon="2.33179">
        <ele>430</ele>
        <time>2017-09-17T08:18:33Z</time>
      </trkpt>
      <trkpt lat="44.38639" lon="2.33174">
        <ele>430</ele>
        <time>2017-09-17T08:18:36Z</time>
      </trkpt>
      <trkpt lat="44.38637" lon="2.33171">
        <ele>430</ele>
        <time>2017-09-17T08:18:39Z</time>
      </trkpt>
      <trkpt lat="44.38635" lon="2.33168">
        <ele>429</ele>
        <time>2017-09-17T08:18:41Z</time>
      </trkpt>
      <trkpt lat="44.38633" lon="2.3316">
        <ele>436</ele>
        <time>2017-09-17T08:18:45Z</time>
      </trkpt>
      <trkpt lat="44.38632" lon="2.33156">
        <ele>436</ele>
        <time>2017-09-17T08:18:48Z</time>
      </trkpt>
      <trkpt lat="44.38632" lon="2.33152">
        <ele>436</ele>
        <time>2017-09-17T08:18:50Z</time>
      </trkpt>
      <trkpt lat="44.38632" lon="2.33146">
        <ele>436</ele>
        <time>2017-09-17T08:18:56Z</time>
      </trkpt>
      <trkpt lat="44.38631" lon="2.33142">
        <ele>436</ele>
        <time>2017-09-17T08:18:59Z</time>
      </trkpt>
      <trkpt lat="44.3863" lon="2.33138">
        <ele>436</ele>
        <time>2017-09-17T08:19:02Z</time>
      </trkpt>
      <trkpt lat="44.38628" lon="2.33135">
        <ele>436</ele>
        <time>2017-09-17T08:19:05Z</time>
      </trkpt>
      <trkpt lat="44.38627" lon="2.33131">
        <ele>436</ele>
        <time>2017-09-17T08:19:08Z</time>
      </trkpt>
      <trkpt lat="44.38626" lon="2.33128">
        <ele>436</ele>
        <time>2017-09-17T08:19:11Z</time>
      </trkpt>
      <trkpt lat="44.38625" lon="2.33124">
        <ele>436</ele>
        <time>2017-09-17T08:19:14Z</time>
      </trkpt>
      <trkpt lat="44.38625" lon="2.33116">
        <ele>437</ele>
        <time>2017-09-17T08:19:20Z</time>
      </trkpt>
      <trkpt lat="44.38623" lon="2.33096">
        <ele>437</ele>
        <time>2017-09-17T08:19:33Z</time>
      </trkpt>
      <trkpt lat="44.38624" lon="2.3308">
        <ele>441</ele>
        <time>2017-09-17T08:19:45Z</time>
      </trkpt>
      <trkpt lat="44.3863" lon="2.33071">
        <ele>443</ele>
        <time>2017-09-17T08:19:53Z</time>
      </trkpt>
      <trkpt lat="44.38631" lon="2.33068">
        <ele>443</ele>
        <time>2017-09-17T08:19:56Z</time>
      </trkpt>
      <trkpt lat="44.38633" lon="2.33064">
        <ele>443</ele>
        <time>2017-09-17T08:20:00Z</time>
      </trkpt>
      <trkpt lat="44.38635" lon="2.3306">
        <ele>444</ele>
        <time>2017-09-17T08:20:04Z</time>
      </trkpt>
      <trkpt lat="44.38637" lon="2.33055">
        <ele>444</ele>
        <time>2017-09-17T08:20:07Z</time>
      </trkpt>
      <trkpt lat="44.3864" lon="2.33051">
        <ele>445</ele>
        <time>2017-09-17T08:20:10Z</time>
      </trkpt>
      <trkpt lat="44.38643" lon="2.33048">
        <ele>445</ele>
        <time>2017-09-17T08:20:54Z</time>
      </trkpt>
      <trkpt lat="44.38653" lon="2.3304">
        <ele>447</ele>
        <time>2017-09-17T08:21:04Z</time>
      </trkpt>
      <trkpt lat="44.3866" lon="2.33033">
        <ele>448</ele>
        <time>2017-09-17T08:21:10Z</time>
      </trkpt>
      <trkpt lat="44.38663" lon="2.33027">
        <ele>449</ele>
        <time>2017-09-17T08:21:14Z</time>
      </trkpt>
      <trkpt lat="44.38671" lon="2.33013">
        <ele>466</ele>
        <time>2017-09-17T08:21:22Z</time>
      </trkpt>
      <trkpt lat="44.38673" lon="2.33005">
        <ele>464</ele>
        <time>2017-09-17T08:21:25Z</time>
      </trkpt>
      <trkpt lat="44.38686" lon="2.32988">
        <ele>472</ele>
        <time>2017-09-17T08:21:37Z</time>
      </trkpt>
      <trkpt lat="44.38688" lon="2.32975">
        <ele>475</ele>
        <time>2017-09-17T08:21:43Z</time>
      </trkpt>
      <trkpt lat="44.38697" lon="2.32946">
        <ele>478</ele>
        <time>2017-09-17T08:22:01Z</time>
      </trkpt>
      <trkpt lat="44.38702" lon="2.32934">
        <ele>479</ele>
        <time>2017-09-17T08:22:09Z</time>
      </trkpt>
      <trkpt lat="44.3871" lon="2.32884">
        <ele>484</ele>
        <time>2017-09-17T08:22:36Z</time>
      </trkpt>
      <trkpt lat="44.38713" lon="2.32867">
        <ele>485</ele>
        <time>2017-09-17T08:22:43Z</time>
      </trkpt>
      <trkpt lat="44.38715" lon="2.32858">
        <ele>486</ele>
        <time>2017-09-17T08:22:48Z</time>
      </trkpt>
      <trkpt lat="44.38714" lon="2.3285">
        <ele>486</ele>
        <time>2017-09-17T08:22:52Z</time>
      </trkpt>
      <trkpt lat="44.38713" lon="2.32843">
        <ele>486</ele>
        <time>2017-09-17T08:23:26Z</time>
      </trkpt>
      <trkpt lat="44.38711" lon="2.32835">
        <ele>485</ele>
        <time>2017-09-17T08:23:35Z</time>
      </trkpt>
      <trkpt lat="44.38709" lon="2.3283">
        <ele>488</ele>
        <time>2017-09-17T08:23:38Z</time>
      </trkpt>
      <trkpt lat="44.38704" lon="2.32824">
        <ele>487</ele>
        <time>2017-09-17T08:23:42Z</time>
      </trkpt>
      <trkpt lat="44.38696" lon="2.32808">
        <ele>486</ele>
        <time>2017-09-17T08:23:50Z</time>
      </trkpt>
      <trkpt lat="44.38692" lon="2.32793">
        <ele>486</ele>
        <time>2017-09-17T08:23:58Z</time>
      </trkpt>
      <trkpt lat="44.38692" lon="2.32788">
        <ele>486</ele>
        <time>2017-09-17T08:24:00Z</time>
      </trkpt>
      <trkpt lat="44.3869" lon="2.32781">
        <ele>486</ele>
        <time>2017-09-17T08:24:04Z</time>
      </trkpt>
      <trkpt lat="44.38689" lon="2.32777">
        <ele>486</ele>
        <time>2017-09-17T08:24:07Z</time>
      </trkpt>
      <trkpt lat="44.38693" lon="2.32768">
        <ele>487</ele>
        <time>2017-09-17T08:24:14Z</time>
      </trkpt>
      <trkpt lat="44.38695" lon="2.32763">
        <ele>487</ele>
        <time>2017-09-17T08:24:17Z</time>
      </trkpt>
      <trkpt lat="44.38697" lon="2.32758">
        <ele>487</ele>
        <time>2017-09-17T08:24:21Z</time>
      </trkpt>
      <trkpt lat="44.38703" lon="2.32742">
        <ele>494</ele>
        <time>2017-09-17T08:24:32Z</time>
      </trkpt>
      <trkpt lat="44.38707" lon="2.32735">
        <ele>495</ele>
        <time>2017-09-17T08:24:36Z</time>
      </trkpt>
      <trkpt lat="44.38709" lon="2.32728">
        <ele>496</ele>
        <time>2017-09-17T08:24:41Z</time>
      </trkpt>
      <trkpt lat="44.3871" lon="2.32721">
        <ele>496</ele>
        <time>2017-09-17T08:24:52Z</time>
      </trkpt>
      <trkpt lat="44.38716" lon="2.32699">
        <ele>498</ele>
        <time>2017-09-17T08:25:05Z</time>
      </trkpt>
      <trkpt lat="44.38715" lon="2.32692">
        <ele>498</ele>
        <time>2017-09-17T08:25:09Z</time>
      </trkpt>
      <trkpt lat="44.38716" lon="2.32677">
        <ele>500</ele>
        <time>2017-09-17T08:25:21Z</time>
      </trkpt>
      <trkpt lat="44.38708" lon="2.32655">
        <ele>502</ele>
        <time>2017-09-17T08:25:32Z</time>
      </trkpt>
      <trkpt lat="44.38697" lon="2.32623">
        <ele>501</ele>
        <time>2017-09-17T08:25:47Z</time>
      </trkpt>
      <trkpt lat="44.38696" lon="2.32617">
        <ele>501</ele>
        <time>2017-09-17T08:25:50Z</time>
      </trkpt>
      <trkpt lat="44.38695" lon="2.32611">
        <ele>501</ele>
        <time>2017-09-17T08:25:54Z</time>
      </trkpt>
      <trkpt lat="44.38688" lon="2.32596">
        <ele>500</ele>
        <time>2017-09-17T08:26:03Z</time>
      </trkpt>
      <trkpt lat="44.38686" lon="2.32591">
        <ele>499</ele>
        <time>2017-09-17T08:26:07Z</time>
      </trkpt>
      <trkpt lat="44.38683" lon="2.32587">
        <ele>499</ele>
        <time>2017-09-17T08:26:10Z</time>
      </trkpt>
      <trkpt lat="44.38681" lon="2.32582">
        <ele>500</ele>
        <time>2017-09-17T08:26:13Z</time>
      </trkpt>
      <trkpt lat="44.38678" lon="2.32578">
        <ele>500</ele>
        <time>2017-09-17T08:26:17Z</time>
      </trkpt>
      <trkpt lat="44.38672" lon="2.32558">
        <ele>503</ele>
        <time>2017-09-17T08:26:28Z</time>
      </trkpt>
      <trkpt lat="44.3867" lon="2.32547">
        <ele>504</ele>
        <time>2017-09-17T08:26:32Z</time>
      </trkpt>
      <trkpt lat="44.38669" lon="2.32543">
        <ele>504</ele>
        <time>2017-09-17T08:26:34Z</time>
      </trkpt>
      <trkpt lat="44.38668" lon="2.32538">
        <ele>504</ele>
        <time>2017-09-17T08:26:36Z</time>
      </trkpt>
      <trkpt lat="44.38668" lon="2.32524">
        <ele>504</ele>
        <time>2017-09-17T08:26:43Z</time>
      </trkpt>
      <trkpt lat="44.38672" lon="2.32509">
        <ele>502</ele>
        <time>2017-09-17T08:26:52Z</time>
      </trkpt>
      <trkpt lat="44.38672" lon="2.32502">
        <ele>501</ele>
        <time>2017-09-17T08:26:56Z</time>
      </trkpt>
      <trkpt lat="44.38671" lon="2.32494">
        <ele>504</ele>
        <time>2017-09-17T08:27:04Z</time>
      </trkpt>
      <trkpt lat="44.38669" lon="2.32485">
        <ele>507</ele>
        <time>2017-09-17T08:27:07Z</time>
      </trkpt>
      <trkpt lat="44.38667" lon="2.3248">
        <ele>508</ele>
        <time>2017-09-17T08:27:11Z</time>
      </trkpt>
      <trkpt lat="44.38663" lon="2.32467">
        <ele>498</ele>
        <time>2017-09-17T08:27:20Z</time>
      </trkpt>
      <trkpt lat="44.3866" lon="2.3246">
        <ele>498</ele>
        <time>2017-09-17T08:27:25Z</time>
      </trkpt>
      <trkpt lat="44.38658" lon="2.32453">
        <ele>499</ele>
        <time>2017-09-17T08:27:30Z</time>
      </trkpt>
      <trkpt lat="44.38652" lon="2.32447">
        <ele>500</ele>
        <time>2017-09-17T08:27:39Z</time>
      </trkpt>
      <trkpt lat="44.38646" lon="2.32442">
        <ele>499</ele>
        <time>2017-09-17T08:27:47Z</time>
      </trkpt>
      <trkpt lat="44.38639" lon="2.32431">
        <ele>500</ele>
        <time>2017-09-17T08:27:56Z</time>
      </trkpt>
      <trkpt lat="44.38635" lon="2.32423">
        <ele>499</ele>
        <time>2017-09-17T08:28:01Z</time>
      </trkpt>
      <trkpt lat="44.38629" lon="2.32415">
        <ele>509</ele>
        <time>2017-09-17T08:28:04Z</time>
      </trkpt>
      <trkpt lat="44.38621" lon="2.32401">
        <ele>508</ele>
        <time>2017-09-17T08:29:03Z</time>
      </trkpt>
      <trkpt lat="44.38613" lon="2.32396">
        <ele>507</ele>
        <time>2017-09-17T08:30:11Z</time>
      </trkpt>
      <trkpt lat="44.38606" lon="2.32391">
        <ele>507</ele>
        <time>2017-09-17T08:30:23Z</time>
      </trkpt>
      <trkpt lat="44.38602" lon="2.3238">
        <ele>508</ele>
        <time>2017-09-17T08:30:29Z</time>
      </trkpt>
      <trkpt lat="44.38595" lon="2.32374">
        <ele>509</ele>
        <time>2017-09-17T08:30:32Z</time>
      </trkpt>
      <trkpt lat="44.3859" lon="2.32369">
        <ele>509</ele>
        <time>2017-09-17T08:30:39Z</time>
      </trkpt>
      <trkpt lat="44.38583" lon="2.32361">
        <ele>500</ele>
        <time>2017-09-17T08:30:47Z</time>
      </trkpt>
      <trkpt lat="44.38569" lon="2.32354">
        <ele>500</ele>
        <time>2017-09-17T08:30:57Z</time>
      </trkpt>
      <trkpt lat="44.38562" lon="2.3235">
        <ele>500</ele>
        <time>2017-09-17T08:31:04Z</time>
      </trkpt>
      <trkpt lat="44.38551" lon="2.32339">
        <ele>498</ele>
        <time>2017-09-17T08:31:14Z</time>
      </trkpt>
      <trkpt lat="44.38547" lon="2.32334">
        <ele>498</ele>
        <time>2017-09-17T08:31:17Z</time>
      </trkpt>
      <trkpt lat="44.38549" lon="2.32324">
        <ele>504</ele>
        <time>2017-09-17T08:31:23Z</time>
      </trkpt>
      <trkpt lat="44.38553" lon="2.32317">
        <ele>505</ele>
        <time>2017-09-17T08:31:29Z</time>
      </trkpt>
      <trkpt lat="44.38553" lon="2.32308">
        <ele>505</ele>
        <time>2017-09-17T08:31:37Z</time>
      </trkpt>
      <trkpt lat="44.38555" lon="2.32298">
        <ele>505</ele>
        <time>2017-09-17T08:31:44Z</time>
      </trkpt>
      <trkpt lat="44.38557" lon="2.32286">
        <ele>506</ele>
        <time>2017-09-17T08:31:52Z</time>
      </trkpt>
      <trkpt lat="44.38559" lon="2.32277">
        <ele>507</ele>
        <time>2017-09-17T08:32:00Z</time>
      </trkpt>
      <trkpt lat="44.38556" lon="2.3227">
        <ele>507</ele>
        <time>2017-09-17T08:32:14Z</time>
      </trkpt>
      <trkpt lat="44.38556" lon="2.32261">
        <ele>507</ele>
        <time>2017-09-17T08:32:19Z</time>
      </trkpt>
      <trkpt lat="44.38555" lon="2.32252">
        <ele>507</ele>
        <time>2017-09-17T08:32:30Z</time>
      </trkpt>
      <trkpt lat="44.3855" lon="2.32248">
        <ele>512</ele>
        <time>2017-09-17T08:32:34Z</time>
      </trkpt>
      <trkpt lat="44.38546" lon="2.32244">
        <ele>512</ele>
        <time>2017-09-17T08:32:38Z</time>
      </trkpt>
      <trkpt lat="44.3854" lon="2.32241">
        <ele>511</ele>
        <time>2017-09-17T08:32:43Z</time>
      </trkpt>
      <trkpt lat="44.38535" lon="2.32235">
        <ele>511</ele>
        <time>2017-09-17T08:32:49Z</time>
      </trkpt>
      <trkpt lat="44.38527" lon="2.32232">
        <ele>510</ele>
        <time>2017-09-17T08:32:57Z</time>
      </trkpt>
      <trkpt lat="44.38524" lon="2.32222">
        <ele>510</ele>
        <time>2017-09-17T08:33:04Z</time>
      </trkpt>
      <trkpt lat="44.3852" lon="2.3221">
        <ele>512</ele>
        <time>2017-09-17T08:33:17Z</time>
      </trkpt>
      <trkpt lat="44.3852" lon="2.32199">
        <ele>513</ele>
        <time>2017-09-17T08:33:26Z</time>
      </trkpt>
      <trkpt lat="44.38514" lon="2.32188">
        <ele>513</ele>
        <time>2017-09-17T08:33:37Z</time>
      </trkpt>
      <trkpt lat="44.38506" lon="2.32184">
        <ele>513</ele>
        <time>2017-09-17T08:33:43Z</time>
      </trkpt>
      <trkpt lat="44.38497" lon="2.32182">
        <ele>503</ele>
        <time>2017-09-17T08:33:48Z</time>
      </trkpt>
      <trkpt lat="44.38482" lon="2.32165">
        <ele>511</ele>
        <time>2017-09-17T08:33:58Z</time>
      </trkpt>
      <trkpt lat="44.38472" lon="2.32153">
        <ele>511</ele>
        <time>2017-09-17T08:34:09Z</time>
      </trkpt>
      <trkpt lat="44.38468" lon="2.32149">
        <ele>511</ele>
        <time>2017-09-17T08:34:12Z</time>
      </trkpt>
      <trkpt lat="44.38465" lon="2.3214">
        <ele>511</ele>
        <time>2017-09-17T08:34:20Z</time>
      </trkpt>
      <trkpt lat="44.3846" lon="2.32135">
        <ele>511</ele>
        <time>2017-09-17T08:34:25Z</time>
      </trkpt>
      <trkpt lat="44.38455" lon="2.3213">
        <ele>511</ele>
        <time>2017-09-17T08:34:28Z</time>
      </trkpt>
      <trkpt lat="44.38449" lon="2.32128">
        <ele>511</ele>
        <time>2017-09-17T08:34:31Z</time>
      </trkpt>
      <trkpt lat="44.38443" lon="2.32125">
        <ele>511</ele>
        <time>2017-09-17T08:34:34Z</time>
      </trkpt>
      <trkpt lat="44.38439" lon="2.32123">
        <ele>511</ele>
        <time>2017-09-17T08:34:37Z</time>
      </trkpt>
      <trkpt lat="44.38433" lon="2.32123">
        <ele>510</ele>
        <time>2017-09-17T08:35:05Z</time>
      </trkpt>
      <trkpt lat="44.38427" lon="2.32122">
        <ele>510</ele>
        <time>2017-09-17T08:35:19Z</time>
      </trkpt>
      <trkpt lat="44.38422" lon="2.32118">
        <ele>511</ele>
        <time>2017-09-17T08:35:26Z</time>
      </trkpt>
      <trkpt lat="44.38417" lon="2.32113">
        <ele>511</ele>
        <time>2017-09-17T08:35:35Z</time>
      </trkpt>
      <trkpt lat="44.3841" lon="2.32109">
        <ele>499</ele>
        <time>2017-09-17T08:35:39Z</time>
      </trkpt>
      <trkpt lat="44.38404" lon="2.32106">
        <ele>500</ele>
        <time>2017-09-17T08:35:44Z</time>
      </trkpt>
      <trkpt lat="44.384" lon="2.32105">
        <ele>499</ele>
        <time>2017-09-17T08:35:52Z</time>
      </trkpt>
      <trkpt lat="44.38399" lon="2.32101">
        <ele>500</ele>
        <time>2017-09-17T08:36:11Z</time>
      </trkpt>
      <trkpt lat="44.38393" lon="2.32102">
        <ele>498</ele>
        <time>2017-09-17T08:37:02Z</time>
      </trkpt>
      <trkpt lat="44.3839" lon="2.32098">
        <ele>498</ele>
        <time>2017-09-17T08:37:55Z</time>
      </trkpt>
      <trkpt lat="44.38384" lon="2.32096">
        <ele>497</ele>
        <time>2017-09-17T08:38:01Z</time>
      </trkpt>
      <trkpt lat="44.38378" lon="2.32094">
        <ele>496</ele>
        <time>2017-09-17T08:38:07Z</time>
      </trkpt>
      <trkpt lat="44.38372" lon="2.32092">
        <ele>495</ele>
        <time>2017-09-17T08:38:12Z</time>
      </trkpt>
      <trkpt lat="44.38366" lon="2.32092">
        <ele>494</ele>
        <time>2017-09-17T08:38:16Z</time>
      </trkpt>
      <trkpt lat="44.38342" lon="2.3208">
        <ele>499</ele>
        <time>2017-09-17T08:38:32Z</time>
      </trkpt>
      <trkpt lat="44.38327" lon="2.3207">
        <ele>491</ele>
        <time>2017-09-17T08:38:42Z</time>
      </trkpt>
      <trkpt lat="44.38323" lon="2.32065">
        <ele>491</ele>
        <time>2017-09-17T08:38:46Z</time>
      </trkpt>
      <trkpt lat="44.38318" lon="2.32061">
        <ele>490</ele>
        <time>2017-09-17T08:38:50Z</time>
      </trkpt>
      <trkpt lat="44.38313" lon="2.32056">
        <ele>490</ele>
        <time>2017-09-17T08:38:56Z</time>
      </trkpt>
      <trkpt lat="44.38307" lon="2.32052">
        <ele>490</ele>
        <time>2017-09-17T08:39:00Z</time>
      </trkpt>
      <trkpt lat="44.383" lon="2.3205">
        <ele>489</ele>
        <time>2017-09-17T08:39:05Z</time>
      </trkpt>
      <trkpt lat="44.38295" lon="2.32046">
        <ele>488</ele>
        <time>2017-09-17T08:39:09Z</time>
      </trkpt>
      <trkpt lat="44.38292" lon="2.3204">
        <ele>489</ele>
        <time>2017-09-17T08:39:13Z</time>
      </trkpt>
      <trkpt lat="44.38288" lon="2.32034">
        <ele>488</ele>
        <time>2017-09-17T08:39:18Z</time>
      </trkpt>
      <trkpt lat="44.38288" lon="2.32025">
        <ele>489</ele>
        <time>2017-09-17T08:39:23Z</time>
      </trkpt>
      <trkpt lat="44.38284" lon="2.32016">
        <ele>489</ele>
        <time>2017-09-17T08:39:28Z</time>
      </trkpt>
      <trkpt lat="44.38281" lon="2.32005">
        <ele>488</ele>
        <time>2017-09-17T08:39:55Z</time>
      </trkpt>
      <trkpt lat="44.38279" lon="2.32001">
        <ele>488</ele>
        <time>2017-09-17T08:40:05Z</time>
      </trkpt>
      <trkpt lat="44.38276" lon="2.31991">
        <ele>495</ele>
        <time>2017-09-17T08:40:28Z</time>
      </trkpt>
      <trkpt lat="44.38273" lon="2.31983">
        <ele>495</ele>
        <time>2017-09-17T08:40:37Z</time>
      </trkpt>
      <trkpt lat="44.38271" lon="2.31976">
        <ele>495</ele>
        <time>2017-09-17T08:40:49Z</time>
      </trkpt>
      <trkpt lat="44.38272" lon="2.31982">
        <ele>495</ele>
        <time>2017-09-17T08:41:42Z</time>
      </trkpt>
      <trkpt lat="44.38273" lon="2.31986">
        <ele>494</ele>
        <time>2017-09-17T08:42:33Z</time>
      </trkpt>
      <trkpt lat="44.38271" lon="2.31989">
        <ele>493</ele>
        <time>2017-09-17T08:43:04Z</time>
      </trkpt>
      <trkpt lat="44.38269" lon="2.31988">
        <ele>493</ele>
        <time>2017-09-17T08:43:10Z</time>
      </trkpt>
      <trkpt lat="44.38266" lon="2.31984">
        <ele>492</ele>
        <time>2017-09-17T08:43:15Z</time>
      </trkpt>
      <trkpt lat="44.38264" lon="2.3198">
        <ele>493</ele>
        <time>2017-09-17T08:43:22Z</time>
      </trkpt>
      <trkpt lat="44.38265" lon="2.31976">
        <ele>494</ele>
        <time>2017-09-17T08:43:42Z</time>
      </trkpt>
      <trkpt lat="44.38268" lon="2.31972">
        <ele>495</ele>
        <time>2017-09-17T08:43:48Z</time>
      </trkpt>
      <trkpt lat="44.38269" lon="2.31974">
        <ele>495</ele>
        <time>2017-09-17T08:44:14Z</time>
      </trkpt>
      <trkpt lat="44.38267" lon="2.31977">
        <ele>494</ele>
        <time>2017-09-17T08:45:46Z</time>
      </trkpt>
      <trkpt lat="44.38267" lon="2.31977">
        <ele>494</ele>
        <time>2017-09-17T08:45:46Z</time>
      </trkpt>
      <trkpt lat="44.38265" lon="2.31974">
        <ele>495</ele>
        <time>2017-09-17T08:46:06Z</time>
      </trkpt>
      <trkpt lat="44.38264" lon="2.31966">
        <ele>496</ele>
        <time>2017-09-17T08:46:13Z</time>
      </trkpt>
      <trkpt lat="44.38262" lon="2.31959">
        <ele>496</ele>
        <time>2017-09-17T08:46:17Z</time>
      </trkpt>
      <trkpt lat="44.38263" lon="2.31951">
        <ele>497</ele>
        <time>2017-09-17T08:46:23Z</time>
      </trkpt>
      <trkpt lat="44.38266" lon="2.31945">
        <ele>497</ele>
        <time>2017-09-17T08:46:28Z</time>
      </trkpt>
      <trkpt lat="44.38268" lon="2.31934">
        <ele>497</ele>
        <time>2017-09-17T08:46:34Z</time>
      </trkpt>
      <trkpt lat="44.38268" lon="2.31925">
        <ele>497</ele>
        <time>2017-09-17T08:46:38Z</time>
      </trkpt>
      <trkpt lat="44.38264" lon="2.3192">
        <ele>495</ele>
        <time>2017-09-17T08:46:41Z</time>
      </trkpt>
      <trkpt lat="44.38258" lon="2.31919">
        <ele>493</ele>
        <time>2017-09-17T08:46:45Z</time>
      </trkpt>
      <trkpt lat="44.38251" lon="2.31917">
        <ele>492</ele>
        <time>2017-09-17T08:46:51Z</time>
      </trkpt>
      <trkpt lat="44.3823" lon="2.31912">
        <ele>494</ele>
        <time>2017-09-17T08:47:04Z</time>
      </trkpt>
      <trkpt lat="44.38227" lon="2.31912">
        <ele>494</ele>
        <time>2017-09-17T08:47:07Z</time>
      </trkpt>
      <trkpt lat="44.38225" lon="2.31915">
        <ele>494</ele>
        <time>2017-09-17T08:47:09Z</time>
      </trkpt>
      <trkpt lat="44.38223" lon="2.31917">
        <ele>481</ele>
        <time>2017-09-17T08:47:11Z</time>
      </trkpt>
      <trkpt lat="44.3822" lon="2.31918">
        <ele>481</ele>
        <time>2017-09-17T08:47:13Z</time>
      </trkpt>
      <trkpt lat="44.38217" lon="2.31917">
        <ele>480</ele>
        <time>2017-09-17T08:47:15Z</time>
      </trkpt>
      <trkpt lat="44.38215" lon="2.31918">
        <ele>480</ele>
        <time>2017-09-17T08:47:17Z</time>
      </trkpt>
      <trkpt lat="44.38203" lon="2.31925">
        <ele>478</ele>
        <time>2017-09-17T08:52:06Z</time>
      </trkpt>
      <trkpt lat="44.382" lon="2.31926">
        <ele>478</ele>
        <time>2017-09-17T08:47:30Z</time>
      </trkpt>
      <trkpt lat="44.38197" lon="2.31925">
        <ele>477</ele>
        <time>2017-09-17T08:59:03Z</time>
      </trkpt>
      <trkpt lat="44.38191" lon="2.31925">
        <ele>477</ele>
        <time>2017-09-17T08:47:36Z</time>
      </trkpt>
      <trkpt lat="44.38192" lon="2.31927">
        <ele>477</ele>
        <time>2017-09-17T08:47:52Z</time>
      </trkpt>
      <trkpt lat="44.38195" lon="2.31926">
        <ele>477</ele>
        <time>2017-09-17T08:47:54Z</time>
      </trkpt>
      <trkpt lat="44.38198" lon="2.31926">
        <ele>477</ele>
        <time>2017-09-17T08:47:56Z</time>
      </trkpt>
      <trkpt lat="44.38201" lon="2.31924">
        <ele>478</ele>
        <time>2017-09-17T08:59:00Z</time>
      </trkpt>
      <trkpt lat="44.38203" lon="2.31925">
        <ele>478</ele>
        <time>2017-09-17T08:52:06Z</time>
      </trkpt>
      <trkpt lat="44.38203" lon="2.31922">
        <ele>478</ele>
        <time>2017-09-17T08:54:01Z</time>
      </trkpt>
      <trkpt lat="44.38207" lon="2.31923">
        <ele>478</ele>
        <time>2017-09-17T08:57:43Z</time>
      </trkpt>
      <trkpt lat="44.38207" lon="2.31923">
        <ele>478</ele>
        <time>2017-09-17T08:57:43Z</time>
      </trkpt>
      <trkpt lat="44.38204" lon="2.31926">
        <ele>478</ele>
        <time>2017-09-17T08:58:46Z</time>
      </trkpt>
      <trkpt lat="44.38201" lon="2.31924">
        <ele>478</ele>
        <time>2017-09-17T08:59:00Z</time>
      </trkpt>
      <trkpt lat="44.38197" lon="2.31925">
        <ele>477</ele>
        <time>2017-09-17T08:59:03Z</time>
      </trkpt>
      <trkpt lat="44.38191" lon="2.31929">
        <ele>477</ele>
        <time>2017-09-17T08:59:08Z</time>
      </trkpt>
      <trkpt lat="44.38177" lon="2.31934">
        <ele>476</ele>
        <time>2017-09-17T08:59:21Z</time>
      </trkpt>
      <trkpt lat="44.38175" lon="2.31933">
        <ele>476</ele>
        <time>2017-09-17T08:59:23Z</time>
      </trkpt>
      <trkpt lat="44.38165" lon="2.31936">
        <ele>470</ele>
        <time>2017-09-17T08:59:31Z</time>
      </trkpt>
      <trkpt lat="44.38162" lon="2.31936">
        <ele>470</ele>
        <time>2017-09-17T08:59:33Z</time>
      </trkpt>
      <trkpt lat="44.38153" lon="2.31939">
        <ele>468</ele>
        <time>2017-09-17T08:59:39Z</time>
      </trkpt>
      <trkpt lat="44.38151" lon="2.3194">
        <ele>468</ele>
        <time>2017-09-17T08:59:41Z</time>
      </trkpt>
      <trkpt lat="44.38143" lon="2.3194">
        <ele>467</ele>
        <time>2017-09-17T08:59:47Z</time>
      </trkpt>
      <trkpt lat="44.38137" lon="2.3194">
        <ele>467</ele>
        <time>2017-09-17T08:59:51Z</time>
      </trkpt>
      <trkpt lat="44.38134" lon="2.31941">
        <ele>466</ele>
        <time>2017-09-17T08:59:54Z</time>
      </trkpt>
      <trkpt lat="44.3813" lon="2.31941">
        <ele>466</ele>
        <time>2017-09-17T08:59:57Z</time>
      </trkpt>
      <trkpt lat="44.38127" lon="2.3194">
        <ele>466</ele>
        <time>2017-09-17T09:00:00Z</time>
      </trkpt>
      <trkpt lat="44.38123" lon="2.3194">
        <ele>465</ele>
        <time>2017-09-17T09:00:03Z</time>
      </trkpt>
      <trkpt lat="44.38119" lon="2.31942">
        <ele>465</ele>
        <time>2017-09-17T09:00:07Z</time>
      </trkpt>
      <trkpt lat="44.38115" lon="2.31942">
        <ele>465</ele>
        <time>2017-09-17T09:00:10Z</time>
      </trkpt>
      <trkpt lat="44.38111" lon="2.31942">
        <ele>465</ele>
        <time>2017-09-17T09:00:13Z</time>
      </trkpt>
      <trkpt lat="44.38107" lon="2.3194">
        <ele>465</ele>
        <time>2017-09-17T09:00:18Z</time>
      </trkpt>
      <trkpt lat="44.38102" lon="2.3194">
        <ele>464</ele>
        <time>2017-09-17T09:00:23Z</time>
      </trkpt>
      <trkpt lat="44.37707" lon="2.31148">
        <ele>425</ele>
        <time>2017-09-17T09:19:01Z</time>
      </trkpt>
      <trkpt lat="44.37706" lon="2.31146">
        <ele>425</ele>
        <time>2017-09-17T09:19:02Z</time>
      </trkpt>
      <trkpt lat="44.37705" lon="2.31144">
        <ele>425</ele>
        <time>2017-09-17T09:19:04Z</time>
      </trkpt>
      <trkpt lat="44.37706" lon="2.31141">
        <ele>425</ele>
        <time>2017-09-17T09:19:09Z</time>
      </trkpt>
      <trkpt lat="44.37704" lon="2.31136">
        <ele>425</ele>
        <time>2017-09-17T09:19:13Z</time>
      </trkpt>
      <trkpt lat="44.37702" lon="2.3113">
        <ele>425</ele>
        <time>2017-09-17T09:19:18Z</time>
      </trkpt>
      <trkpt lat="44.37702" lon="2.31129">
        <ele>425</ele>
        <time>2017-09-17T09:19:19Z</time>
      </trkpt>
      <trkpt lat="44.377" lon="2.3112">
        <ele>424</ele>
        <time>2017-09-17T09:19:26Z</time>
      </trkpt>
      <trkpt lat="44.37699" lon="2.31114">
        <ele>424</ele>
        <time>2017-09-17T09:19:30Z</time>
      </trkpt>
      <trkpt lat="44.37696" lon="2.311">
        <ele>423</ele>
        <time>2017-09-17T09:19:39Z</time>
      </trkpt>
      <trkpt lat="44.37697" lon="2.31074">
        <ele>422</ele>
        <time>2017-09-17T09:19:55Z</time>
      </trkpt>
      <trkpt lat="44.37697" lon="2.31068">
        <ele>422</ele>
        <time>2017-09-17T09:19:59Z</time>
      </trkpt>
      <trkpt lat="44.37702" lon="2.31052">
        <ele>423</ele>
        <time>2017-09-17T09:20:10Z</time>
      </trkpt>
      <trkpt lat="44.37704" lon="2.31039">
        <ele>423</ele>
        <time>2017-09-17T09:20:18Z</time>
      </trkpt>
      <trkpt lat="44.37706" lon="2.31024">
        <ele>423</ele>
        <time>2017-09-17T09:20:27Z</time>
      </trkpt>
      <trkpt lat="44.3772" lon="2.30999">
        <ele>423</ele>
        <time>2017-09-17T09:20:45Z</time>
      </trkpt>
      <trkpt lat="44.37721" lon="2.30997">
        <ele>424</ele>
        <time>2017-09-17T09:20:47Z</time>
      </trkpt>
      <trkpt lat="44.37726" lon="2.30987">
        <ele>424</ele>
        <time>2017-09-17T09:20:55Z</time>
      </trkpt>
      <trkpt lat="44.37731" lon="2.30978">
        <ele>424</ele>
        <time>2017-09-17T09:21:01Z</time>
      </trkpt>
      <trkpt lat="44.37741" lon="2.30948">
        <ele>422</ele>
        <time>2017-09-17T09:21:20Z</time>
      </trkpt>
      <trkpt lat="44.37749" lon="2.3092">
        <ele>422</ele>
        <time>2017-09-17T09:21:37Z</time>
      </trkpt>
      <trkpt lat="44.3775" lon="2.30917">
        <ele>423</ele>
        <time>2017-09-17T09:21:39Z</time>
      </trkpt>
      <trkpt lat="44.37752" lon="2.30908">
        <ele>426</ele>
        <time>2017-09-17T09:21:44Z</time>
      </trkpt>
      <trkpt lat="44.37752" lon="2.30902">
        <ele>428</ele>
        <time>2017-09-17T09:21:47Z</time>
      </trkpt>
      <trkpt lat="44.37755" lon="2.30881">
        <ele>429</ele>
        <time>2017-09-17T09:21:58Z</time>
      </trkpt>
      <trkpt lat="44.37756" lon="2.30875">
        <ele>429</ele>
        <time>2017-09-17T09:22:02Z</time>
      </trkpt>
      <trkpt lat="44.37757" lon="2.30869">
        <ele>428</ele>
        <time>2017-09-17T09:22:07Z</time>
      </trkpt>
      <trkpt lat="44.37759" lon="2.30856">
        <ele>426</ele>
        <time>2017-09-17T09:22:16Z</time>
      </trkpt>
      <trkpt lat="44.3776" lon="2.30849">
        <ele>424</ele>
        <time>2017-09-17T09:22:19Z</time>
      </trkpt>
      <trkpt lat="44.37763" lon="2.30843">
        <ele>423</ele>
        <time>2017-09-17T09:22:24Z</time>
      </trkpt>
      <trkpt lat="44.37763" lon="2.30831">
        <ele>417</ele>
        <time>2017-09-17T09:22:31Z</time>
      </trkpt>
      <trkpt lat="44.37764" lon="2.30825">
        <ele>418</ele>
        <time>2017-09-17T09:22:34Z</time>
      </trkpt>
      <trkpt lat="44.37768" lon="2.30801">
        <ele>419</ele>
        <time>2017-09-17T09:22:48Z</time>
      </trkpt>
      <trkpt lat="44.3777" lon="2.30795">
        <ele>419</ele>
        <time>2017-09-17T09:22:51Z</time>
      </trkpt>
      <trkpt lat="44.37771" lon="2.30789">
        <ele>419</ele>
        <time>2017-09-17T09:22:55Z</time>
      </trkpt>
      <trkpt lat="44.37774" lon="2.30784">
        <ele>418</ele>
        <time>2017-09-17T09:22:59Z</time>
      </trkpt>
      <trkpt lat="44.37779" lon="2.30761">
        <ele>417</ele>
        <time>2017-09-17T09:23:14Z</time>
      </trkpt>
      <trkpt lat="44.3778" lon="2.30756">
        <ele>417</ele>
        <time>2017-09-17T09:23:17Z</time>
      </trkpt>
      <trkpt lat="44.37784" lon="2.30745">
        <ele>413</ele>
        <time>2017-09-17T09:23:24Z</time>
      </trkpt>
      <trkpt lat="44.37791" lon="2.30735">
        <ele>414</ele>
        <time>2017-09-17T09:23:31Z</time>
      </trkpt>
      <trkpt lat="44.37793" lon="2.30718">
        <ele>414</ele>
        <time>2017-09-17T09:23:40Z</time>
      </trkpt>
      <trkpt lat="44.37793" lon="2.30712">
        <ele>414</ele>
        <time>2017-09-17T09:23:43Z</time>
      </trkpt>
      <trkpt lat="44.37794" lon="2.30707">
        <ele>414</ele>
        <time>2017-09-17T09:23:46Z</time>
      </trkpt>
      <trkpt lat="44.37797" lon="2.30698">
        <ele>414</ele>
        <time>2017-09-17T09:23:51Z</time>
      </trkpt>
      <trkpt lat="44.37796" lon="2.30692">
        <ele>413</ele>
        <time>2017-09-17T09:23:54Z</time>
      </trkpt>
      <trkpt lat="44.37799" lon="2.30686">
        <ele>414</ele>
        <time>2017-09-17T09:23:59Z</time>
      </trkpt>
      <trkpt lat="44.37801" lon="2.30672">
        <ele>413</ele>
        <time>2017-09-17T09:24:07Z</time>
      </trkpt>
      <trkpt lat="44.37803" lon="2.30665">
        <ele>413</ele>
        <time>2017-09-17T09:24:11Z</time>
      </trkpt>
      <trkpt lat="44.37804" lon="2.30659">
        <ele>413</ele>
        <time>2017-09-17T09:24:14Z</time>
      </trkpt>
      <trkpt lat="44.37805" lon="2.30654">
        <ele>413</ele>
        <time>2017-09-17T09:24:18Z</time>
      </trkpt>
      <trkpt lat="44.37809" lon="2.30638">
        <ele>412</ele>
        <time>2017-09-17T09:24:27Z</time>
      </trkpt>
      <trkpt lat="44.3781" lon="2.30632">
        <ele>412</ele>
        <time>2017-09-17T09:24:30Z</time>
      </trkpt>
      <trkpt lat="44.3781" lon="2.30626">
        <ele>412</ele>
        <time>2017-09-17T09:24:33Z</time>
      </trkpt>
      <trkpt lat="44.37814" lon="2.30605">
        <ele>411</ele>
        <time>2017-09-17T09:24:45Z</time>
      </trkpt>
      <trkpt lat="44.37817" lon="2.30595">
        <ele>410</ele>
        <time>2017-09-17T09:24:51Z</time>
      </trkpt>
      <trkpt lat="44.3782" lon="2.30572">
        <ele>411</ele>
        <time>2017-09-17T09:25:03Z</time>
      </trkpt>
      <trkpt lat="44.37825" lon="2.30558">
        <ele>412</ele>
        <time>2017-09-17T09:25:11Z</time>
      </trkpt>
      <trkpt lat="44.37834" lon="2.30545">
        <ele>410</ele>
        <time>2017-09-17T09:25:21Z</time>
      </trkpt>
      <trkpt lat="44.37839" lon="2.30541">
        <ele>410</ele>
        <time>2017-09-17T09:25:25Z</time>
      </trkpt>
      <trkpt lat="44.37845" lon="2.30541">
        <ele>411</ele>
        <time>2017-09-17T09:25:29Z</time>
      </trkpt>
      <trkpt lat="44.37851" lon="2.30539">
        <ele>411</ele>
        <time>2017-09-17T09:25:33Z</time>
      </trkpt>
      <trkpt lat="44.37855" lon="2.30534">
        <ele>411</ele>
        <time>2017-09-17T09:25:38Z</time>
      </trkpt>
      <trkpt lat="44.37883" lon="2.30507">
        <ele>413</ele>
        <time>2017-09-17T09:26:04Z</time>
      </trkpt>
      <trkpt lat="44.37896" lon="2.3049">
        <ele>411</ele>
        <time>2017-09-17T09:26:15Z</time>
      </trkpt>
      <trkpt lat="44.37901" lon="2.30489">
        <ele>412</ele>
        <time>2017-09-17T09:26:19Z</time>
      </trkpt>
      <trkpt lat="44.37909" lon="2.30479">
        <ele>412</ele>
        <time>2017-09-17T09:26:28Z</time>
      </trkpt>
      <trkpt lat="44.37913" lon="2.30475">
        <ele>411</ele>
        <time>2017-09-17T09:26:31Z</time>
      </trkpt>
      <trkpt lat="44.37922" lon="2.30469">
        <ele>416</ele>
        <time>2017-09-17T09:26:39Z</time>
      </trkpt>
      <trkpt lat="44.37929" lon="2.30458">
        <ele>416</ele>
        <time>2017-09-17T09:26:46Z</time>
      </trkpt>
      <trkpt lat="44.37959" lon="2.30418">
        <ele>416</ele>
        <time>2017-09-17T09:27:19Z</time>
      </trkpt>
      <trkpt lat="44.37972" lon="2.30409">
        <ele>411</ele>
        <time>2017-09-17T09:27:32Z</time>
      </trkpt>
      <trkpt lat="44.37979" lon="2.30402">
        <ele>411</ele>
        <time>2017-09-17T09:27:40Z</time>
      </trkpt>
      <trkpt lat="44.37983" lon="2.30399">
        <ele>411</ele>
        <time>2017-09-17T09:27:44Z</time>
      </trkpt>
      <trkpt lat="44.38004" lon="2.3038">
        <ele>415</ele>
        <time>2017-09-17T09:28:02Z</time>
      </trkpt>
      <trkpt lat="44.38013" lon="2.3037">
        <ele>415</ele>
        <time>2017-09-17T09:28:11Z</time>
      </trkpt>
      <trkpt lat="44.38016" lon="2.30365">
        <ele>415</ele>
        <time>2017-09-17T09:28:15Z</time>
      </trkpt>
      <trkpt lat="44.38019" lon="2.30359">
        <ele>414</ele>
        <time>2017-09-17T09:28:19Z</time>
      </trkpt>
      <trkpt lat="44.38021" lon="2.30353">
        <ele>414</ele>
        <time>2017-09-17T09:28:22Z</time>
      </trkpt>
      <trkpt lat="44.38029" lon="2.30336">
        <ele>414</ele>
        <time>2017-09-17T09:28:32Z</time>
      </trkpt>
      <trkpt lat="44.38032" lon="2.3033">
        <ele>412</ele>
        <time>2017-09-17T09:28:35Z</time>
      </trkpt>
      <trkpt lat="44.38036" lon="2.30319">
        <ele>412</ele>
        <time>2017-09-17T09:28:42Z</time>
      </trkpt>
      <trkpt lat="44.38039" lon="2.30315">
        <ele>412</ele>
        <time>2017-09-17T09:28:45Z</time>
      </trkpt>
      <trkpt lat="44.38042" lon="2.30312">
        <ele>412</ele>
        <time>2017-09-17T09:28:53Z</time>
      </trkpt>
      <trkpt lat="44.38057" lon="2.3028">
        <ele>412</ele>
        <time>2017-09-17T09:29:24Z</time>
      </trkpt>
      <trkpt lat="44.3806" lon="2.30276">
        <ele>412</ele>
        <time>2017-09-17T09:29:28Z</time>
      </trkpt>
      <trkpt lat="44.38068" lon="2.30266">
        <ele>413</ele>
        <time>2017-09-17T09:29:36Z</time>
      </trkpt>
      <trkpt lat="44.3807" lon="2.30261">
        <ele>413</ele>
        <time>2017-09-17T09:29:39Z</time>
      </trkpt>
      <trkpt lat="44.38081" lon="2.30249">
        <ele>413</ele>
        <time>2017-09-17T09:29:48Z</time>
      </trkpt>
      <trkpt lat="44.38084" lon="2.30243">
        <ele>414</ele>
        <time>2017-09-17T09:29:52Z</time>
      </trkpt>
      <trkpt lat="44.38088" lon="2.30238">
        <ele>415</ele>
        <time>2017-09-17T09:29:56Z</time>
      </trkpt>
      <trkpt lat="44.38118" lon="2.30204">
        <ele>416</ele>
        <time>2017-09-17T09:30:26Z</time>
      </trkpt>
      <trkpt lat="44.38138" lon="2.30182">
        <ele>417</ele>
        <time>2017-09-17T09:30:44Z</time>
      </trkpt>
      <trkpt lat="44.38141" lon="2.30179">
        <ele>417</ele>
        <time>2017-09-17T09:30:47Z</time>
      </trkpt>
      <trkpt lat="44.38163" lon="2.30157">
        <ele>416</ele>
        <time>2017-09-17T09:31:08Z</time>
      </trkpt>
      <trkpt lat="44.38171" lon="2.3014">
        <ele>422</ele>
        <time>2017-09-17T09:31:18Z</time>
      </trkpt>
      <trkpt lat="44.38172" lon="2.3013">
        <ele>422</ele>
        <time>2017-09-17T09:31:24Z</time>
      </trkpt>
      <trkpt lat="44.38175" lon="2.30118">
        <ele>422</ele>
        <time>2017-09-17T09:31:30Z</time>
      </trkpt>
      <trkpt lat="44.38179" lon="2.30102">
        <ele>421</ele>
        <time>2017-09-17T09:31:39Z</time>
      </trkpt>
      <trkpt lat="44.38181" lon="2.30098">
        <ele>421</ele>
        <time>2017-09-17T09:31:42Z</time>
      </trkpt>
      <trkpt lat="44.38181" lon="2.30092">
        <ele>420</ele>
        <time>2017-09-17T09:31:45Z</time>
      </trkpt>
      <trkpt lat="44.38181" lon="2.30086">
        <ele>420</ele>
        <time>2017-09-17T09:31:48Z</time>
      </trkpt>
      <trkpt lat="44.38186" lon="2.3007">
        <ele>422</ele>
        <time>2017-09-17T09:31:57Z</time>
      </trkpt>
      <trkpt lat="44.38186" lon="2.30065">
        <ele>422</ele>
        <time>2017-09-17T09:32:00Z</time>
      </trkpt>
      <trkpt lat="44.38188" lon="2.30059">
        <ele>423</ele>
        <time>2017-09-17T09:32:04Z</time>
      </trkpt>
      <trkpt lat="44.38187" lon="2.30053">
        <ele>423</ele>
        <time>2017-09-17T09:32:07Z</time>
      </trkpt>
      <trkpt lat="44.38189" lon="2.30041">
        <ele>423</ele>
        <time>2017-09-17T09:32:14Z</time>
      </trkpt>
      <trkpt lat="44.38191" lon="2.30029">
        <ele>423</ele>
        <time>2017-09-17T09:32:21Z</time>
      </trkpt>
      <trkpt lat="44.38196" lon="2.30016">
        <ele>423</ele>
        <time>2017-09-17T09:32:30Z</time>
      </trkpt>
      <trkpt lat="44.38201" lon="2.29996">
        <ele>423</ele>
        <time>2017-09-17T09:32:42Z</time>
      </trkpt>
      <trkpt lat="44.38206" lon="2.29988">
        <ele>424</ele>
        <time>2017-09-17T09:32:48Z</time>
      </trkpt>
      <trkpt lat="44.38207" lon="2.29984">
        <ele>425</ele>
        <time>2017-09-17T09:32:51Z</time>
      </trkpt>
      <trkpt lat="44.38211" lon="2.2998">
        <ele>425</ele>
        <time>2017-09-17T09:32:55Z</time>
      </trkpt>
      <trkpt lat="44.38216" lon="2.29961">
        <ele>426</ele>
        <time>2017-09-17T09:33:06Z</time>
      </trkpt>
      <trkpt lat="44.38221" lon="2.29948">
        <ele>426</ele>
        <time>2017-09-17T09:33:14Z</time>
      </trkpt>
      <trkpt lat="44.38222" lon="2.29939">
        <ele>427</ele>
        <time>2017-09-17T09:33:19Z</time>
      </trkpt>
      <trkpt lat="44.38223" lon="2.29935">
        <ele>427</ele>
        <time>2017-09-17T09:33:22Z</time>
      </trkpt>
      <trkpt lat="44.38226" lon="2.29923">
        <ele>428</ele>
        <time>2017-09-17T09:33:30Z</time>
      </trkpt>
      <trkpt lat="44.38226" lon="2.29916">
        <ele>428</ele>
        <time>2017-09-17T09:33:33Z</time>
      </trkpt>
      <trkpt lat="44.38228" lon="2.29905">
        <ele>429</ele>
        <time>2017-09-17T09:33:41Z</time>
      </trkpt>
      <trkpt lat="44.38227" lon="2.29899">
        <ele>428</ele>
        <time>2017-09-17T09:33:45Z</time>
      </trkpt>
      <trkpt lat="44.38229" lon="2.29892">
        <ele>428</ele>
        <time>2017-09-17T09:33:50Z</time>
      </trkpt>
      <trkpt lat="44.38229" lon="2.29875">
        <ele>428</ele>
        <time>2017-09-17T09:34:00Z</time>
      </trkpt>
      <trkpt lat="44.38226" lon="2.29869">
        <ele>428</ele>
        <time>2017-09-17T09:34:03Z</time>
      </trkpt>
      <trkpt lat="44.38222" lon="2.29857">
        <ele>428</ele>
        <time>2017-09-17T09:34:22Z</time>
      </trkpt>
      <trkpt lat="44.38222" lon="2.29855">
        <ele>428</ele>
        <time>2017-09-17T09:34:58Z</time>
      </trkpt>
      <trkpt lat="44.3822" lon="2.29853">
        <ele>428</ele>
        <time>2017-09-17T09:36:13Z</time>
      </trkpt>
      <trkpt lat="44.38219" lon="2.29849">
        <ele>428</ele>
        <time>2017-09-17T09:36:15Z</time>
      </trkpt>
      <trkpt lat="44.38219" lon="2.29844">
        <ele>428</ele>
        <time>2017-09-17T09:36:18Z</time>
      </trkpt>
      <trkpt lat="44.38217" lon="2.29835">
        <ele>428</ele>
        <time>2017-09-17T09:36:23Z</time>
      </trkpt>
      <trkpt lat="44.38216" lon="2.2983">
        <ele>431</ele>
        <time>2017-09-17T09:36:27Z</time>
      </trkpt>
      <trkpt lat="44.38216" lon="2.29822">
        <ele>431</ele>
        <time>2017-09-17T09:36:32Z</time>
      </trkpt>
      <trkpt lat="44.38212" lon="2.29817">
        <ele>431</ele>
        <time>2017-09-17T09:36:35Z</time>
      </trkpt>
      <trkpt lat="44.38194" lon="2.29789">
        <ele>429</ele>
        <time>2017-09-17T09:36:53Z</time>
      </trkpt>
      <trkpt lat="44.38191" lon="2.29782">
        <ele>428</ele>
        <time>2017-09-17T09:36:57Z</time>
      </trkpt>
      <trkpt lat="44.38183" lon="2.29765">
        <ele>426</ele>
        <time>2017-09-17T09:37:09Z</time>
      </trkpt>
      <trkpt lat="44.38179" lon="2.29759">
        <ele>424</ele>
        <time>2017-09-17T09:37:12Z</time>
      </trkpt>
      <trkpt lat="44.38177" lon="2.29754">
        <ele>423</ele>
        <time>2017-09-17T09:37:15Z</time>
      </trkpt>
      <trkpt lat="44.38173" lon="2.29743">
        <ele>425</ele>
        <time>2017-09-17T09:37:22Z</time>
      </trkpt>
      <trkpt lat="44.38172" lon="2.29736">
        <ele>428</ele>
        <time>2017-09-17T09:37:25Z</time>
      </trkpt>
      <trkpt lat="44.38167" lon="2.29717">
        <ele>415</ele>
        <time>2017-09-17T09:37:34Z</time>
      </trkpt>
      <trkpt lat="44.38158" lon="2.29697">
        <ele>417</ele>
        <time>2017-09-17T09:37:46Z</time>
      </trkpt>
      <trkpt lat="44.38157" lon="2.29685">
        <ele>418</ele>
        <time>2017-09-17T09:37:52Z</time>
      </trkpt>
      <trkpt lat="44.38155" lon="2.2968">
        <ele>419</ele>
        <time>2017-09-17T09:37:55Z</time>
      </trkpt>
      <trkpt lat="44.38148" lon="2.29657">
        <ele>422</ele>
        <time>2017-09-17T09:38:08Z</time>
      </trkpt>
      <trkpt lat="44.38144" lon="2.29648">
        <ele>421</ele>
        <time>2017-09-17T09:38:15Z</time>
      </trkpt>
      <trkpt lat="44.3814" lon="2.29637">
        <ele>420</ele>
        <time>2017-09-17T09:38:21Z</time>
      </trkpt>
      <trkpt lat="44.38138" lon="2.29632">
        <ele>420</ele>
        <time>2017-09-17T09:38:24Z</time>
      </trkpt>
      <trkpt lat="44.38129" lon="2.29603">
        <ele>420</ele>
        <time>2017-09-17T09:38:42Z</time>
      </trkpt>
      <trkpt lat="44.38128" lon="2.29597">
        <ele>420</ele>
        <time>2017-09-17T09:38:46Z</time>
      </trkpt>
      <trkpt lat="44.38128" lon="2.29584">
        <ele>420</ele>
        <time>2017-09-17T09:38:53Z</time>
      </trkpt>
      <trkpt lat="44.38116" lon="2.29548">
        <ele>424</ele>
        <time>2017-09-17T09:39:14Z</time>
      </trkpt>
      <trkpt lat="44.38115" lon="2.29527">
        <ele>424</ele>
        <time>2017-09-17T09:39:29Z</time>
      </trkpt>
      <trkpt lat="44.38115" lon="2.2952">
        <ele>424</ele>
        <time>2017-09-17T09:39:34Z</time>
      </trkpt>
      <trkpt lat="44.38116" lon="2.29514">
        <ele>424</ele>
        <time>2017-09-17T09:39:37Z</time>
      </trkpt>
      <trkpt lat="44.38115" lon="2.29507">
        <ele>424</ele>
        <time>2017-09-17T09:39:40Z</time>
      </trkpt>
      <trkpt lat="44.38112" lon="2.29496">
        <ele>429</ele>
        <time>2017-09-17T09:39:47Z</time>
      </trkpt>
      <trkpt lat="44.38113" lon="2.29492">
        <ele>430</ele>
        <time>2017-09-17T09:39:49Z</time>
      </trkpt>
      <trkpt lat="44.38112" lon="2.2947">
        <ele>433</ele>
        <time>2017-09-17T09:40:02Z</time>
      </trkpt>
      <trkpt lat="44.38106" lon="2.29439">
        <ele>434</ele>
        <time>2017-09-17T09:40:23Z</time>
      </trkpt>
      <trkpt lat="44.38104" lon="2.29434">
        <ele>433</ele>
        <time>2017-09-17T09:40:26Z</time>
      </trkpt>
      <trkpt lat="44.38102" lon="2.2943">
        <ele>432</ele>
        <time>2017-09-17T09:40:29Z</time>
      </trkpt>
      <trkpt lat="44.381" lon="2.29421">
        <ele>431</ele>
        <time>2017-09-17T09:40:35Z</time>
      </trkpt>
      <trkpt lat="44.38086" lon="2.29401">
        <ele>441</ele>
        <time>2017-09-17T09:40:58Z</time>
      </trkpt>
      <trkpt lat="44.38083" lon="2.29399">
        <ele>427</ele>
        <time>2017-09-17T09:41:09Z</time>
      </trkpt>
      <trkpt lat="44.38081" lon="2.29396">
        <ele>428</ele>
        <time>2017-09-17T09:41:25Z</time>
      </trkpt>
      <trkpt lat="44.38076" lon="2.29389">
        <ele>429</ele>
        <time>2017-09-17T09:41:32Z</time>
      </trkpt>
      <trkpt lat="44.3807" lon="2.29383">
        <ele>430</ele>
        <time>2017-09-17T09:41:39Z</time>
      </trkpt>
      <trkpt lat="44.38054" lon="2.29365">
        <ele>433</ele>
        <time>2017-09-17T09:41:55Z</time>
      </trkpt>
      <trkpt lat="44.38034" lon="2.29352">
        <ele>431</ele>
        <time>2017-09-17T09:42:12Z</time>
      </trkpt>
      <trkpt lat="44.38031" lon="2.2935">
        <ele>430</ele>
        <time>2017-09-17T09:42:15Z</time>
      </trkpt>
      <trkpt lat="44.38028" lon="2.2935">
        <ele>430</ele>
        <time>2017-09-17T09:42:17Z</time>
      </trkpt>
      <trkpt lat="44.38023" lon="2.29346">
        <ele>429</ele>
        <time>2017-09-17T09:42:21Z</time>
      </trkpt>
      <trkpt lat="44.38003" lon="2.29334">
        <ele>427</ele>
        <time>2017-09-17T09:42:39Z</time>
      </trkpt>
      <trkpt lat="44.37994" lon="2.29333">
        <ele>428</ele>
        <time>2017-09-17T09:42:45Z</time>
      </trkpt>
      <trkpt lat="44.37992" lon="2.29331">
        <ele>428</ele>
        <time>2017-09-17T09:42:47Z</time>
      </trkpt>
      <trkpt lat="44.37965" lon="2.29322">
        <ele>428</ele>
        <time>2017-09-17T09:43:08Z</time>
      </trkpt>
      <trkpt lat="44.3796" lon="2.29323">
        <ele>427</ele>
        <time>2017-09-17T09:43:12Z</time>
      </trkpt>
      <trkpt lat="44.37957" lon="2.29321">
        <ele>427</ele>
        <time>2017-09-17T09:43:15Z</time>
      </trkpt>
      <trkpt lat="44.37954" lon="2.2932">
        <ele>426</ele>
        <time>2017-09-17T09:43:17Z</time>
      </trkpt>
      <trkpt lat="44.37952" lon="2.29319">
        <ele>426</ele>
        <time>2017-09-17T09:43:19Z</time>
      </trkpt>
      <trkpt lat="44.37932" lon="2.29307">
        <ele>424</ele>
        <time>2017-09-17T09:43:35Z</time>
      </trkpt>
      <trkpt lat="44.37918" lon="2.29296">
        <ele>425</ele>
        <time>2017-09-17T09:43:47Z</time>
      </trkpt>
      <trkpt lat="44.3791" lon="2.2929">
        <ele>414</ele>
        <time>2017-09-17T09:43:54Z</time>
      </trkpt>
      <trkpt lat="44.37906" lon="2.29289">
        <ele>414</ele>
        <time>2017-09-17T09:43:57Z</time>
      </trkpt>
      <trkpt lat="44.37902" lon="2.29284">
        <ele>415</ele>
        <time>2017-09-17T09:44:01Z</time>
      </trkpt>
      <trkpt lat="44.37892" lon="2.29276">
        <ele>415</ele>
        <time>2017-09-17T09:44:10Z</time>
      </trkpt>
      <trkpt lat="44.37887" lon="2.29272">
        <ele>415</ele>
        <time>2017-09-17T09:44:14Z</time>
      </trkpt>
      <trkpt lat="44.37883" lon="2.29267">
        <ele>415</ele>
        <time>2017-09-17T09:44:17Z</time>
      </trkpt>
      <trkpt lat="44.37865" lon="2.29252">
        <ele>413</ele>
        <time>2017-09-17T09:44:32Z</time>
      </trkpt>
      <trkpt lat="44.37845" lon="2.29234">
        <ele>414</ele>
        <time>2017-09-17T09:44:51Z</time>
      </trkpt>
      <trkpt lat="44.37841" lon="2.2923">
        <ele>414</ele>
        <time>2017-09-17T09:44:54Z</time>
      </trkpt>
      <trkpt lat="44.37834" lon="2.29226">
        <ele>414</ele>
        <time>2017-09-17T09:45:00Z</time>
      </trkpt>
      <trkpt lat="44.37825" lon="2.29223">
        <ele>409</ele>
        <time>2017-09-17T09:45:06Z</time>
      </trkpt>
      <trkpt lat="44.37817" lon="2.29217">
        <ele>409</ele>
        <time>2017-09-17T09:45:13Z</time>
      </trkpt>
      <trkpt lat="44.37796" lon="2.29212">
        <ele>409</ele>
        <time>2017-09-17T09:45:29Z</time>
      </trkpt>
      <trkpt lat="44.37793" lon="2.29207">
        <ele>409</ele>
        <time>2017-09-17T09:45:33Z</time>
      </trkpt>
      <trkpt lat="44.37792" lon="2.29203">
        <ele>409</ele>
        <time>2017-09-17T09:45:35Z</time>
      </trkpt>
      <trkpt lat="44.37793" lon="2.29199">
        <ele>409</ele>
        <time>2017-09-17T09:45:47Z</time>
      </trkpt>
      <trkpt lat="44.37795" lon="2.29194">
        <ele>409</ele>
        <time>2017-09-17T09:45:50Z</time>
      </trkpt>
      <trkpt lat="44.37796" lon="2.29188">
        <ele>409</ele>
        <time>2017-09-17T09:45:53Z</time>
      </trkpt>
      <trkpt lat="44.37798" lon="2.29184">
        <ele>409</ele>
        <time>2017-09-17T09:45:55Z</time>
      </trkpt>
      <trkpt lat="44.378" lon="2.29157">
        <ele>409</ele>
        <time>2017-09-17T09:46:07Z</time>
      </trkpt>
      <trkpt lat="44.37803" lon="2.29144">
        <ele>409</ele>
        <time>2017-09-17T09:46:13Z</time>
      </trkpt>
      <trkpt lat="44.37804" lon="2.29136">
        <ele>409</ele>
        <time>2017-09-17T09:46:17Z</time>
      </trkpt>
      <trkpt lat="44.37806" lon="2.2913">
        <ele>409</ele>
        <time>2017-09-17T09:46:20Z</time>
      </trkpt>
      <trkpt lat="44.37807" lon="2.29122">
        <ele>408</ele>
        <time>2017-09-17T09:46:26Z</time>
      </trkpt>
      <trkpt lat="44.37807" lon="2.29115">
        <ele>408</ele>
        <time>2017-09-17T09:46:29Z</time>
      </trkpt>
      <trkpt lat="44.37806" lon="2.29105">
        <ele>408</ele>
        <time>2017-09-17T09:46:35Z</time>
      </trkpt>
      <trkpt lat="44.37805" lon="2.29102">
        <ele>408</ele>
        <time>2017-09-17T09:46:37Z</time>
      </trkpt>
      <trkpt lat="44.37805" lon="2.29098">
        <ele>408</ele>
        <time>2017-09-17T09:46:48Z</time>
      </trkpt>
      <trkpt lat="44.37806" lon="2.29094">
        <ele>408</ele>
        <time>2017-09-17T09:46:51Z</time>
      </trkpt>
      <trkpt lat="44.37809" lon="2.29048">
        <ele>406</ele>
        <time>2017-09-17T09:47:13Z</time>
      </trkpt>
      <trkpt lat="44.37816" lon="2.29016">
        <ele>405</ele>
        <time>2017-09-17T09:47:34Z</time>
      </trkpt>
      <trkpt lat="44.37845" lon="2.2897">
        <ele>405</ele>
        <time>2017-09-17T09:48:04Z</time>
      </trkpt>
      <trkpt lat="44.37848" lon="2.28966">
        <ele>405</ele>
        <time>2017-09-17T09:48:07Z</time>
      </trkpt>
      <trkpt lat="44.37858" lon="2.28928">
        <ele>405</ele>
        <time>2017-09-17T09:48:25Z</time>
      </trkpt>
      <trkpt lat="44.37867" lon="2.2891">
        <ele>402</ele>
        <time>2017-09-17T09:48:37Z</time>
      </trkpt>
      <trkpt lat="44.3787" lon="2.28906">
        <ele>402</ele>
        <time>2017-09-17T09:48:40Z</time>
      </trkpt>
      <trkpt lat="44.37876" lon="2.28896">
        <ele>402</ele>
        <time>2017-09-17T09:48:46Z</time>
      </trkpt>
      <trkpt lat="44.3788" lon="2.28892">
        <ele>402</ele>
        <time>2017-09-17T09:48:49Z</time>
      </trkpt>
      <trkpt lat="44.37883" lon="2.28888">
        <ele>402</ele>
        <time>2017-09-17T09:48:53Z</time>
      </trkpt>
      <trkpt lat="44.37887" lon="2.28884">
        <ele>402</ele>
        <time>2017-09-17T09:48:56Z</time>
      </trkpt>
      <trkpt lat="44.37894" lon="2.28874">
        <ele>402</ele>
        <time>2017-09-17T09:49:01Z</time>
      </trkpt>
      <trkpt lat="44.37908" lon="2.28859">
        <ele>402</ele>
        <time>2017-09-17T09:49:14Z</time>
      </trkpt>
      <trkpt lat="44.37918" lon="2.28846">
        <ele>404</ele>
        <time>2017-09-17T09:49:24Z</time>
      </trkpt>
      <trkpt lat="44.37922" lon="2.28842">
        <ele>404</ele>
        <time>2017-09-17T09:49:27Z</time>
      </trkpt>
      <trkpt lat="44.37926" lon="2.28838">
        <ele>404</ele>
        <time>2017-09-17T09:49:30Z</time>
      </trkpt>
      <trkpt lat="44.37933" lon="2.28831">
        <ele>403</ele>
        <time>2017-09-17T09:49:36Z</time>
      </trkpt>
      <trkpt lat="44.37939" lon="2.28829">
        <ele>404</ele>
        <time>2017-09-17T09:49:40Z</time>
      </trkpt>
      <trkpt lat="44.37943" lon="2.28824">
        <ele>405</ele>
        <time>2017-09-17T09:49:44Z</time>
      </trkpt>
      <trkpt lat="44.37959" lon="2.28805">
        <ele>407</ele>
        <time>2017-09-17T09:50:00Z</time>
      </trkpt>
      <trkpt lat="44.37981" lon="2.28783">
        <ele>408</ele>
        <time>2017-09-17T09:50:17Z</time>
      </trkpt>
      <trkpt lat="44.37986" lon="2.28778">
        <ele>408</ele>
        <time>2017-09-17T09:50:20Z</time>
      </trkpt>
      <trkpt lat="44.37989" lon="2.28774">
        <ele>409</ele>
        <time>2017-09-17T09:50:27Z</time>
      </trkpt>
      <trkpt lat="44.37989" lon="2.28766">
        <ele>409</ele>
        <time>2017-09-17T09:50:36Z</time>
      </trkpt>
      <trkpt lat="44.37992" lon="2.28758">
        <ele>409</ele>
        <time>2017-09-17T09:50:41Z</time>
      </trkpt>
      <trkpt lat="44.38" lon="2.28744">
        <ele>415</ele>
        <time>2017-09-17T09:50:52Z</time>
      </trkpt>
      <trkpt lat="44.38006" lon="2.28729">
        <ele>420</ele>
        <time>2017-09-17T09:51:00Z</time>
      </trkpt>
      <trkpt lat="44.38008" lon="2.28719">
        <ele>421</ele>
        <time>2017-09-17T09:51:04Z</time>
      </trkpt>
      <trkpt lat="44.3801" lon="2.28711">
        <ele>422</ele>
        <time>2017-09-17T09:51:08Z</time>
      </trkpt>
      <trkpt lat="44.38013" lon="2.28693">
        <ele>421</ele>
        <time>2017-09-17T09:51:17Z</time>
      </trkpt>
      <trkpt lat="44.38014" lon="2.28683">
        <ele>420</ele>
        <time>2017-09-17T09:51:25Z</time>
      </trkpt>
      <trkpt lat="44.38011" lon="2.28673">
        <ele>417</ele>
        <time>2017-09-17T09:51:28Z</time>
      </trkpt>
      <trkpt lat="44.38011" lon="2.28663">
        <ele>418</ele>
        <time>2017-09-17T09:51:33Z</time>
      </trkpt>
      <trkpt lat="44.38013" lon="2.28655">
        <ele>421</ele>
        <time>2017-09-17T09:51:38Z</time>
      </trkpt>
      <trkpt lat="44.38015" lon="2.28646">
        <ele>423</ele>
        <time>2017-09-17T09:51:44Z</time>
      </trkpt>
      <trkpt lat="44.38013" lon="2.28642">
        <ele>424</ele>
        <time>2017-09-17T09:51:47Z</time>
      </trkpt>
      <trkpt lat="44.38012" lon="2.28637">
        <ele>424</ele>
        <time>2017-09-17T09:51:50Z</time>
      </trkpt>
      <trkpt lat="44.3801" lon="2.28632">
        <ele>425</ele>
        <time>2017-09-17T09:51:54Z</time>
      </trkpt>
      <trkpt lat="44.38008" lon="2.28628">
        <ele>425</ele>
        <time>2017-09-17T09:51:57Z</time>
      </trkpt>
      <trkpt lat="44.38006" lon="2.28624">
        <ele>425</ele>
        <time>2017-09-17T09:52:00Z</time>
      </trkpt>
      <trkpt lat="44.38003" lon="2.28621">
        <ele>425</ele>
        <time>2017-09-17T09:52:03Z</time>
      </trkpt>
      <trkpt lat="44.38" lon="2.28616">
        <ele>425</ele>
        <time>2017-09-17T09:52:11Z</time>
      </trkpt>
      <trkpt lat="44.37998" lon="2.28614">
        <ele>409</ele>
        <time>2017-09-17T09:52:15Z</time>
      </trkpt>
      <trkpt lat="44.37996" lon="2.2861">
        <ele>410</ele>
        <time>2017-09-17T09:52:19Z</time>
      </trkpt>
      <trkpt lat="44.37991" lon="2.28603">
        <ele>410</ele>
        <time>2017-09-17T09:52:25Z</time>
      </trkpt>
      <trkpt lat="44.37988" lon="2.286">
        <ele>410</ele>
        <time>2017-09-17T09:52:27Z</time>
      </trkpt>
      <trkpt lat="44.37979" lon="2.28587">
        <ele>410</ele>
        <time>2017-09-17T09:52:35Z</time>
      </trkpt>
      <trkpt lat="44.37962" lon="2.28569">
        <ele>413</ele>
        <time>2017-09-17T09:52:54Z</time>
      </trkpt>
      <trkpt lat="44.37961" lon="2.28565">
        <ele>413</ele>
        <time>2017-09-17T09:52:56Z</time>
      </trkpt>
      <trkpt lat="44.37957" lon="2.28558">
        <ele>413</ele>
        <time>2017-09-17T09:53:00Z</time>
      </trkpt>
      <trkpt lat="44.37956" lon="2.28554">
        <ele>413</ele>
        <time>2017-09-17T09:53:02Z</time>
      </trkpt>
      <trkpt lat="44.37954" lon="2.28545">
        <ele>414</ele>
        <time>2017-09-17T09:53:07Z</time>
      </trkpt>
      <trkpt lat="44.37953" lon="2.28535">
        <ele>415</ele>
        <time>2017-09-17T09:53:13Z</time>
      </trkpt>
      <trkpt lat="44.37953" lon="2.28531">
        <ele>415</ele>
        <time>2017-09-17T09:53:15Z</time>
      </trkpt>
      <trkpt lat="44.37949" lon="2.28523">
        <ele>415</ele>
        <time>2017-09-17T09:53:20Z</time>
      </trkpt>
      <trkpt lat="44.37944" lon="2.28519">
        <ele>414</ele>
        <time>2017-09-17T09:53:25Z</time>
      </trkpt>
      <trkpt lat="44.37941" lon="2.28517">
        <ele>414</ele>
        <time>2017-09-17T09:53:27Z</time>
      </trkpt>
      <trkpt lat="44.37937" lon="2.28515">
        <ele>413</ele>
        <time>2017-09-17T09:53:30Z</time>
      </trkpt>
      <trkpt lat="44.37933" lon="2.28514">
        <ele>412</ele>
        <time>2017-09-17T09:53:34Z</time>
      </trkpt>
      <trkpt lat="44.37929" lon="2.28515">
        <ele>412</ele>
        <time>2017-09-17T09:53:37Z</time>
      </trkpt>
      <trkpt lat="44.37925" lon="2.28512">
        <ele>411</ele>
        <time>2017-09-17T09:53:41Z</time>
      </trkpt>
      <trkpt lat="44.37921" lon="2.28512">
        <ele>411</ele>
        <time>2017-09-17T09:53:44Z</time>
      </trkpt>
      <trkpt lat="44.37917" lon="2.28511">
        <ele>410</ele>
        <time>2017-09-17T09:53:47Z</time>
      </trkpt>
      <trkpt lat="44.37909" lon="2.28506">
        <ele>407</ele>
        <time>2017-09-17T09:53:54Z</time>
      </trkpt>
      <trkpt lat="44.37888" lon="2.28495">
        <ele>416</ele>
        <time>2017-09-17T09:54:09Z</time>
      </trkpt>
      <trkpt lat="44.37884" lon="2.28491">
        <ele>417</ele>
        <time>2017-09-17T09:54:12Z</time>
      </trkpt>
      <trkpt lat="44.37881" lon="2.28487">
        <ele>417</ele>
        <time>2017-09-17T09:54:16Z</time>
      </trkpt>
      <trkpt lat="44.37876" lon="2.2849">
        <ele>417</ele>
        <time>2017-09-17T09:54:20Z</time>
      </trkpt>
      <trkpt lat="44.37862" lon="2.28494">
        <ele>416</ele>
        <time>2017-09-17T09:54:29Z</time>
      </trkpt>
      <trkpt lat="44.37857" lon="2.28497">
        <ele>415</ele>
        <time>2017-09-17T09:54:32Z</time>
      </trkpt>
      <trkpt lat="44.37848" lon="2.28497">
        <ele>413</ele>
        <time>2017-09-17T09:54:38Z</time>
      </trkpt>
      <trkpt lat="44.3784" lon="2.28501">
        <ele>405</ele>
        <time>2017-09-17T09:54:44Z</time>
      </trkpt>
      <trkpt lat="44.37816" lon="2.28506">
        <ele>408</ele>
        <time>2017-09-17T09:55:02Z</time>
      </trkpt>
      <trkpt lat="44.37806" lon="2.2851">
        <ele>409</ele>
        <time>2017-09-17T09:55:09Z</time>
      </trkpt>
      <trkpt lat="44.37804" lon="2.28509">
        <ele>409</ele>
        <time>2017-09-17T09:55:11Z</time>
      </trkpt>
      <trkpt lat="44.37801" lon="2.28509">
        <ele>409</ele>
        <time>2017-09-17T09:55:13Z</time>
      </trkpt>
      <trkpt lat="44.37797" lon="2.28512">
        <ele>410</ele>
        <time>2017-09-17T09:55:17Z</time>
      </trkpt>
      <trkpt lat="44.37783" lon="2.28523">
        <ele>411</ele>
        <time>2017-09-17T09:55:28Z</time>
      </trkpt>
      <trkpt lat="44.37777" lon="2.28525">
        <ele>411</ele>
        <time>2017-09-17T09:55:32Z</time>
      </trkpt>
      <trkpt lat="44.37759" lon="2.28541">
        <ele>410</ele>
        <time>2017-09-17T09:55:48Z</time>
      </trkpt>
      <trkpt lat="44.37756" lon="2.28542">
        <ele>410</ele>
        <time>2017-09-17T09:55:51Z</time>
      </trkpt>
      <trkpt lat="44.37747" lon="2.28547">
        <ele>417</ele>
        <time>2017-09-17T09:55:58Z</time>
      </trkpt>
      <trkpt lat="44.37744" lon="2.28549">
        <ele>417</ele>
        <time>2017-09-17T09:56:01Z</time>
      </trkpt>
      <trkpt lat="44.37741" lon="2.28553">
        <ele>416</ele>
        <time>2017-09-17T09:56:04Z</time>
      </trkpt>
      <trkpt lat="44.37738" lon="2.28556">
        <ele>415</ele>
        <time>2017-09-17T09:56:08Z</time>
      </trkpt>
      <trkpt lat="44.37734" lon="2.28558">
        <ele>415</ele>
        <time>2017-09-17T09:56:12Z</time>
      </trkpt>
      <trkpt lat="44.37732" lon="2.28563">
        <ele>415</ele>
        <time>2017-09-17T09:56:16Z</time>
      </trkpt>
      <trkpt lat="44.3773" lon="2.28572">
        <ele>413</ele>
        <time>2017-09-17T09:56:23Z</time>
      </trkpt>
      <trkpt lat="44.37728" lon="2.28571">
        <ele>414</ele>
        <time>2017-09-17T09:57:12Z</time>
      </trkpt>
      <trkpt lat="44.37726" lon="2.2857">
        <ele>414</ele>
        <time>2017-09-17T09:57:25Z</time>
      </trkpt>
      <trkpt lat="44.37728" lon="2.28564">
        <ele>415</ele>
        <time>2017-09-17T09:57:31Z</time>
      </trkpt>
      <trkpt lat="44.37736" lon="2.28555">
        <ele>416</ele>
        <time>2017-09-17T09:57:37Z</time>
      </trkpt>
      <trkpt lat="44.37739" lon="2.28549">
        <ele>417</ele>
        <time>2017-09-17T09:57:40Z</time>
      </trkpt>
      <trkpt lat="44.37743" lon="2.28546">
        <ele>418</ele>
        <time>2017-09-17T09:57:45Z</time>
      </trkpt>
      <trkpt lat="44.37747" lon="2.28539">
        <ele>419</ele>
        <time>2017-09-17T09:58:04Z</time>
      </trkpt>
      <trkpt lat="44.37752" lon="2.28539">
        <ele>411</ele>
        <time>2017-09-17T09:58:10Z</time>
      </trkpt>
      <trkpt lat="44.37751" lon="2.28545">
        <ele>409</ele>
        <time>2017-09-17T09:58:38Z</time>
      </trkpt>
      <trkpt lat="44.37747" lon="2.28548">
        <ele>417</ele>
        <time>2017-09-17T09:58:45Z</time>
      </trkpt>
      <trkpt lat="44.37744" lon="2.28547">
        <ele>417</ele>
        <time>2017-09-17T09:59:15Z</time>
      </trkpt>
      <trkpt lat="44.37741" lon="2.28548">
        <ele>417</ele>
        <time>2017-09-17T09:59:26Z</time>
      </trkpt>
      <trkpt lat="44.3774" lon="2.2855">
        <ele>417</ele>
        <time>2017-09-17T09:59:28Z</time>
      </trkpt>
      <trkpt lat="44.37741" lon="2.28554">
        <ele>416</ele>
        <time>2017-09-17T09:59:38Z</time>
      </trkpt>
      <trkpt lat="44.37735" lon="2.28558">
        <ele>415</ele>
        <time>2017-09-17T09:59:45Z</time>
      </trkpt>
      <trkpt lat="44.37738" lon="2.28551">
        <ele>417</ele>
        <time>2017-09-17T10:00:08Z</time>
      </trkpt>
      <trkpt lat="44.37741" lon="2.28545">
        <ele>418</ele>
        <time>2017-09-17T10:00:15Z</time>
      </trkpt>
      <trkpt lat="44.37737" lon="2.28543">
        <ele>419</ele>
        <time>2017-09-17T10:01:22Z</time>
      </trkpt>
      <trkpt lat="44.37733" lon="2.28547">
        <ele>418</ele>
        <time>2017-09-17T10:01:48Z</time>
      </trkpt>
      <trkpt lat="44.37728" lon="2.28548">
        <ele>418</ele>
        <time>2017-09-17T10:01:52Z</time>
      </trkpt>
      <trkpt lat="44.37724" lon="2.28551">
        <ele>418</ele>
        <time>2017-09-17T10:01:56Z</time>
      </trkpt>
      <trkpt lat="44.37721" lon="2.28553">
        <ele>418</ele>
        <time>2017-09-17T10:02:00Z</time>
      </trkpt>
      <trkpt lat="44.37718" lon="2.28555">
        <ele>418</ele>
        <time>2017-09-17T10:02:05Z</time>
      </trkpt>
      <trkpt lat="44.37714" lon="2.28557">
        <ele>418</ele>
        <time>2017-09-17T10:02:08Z</time>
      </trkpt>
      <trkpt lat="44.3771" lon="2.28558">
        <ele>419</ele>
        <time>2017-09-17T10:02:11Z</time>
      </trkpt>
      <trkpt lat="44.37702" lon="2.28561">
        <ele>419</ele>
        <time>2017-09-17T10:02:18Z</time>
      </trkpt>
      <trkpt lat="44.37698" lon="2.28565">
        <ele>419</ele>
        <time>2017-09-17T10:02:23Z</time>
      </trkpt>
      <trkpt lat="44.37694" lon="2.28566">
        <ele>419</ele>
        <time>2017-09-17T10:02:26Z</time>
      </trkpt>
      <trkpt lat="44.37686" lon="2.28568">
        <ele>419</ele>
        <time>2017-09-17T10:02:32Z</time>
      </trkpt>
      <trkpt lat="44.37676" lon="2.28573">
        <ele>418</ele>
        <time>2017-09-17T10:02:40Z</time>
      </trkpt>
      <trkpt lat="44.3765" lon="2.28585">
        <ele>413</ele>
        <time>2017-09-17T10:03:00Z</time>
      </trkpt>
      <trkpt lat="44.37645" lon="2.28586">
        <ele>413</ele>
        <time>2017-09-17T10:03:04Z</time>
      </trkpt>
      <trkpt lat="44.37635" lon="2.2859">
        <ele>413</ele>
        <time>2017-09-17T10:03:11Z</time>
      </trkpt>
      <trkpt lat="44.37631" lon="2.28594">
        <ele>413</ele>
        <time>2017-09-17T10:03:15Z</time>
      </trkpt>
      <trkpt lat="44.37626" lon="2.28593">
        <ele>413</ele>
        <time>2017-09-17T10:03:20Z</time>
      </trkpt>
      <trkpt lat="44.3762" lon="2.28595">
        <ele>413</ele>
        <time>2017-09-17T10:03:24Z</time>
      </trkpt>
      <trkpt lat="44.37616" lon="2.28597">
        <ele>413</ele>
        <time>2017-09-17T10:03:27Z</time>
      </trkpt>
      <trkpt lat="44.37611" lon="2.28601">
        <ele>413</ele>
        <time>2017-09-17T10:03:31Z</time>
      </trkpt>
      <trkpt lat="44.37607" lon="2.28604">
        <ele>414</ele>
        <time>2017-09-17T10:03:35Z</time>
      </trkpt>
      <trkpt lat="44.37595" lon="2.28611">
        <ele>413</ele>
        <time>2017-09-17T10:03:44Z</time>
      </trkpt>
      <trkpt lat="44.37583" lon="2.28614">
        <ele>413</ele>
        <time>2017-09-17T10:03:53Z</time>
      </trkpt>
      <trkpt lat="44.37579" lon="2.28613">
        <ele>415</ele>
        <time>2017-09-17T10:03:56Z</time>
      </trkpt>
      <trkpt lat="44.37566" lon="2.28617">
        <ele>414</ele>
        <time>2017-09-17T10:04:06Z</time>
      </trkpt>
      <trkpt lat="44.37562" lon="2.28619">
        <ele>413</ele>
        <time>2017-09-17T10:04:09Z</time>
      </trkpt>
      <trkpt lat="44.3754" lon="2.28625">
        <ele>412</ele>
        <time>2017-09-17T10:04:23Z</time>
      </trkpt>
      <trkpt lat="44.37535" lon="2.28626">
        <ele>412</ele>
        <time>2017-09-17T10:04:27Z</time>
      </trkpt>
      <trkpt lat="44.37525" lon="2.28625">
        <ele>412</ele>
        <time>2017-09-17T10:04:34Z</time>
      </trkpt>
      <trkpt lat="44.3752" lon="2.28624">
        <ele>412</ele>
        <time>2017-09-17T10:04:38Z</time>
      </trkpt>
      <trkpt lat="44.37514" lon="2.28621">
        <ele>412</ele>
        <time>2017-09-17T10:04:43Z</time>
      </trkpt>
      <trkpt lat="44.37508" lon="2.28618">
        <ele>413</ele>
        <time>2017-09-17T10:04:47Z</time>
      </trkpt>
      <trkpt lat="44.37498" lon="2.28613">
        <ele>410</ele>
        <time>2017-09-17T10:04:56Z</time>
      </trkpt>
      <trkpt lat="44.37489" lon="2.28609">
        <ele>410</ele>
        <time>2017-09-17T10:05:04Z</time>
      </trkpt>
      <trkpt lat="44.37485" lon="2.28607">
        <ele>411</ele>
        <time>2017-09-17T10:05:08Z</time>
      </trkpt>
      <trkpt lat="44.37473" lon="2.28597">
        <ele>410</ele>
        <time>2017-09-17T10:05:17Z</time>
      </trkpt>
      <trkpt lat="44.37469" lon="2.28593">
        <ele>410</ele>
        <time>2017-09-17T10:05:20Z</time>
      </trkpt>
      <trkpt lat="44.37465" lon="2.28592">
        <ele>409</ele>
        <time>2017-09-17T10:05:23Z</time>
      </trkpt>
      <trkpt lat="44.37453" lon="2.28586">
        <ele>408</ele>
        <time>2017-09-17T10:05:33Z</time>
      </trkpt>
      <trkpt lat="44.37449" lon="2.28584">
        <ele>408</ele>
        <time>2017-09-17T10:05:36Z</time>
      </trkpt>
      <trkpt lat="44.37427" lon="2.28568">
        <ele>414</ele>
        <time>2017-09-17T10:05:55Z</time>
      </trkpt>
      <trkpt lat="44.37412" lon="2.28546">
        <ele>406</ele>
        <time>2017-09-17T10:06:10Z</time>
      </trkpt>
      <trkpt lat="44.37407" lon="2.28528">
        <ele>408</ele>
        <time>2017-09-17T10:06:19Z</time>
      </trkpt>
      <trkpt lat="44.37404" lon="2.28524">
        <ele>409</ele>
        <time>2017-09-17T10:06:21Z</time>
      </trkpt>
      <trkpt lat="44.37401" lon="2.2852">
        <ele>409</ele>
        <time>2017-09-17T10:06:24Z</time>
      </trkpt>
      <trkpt lat="44.37398" lon="2.28515">
        <ele>409</ele>
        <time>2017-09-17T10:06:27Z</time>
      </trkpt>
      <trkpt lat="44.37384" lon="2.28481">
        <ele>411</ele>
        <time>2017-09-17T10:06:47Z</time>
      </trkpt>
      <trkpt lat="44.3738" lon="2.28463">
        <ele>411</ele>
        <time>2017-09-17T10:06:58Z</time>
      </trkpt>
      <trkpt lat="44.37375" lon="2.28447">
        <ele>410</ele>
        <time>2017-09-17T10:07:07Z</time>
      </trkpt>
      <trkpt lat="44.37373" lon="2.28441">
        <ele>410</ele>
        <time>2017-09-17T10:07:11Z</time>
      </trkpt>
      <trkpt lat="44.37359" lon="2.28376">
        <ele>411</ele>
        <time>2017-09-17T10:07:43Z</time>
      </trkpt>
      <trkpt lat="44.37351" lon="2.28342">
        <ele>408</ele>
        <time>2017-09-17T10:08:01Z</time>
      </trkpt>
      <trkpt lat="44.37348" lon="2.28336">
        <ele>407</ele>
        <time>2017-09-17T10:08:06Z</time>
      </trkpt>
      <trkpt lat="44.37341" lon="2.28318">
        <ele>409</ele>
        <time>2017-09-17T10:08:17Z</time>
      </trkpt>
      <trkpt lat="44.37342" lon="2.28312">
        <ele>411</ele>
        <time>2017-09-17T10:08:19Z</time>
      </trkpt>
      <trkpt lat="44.3734" lon="2.28299">
        <ele>413</ele>
        <time>2017-09-17T10:08:26Z</time>
      </trkpt>
      <trkpt lat="44.3734" lon="2.28292">
        <ele>413</ele>
        <time>2017-09-17T10:08:30Z</time>
      </trkpt>
      <trkpt lat="44.3734" lon="2.28285">
        <ele>413</ele>
        <time>2017-09-17T10:08:36Z</time>
      </trkpt>
      <trkpt lat="44.3734" lon="2.28243">
        <ele>411</ele>
        <time>2017-09-17T10:08:57Z</time>
      </trkpt>
      <trkpt lat="44.3734" lon="2.28236">
        <ele>413</ele>
        <time>2017-09-17T10:09:01Z</time>
      </trkpt>
      <trkpt lat="44.37339" lon="2.28219">
        <ele>417</ele>
        <time>2017-09-17T10:09:12Z</time>
      </trkpt>
      <trkpt lat="44.37339" lon="2.28195">
        <ele>417</ele>
        <time>2017-09-17T10:09:23Z</time>
      </trkpt>
      <trkpt lat="44.3734" lon="2.28179">
        <ele>414</ele>
        <time>2017-09-17T10:09:30Z</time>
      </trkpt>
      <trkpt lat="44.3734" lon="2.28164">
        <ele>411</ele>
        <time>2017-09-17T10:09:36Z</time>
      </trkpt>
      <trkpt lat="44.37344" lon="2.28153">
        <ele>416</ele>
        <time>2017-09-17T10:09:42Z</time>
      </trkpt>
      <trkpt lat="44.37342" lon="2.28145">
        <ele>417</ele>
        <time>2017-09-17T10:09:48Z</time>
      </trkpt>
      <trkpt lat="44.37342" lon="2.28131">
        <ele>419</ele>
        <time>2017-09-17T10:09:55Z</time>
      </trkpt>
      <trkpt lat="44.37341" lon="2.28126">
        <ele>419</ele>
        <time>2017-09-17T10:09:58Z</time>
      </trkpt>
      <trkpt lat="44.3734" lon="2.2812">
        <ele>419</ele>
        <time>2017-09-17T10:10:01Z</time>
      </trkpt>
      <trkpt lat="44.37339" lon="2.28114">
        <ele>418</ele>
        <time>2017-09-17T10:10:05Z</time>
      </trkpt>
      <trkpt lat="44.37337" lon="2.28099">
        <ele>415</ele>
        <time>2017-09-17T10:10:11Z</time>
      </trkpt>
      <trkpt lat="44.37323" lon="2.28043">
        <ele>404</ele>
        <time>2017-09-17T10:10:41Z</time>
      </trkpt>
      <trkpt lat="44.37321" lon="2.28038">
        <ele>404</ele>
        <time>2017-09-17T10:10:43Z</time>
      </trkpt>
      <trkpt lat="44.37321" lon="2.28031">
        <ele>405</ele>
        <time>2017-09-17T10:10:47Z</time>
      </trkpt>
      <trkpt lat="44.37317" lon="2.28007">
        <ele>406</ele>
        <time>2017-09-17T10:10:59Z</time>
      </trkpt>
      <trkpt lat="44.37317" lon="2.28003">
        <ele>406</ele>
        <time>2017-09-17T10:11:01Z</time>
      </trkpt>
      <trkpt lat="44.37316" lon="2.27997">
        <ele>406</ele>
        <time>2017-09-17T10:11:04Z</time>
      </trkpt>
      <trkpt lat="44.37315" lon="2.27993">
        <ele>406</ele>
        <time>2017-09-17T10:11:06Z</time>
      </trkpt>
      <trkpt lat="44.3731" lon="2.27972">
        <ele>405</ele>
        <time>2017-09-17T10:11:18Z</time>
      </trkpt>
      <trkpt lat="44.3731" lon="2.27967">
        <ele>405</ele>
        <time>2017-09-17T10:11:21Z</time>
      </trkpt>
      <trkpt lat="44.37304" lon="2.27944">
        <ele>405</ele>
        <time>2017-09-17T10:11:34Z</time>
      </trkpt>
      <trkpt lat="44.37305" lon="2.27939">
        <ele>405</ele>
        <time>2017-09-17T10:11:37Z</time>
      </trkpt>
      <trkpt lat="44.37301" lon="2.27919">
        <ele>405</ele>
        <time>2017-09-17T10:11:47Z</time>
      </trkpt>
      <trkpt lat="44.373" lon="2.27912">
        <ele>407</ele>
        <time>2017-09-17T10:11:52Z</time>
      </trkpt>
      <trkpt lat="44.373" lon="2.27898">
        <ele>407</ele>
        <time>2017-09-17T10:11:58Z</time>
      </trkpt>
      <trkpt lat="44.373" lon="2.27891">
        <ele>407</ele>
        <time>2017-09-17T10:12:01Z</time>
      </trkpt>
      <trkpt lat="44.37297" lon="2.2788">
        <ele>407</ele>
        <time>2017-09-17T10:12:07Z</time>
      </trkpt>
      <trkpt lat="44.37296" lon="2.27875">
        <ele>407</ele>
        <time>2017-09-17T10:12:19Z</time>
      </trkpt>
      <trkpt lat="44.37296" lon="2.2787">
        <ele>407</ele>
        <time>2017-09-17T10:12:22Z</time>
      </trkpt>
      <trkpt lat="44.37297" lon="2.27859">
        <ele>407</ele>
        <time>2017-09-17T10:12:30Z</time>
      </trkpt>
      <trkpt lat="44.37296" lon="2.27854">
        <ele>407</ele>
        <time>2017-09-17T10:12:34Z</time>
      </trkpt>
      <trkpt lat="44.37294" lon="2.2785">
        <ele>407</ele>
        <time>2017-09-17T10:12:36Z</time>
      </trkpt>
      <trkpt lat="44.37291" lon="2.27837">
        <ele>407</ele>
        <time>2017-09-17T10:12:42Z</time>
      </trkpt>
      <trkpt lat="44.3729" lon="2.27831">
        <ele>408</ele>
        <time>2017-09-17T10:12:45Z</time>
      </trkpt>
      <trkpt lat="44.37289" lon="2.27811">
        <ele>408</ele>
        <time>2017-09-17T10:12:57Z</time>
      </trkpt>
      <trkpt lat="44.37289" lon="2.278">
        <ele>408</ele>
        <time>2017-09-17T10:13:03Z</time>
      </trkpt>
      <trkpt lat="44.37286" lon="2.27788">
        <ele>407</ele>
        <time>2017-09-17T10:13:10Z</time>
      </trkpt>
      <trkpt lat="44.37285" lon="2.27783">
        <ele>407</ele>
        <time>2017-09-17T10:13:13Z</time>
      </trkpt>
      <trkpt lat="44.37283" lon="2.27772">
        <ele>407</ele>
        <time>2017-09-17T10:13:19Z</time>
      </trkpt>
      <trkpt lat="44.37283" lon="2.27761">
        <ele>407</ele>
        <time>2017-09-17T10:13:26Z</time>
      </trkpt>
      <trkpt lat="44.37281" lon="2.27756">
        <ele>406</ele>
        <time>2017-09-17T10:13:29Z</time>
      </trkpt>
      <trkpt lat="44.37278" lon="2.27751">
        <ele>406</ele>
        <time>2017-09-17T10:13:31Z</time>
      </trkpt>
      <trkpt lat="44.37276" lon="2.27746">
        <ele>406</ele>
        <time>2017-09-17T10:13:34Z</time>
      </trkpt>
      <trkpt lat="44.37268" lon="2.27715">
        <ele>406</ele>
        <time>2017-09-17T10:13:53Z</time>
      </trkpt>
      <trkpt lat="44.37263" lon="2.27703">
        <ele>406</ele>
        <time>2017-09-17T10:14:00Z</time>
      </trkpt>
      <trkpt lat="44.37261" lon="2.27697">
        <ele>406</ele>
        <time>2017-09-17T10:14:05Z</time>
      </trkpt>
      <trkpt lat="44.37253" lon="2.27686">
        <ele>405</ele>
        <time>2017-09-17T10:14:15Z</time>
      </trkpt>
      <trkpt lat="44.37248" lon="2.2768">
        <ele>400</ele>
        <time>2017-09-17T10:14:21Z</time>
      </trkpt>
      <trkpt lat="44.37246" lon="2.27673">
        <ele>401</ele>
        <time>2017-09-17T10:14:26Z</time>
      </trkpt>
      <trkpt lat="44.37237" lon="2.27648">
        <ele>400</ele>
        <time>2017-09-17T10:14:37Z</time>
      </trkpt>
      <trkpt lat="44.3723" lon="2.27611">
        <ele>400</ele>
        <time>2017-09-17T10:14:52Z</time>
      </trkpt>
      <trkpt lat="44.37225" lon="2.27587">
        <ele>401</ele>
        <time>2017-09-17T10:15:05Z</time>
      </trkpt>
      <trkpt lat="44.37224" lon="2.27581">
        <ele>402</ele>
        <time>2017-09-17T10:15:09Z</time>
      </trkpt>
      <trkpt lat="44.37212" lon="2.2753">
        <ele>401</ele>
        <time>2017-09-17T10:15:41Z</time>
      </trkpt>
      <trkpt lat="44.37204" lon="2.27511">
        <ele>401</ele>
        <time>2017-09-17T10:15:51Z</time>
      </trkpt>
      <trkpt lat="44.37203" lon="2.27508">
        <ele>401</ele>
        <time>2017-09-17T10:15:54Z</time>
      </trkpt>
      <trkpt lat="44.37203" lon="2.27504">
        <ele>401</ele>
        <time>2017-09-17T10:16:01Z</time>
      </trkpt>
      <trkpt lat="44.372" lon="2.27502">
        <ele>401</ele>
        <time>2017-09-17T10:16:04Z</time>
      </trkpt>
      <trkpt lat="44.37198" lon="2.27502">
        <ele>401</ele>
        <time>2017-09-17T10:16:06Z</time>
      </trkpt>
      <trkpt lat="44.37195" lon="2.27504">
        <ele>401</ele>
        <time>2017-09-17T10:16:09Z</time>
      </trkpt>
      <trkpt lat="44.37189" lon="2.27506">
        <ele>401</ele>
        <time>2017-09-17T10:16:13Z</time>
      </trkpt>
      <trkpt lat="44.37155" lon="2.2754">
        <ele>404</ele>
        <time>2017-09-17T10:16:43Z</time>
      </trkpt>
      <trkpt lat="44.37144" lon="2.27551">
        <ele>404</ele>
        <time>2017-09-17T10:16:53Z</time>
      </trkpt>
      <trkpt lat="44.37141" lon="2.27558">
        <ele>404</ele>
        <time>2017-09-17T10:16:57Z</time>
      </trkpt>
      <trkpt lat="44.37138" lon="2.2756">
        <ele>404</ele>
        <time>2017-09-17T10:16:59Z</time>
      </trkpt>
      <trkpt lat="44.37136" lon="2.27561">
        <ele>404</ele>
        <time>2017-09-17T10:17:01Z</time>
      </trkpt>
      <trkpt lat="44.37134" lon="2.27562">
        <ele>404</ele>
        <time>2017-09-17T10:17:04Z</time>
      </trkpt>
      <trkpt lat="44.37133" lon="2.27559">
        <ele>404</ele>
        <time>2017-09-17T10:17:06Z</time>
      </trkpt>
      <trkpt lat="44.37133" lon="2.27555">
        <ele>404</ele>
        <time>2017-09-17T10:17:08Z</time>
      </trkpt>
      <trkpt lat="44.3714" lon="2.2754">
        <ele>405</ele>
        <time>2017-09-17T10:17:16Z</time>
      </trkpt>
      <trkpt lat="44.37145" lon="2.27532">
        <ele>404</ele>
        <time>2017-09-17T10:17:21Z</time>
      </trkpt>
      <trkpt lat="44.37147" lon="2.27527">
        <ele>404</ele>
        <time>2017-09-17T10:17:24Z</time>
      </trkpt>
      <trkpt lat="44.37152" lon="2.27521">
        <ele>404</ele>
        <time>2017-09-17T10:17:30Z</time>
      </trkpt>
      <trkpt lat="44.37155" lon="2.27519">
        <ele>404</ele>
        <time>2017-09-17T10:17:33Z</time>
      </trkpt>
      <trkpt lat="44.3716" lon="2.27517">
        <ele>403</ele>
        <time>2017-09-17T10:17:37Z</time>
      </trkpt>
      <trkpt lat="44.37159" lon="2.2751">
        <ele>403</ele>
        <time>2017-09-17T10:17:43Z</time>
      </trkpt>
      <trkpt lat="44.37155" lon="2.27506">
        <ele>403</ele>
        <time>2017-09-17T10:17:48Z</time>
      </trkpt>
      <trkpt lat="44.37152" lon="2.27503">
        <ele>403</ele>
        <time>2017-09-17T10:17:57Z</time>
      </trkpt>
      <trkpt lat="44.3715" lon="2.27499">
        <ele>405</ele>
        <time>2017-09-17T10:18:01Z</time>
      </trkpt>
      <trkpt lat="44.3714" lon="2.27489">
        <ele>406</ele>
        <time>2017-09-17T10:18:10Z</time>
      </trkpt>
      <trkpt lat="44.37137" lon="2.27488">
        <ele>407</ele>
        <time>2017-09-17T10:18:12Z</time>
      </trkpt>
      <trkpt lat="44.37133" lon="2.27485">
        <ele>407</ele>
        <time>2017-09-17T10:18:15Z</time>
      </trkpt>
      <trkpt lat="44.37123" lon="2.27484">
        <ele>409</ele>
        <time>2017-09-17T10:18:23Z</time>
      </trkpt>
      <trkpt lat="44.37119" lon="2.2748">
        <ele>409</ele>
        <time>2017-09-17T10:18:27Z</time>
      </trkpt>
      <trkpt lat="44.37115" lon="2.27477">
        <ele>410</ele>
        <time>2017-09-17T10:18:32Z</time>
      </trkpt>
      <trkpt lat="44.37112" lon="2.27471">
        <ele>410</ele>
        <time>2017-09-17T10:18:36Z</time>
      </trkpt>
      <trkpt lat="44.37109" lon="2.27464">
        <ele>410</ele>
        <time>2017-09-17T10:18:40Z</time>
      </trkpt>
      <trkpt lat="44.37106" lon="2.27454">
        <ele>411</ele>
        <time>2017-09-17T10:18:49Z</time>
      </trkpt>
      <trkpt lat="44.37101" lon="2.27437">
        <ele>412</ele>
        <time>2017-09-17T10:19:00Z</time>
      </trkpt>
      <trkpt lat="44.371" lon="2.27425">
        <ele>414</ele>
        <time>2017-09-17T10:19:09Z</time>
      </trkpt>
      <trkpt lat="44.37101" lon="2.27413">
        <ele>414</ele>
        <time>2017-09-17T10:19:16Z</time>
      </trkpt>
      <trkpt lat="44.37098" lon="2.27406">
        <ele>414</ele>
        <time>2017-09-17T10:19:19Z</time>
      </trkpt>
      <trkpt lat="44.37098" lon="2.27398">
        <ele>413</ele>
        <time>2017-09-17T10:19:24Z</time>
      </trkpt>
      <trkpt lat="44.37097" lon="2.27389">
        <ele>412</ele>
        <time>2017-09-17T10:19:29Z</time>
      </trkpt>
      <trkpt lat="44.37094" lon="2.27381">
        <ele>412</ele>
        <time>2017-09-17T10:19:33Z</time>
      </trkpt>
      <trkpt lat="44.37086" lon="2.27367">
        <ele>413</ele>
        <time>2017-09-17T10:19:41Z</time>
      </trkpt>
      <trkpt lat="44.37084" lon="2.27342">
        <ele>418</ele>
        <time>2017-09-17T10:19:53Z</time>
      </trkpt>
      <trkpt lat="44.37076" lon="2.273">
        <ele>440</ele>
        <time>2017-09-17T10:20:20Z</time>
      </trkpt>
      <trkpt lat="44.37079" lon="2.27292">
        <ele>441</ele>
        <time>2017-09-17T10:20:23Z</time>
      </trkpt>
      <trkpt lat="44.37085" lon="2.27286">
        <ele>417</ele>
        <time>2017-09-17T10:20:27Z</time>
      </trkpt>
      <trkpt lat="44.371" lon="2.27259">
        <ele>421</ele>
        <time>2017-09-17T10:20:44Z</time>
      </trkpt>
      <trkpt lat="44.371" lon="2.27247">
        <ele>427</ele>
        <time>2017-09-17T10:20:53Z</time>
      </trkpt>
      <trkpt lat="44.37106" lon="2.27238">
        <ele>425</ele>
        <time>2017-09-17T10:20:59Z</time>
      </trkpt>
      <trkpt lat="44.37114" lon="2.27208">
        <ele>425</ele>
        <time>2017-09-17T10:21:13Z</time>
      </trkpt>
      <trkpt lat="44.37126" lon="2.2719">
        <ele>423</ele>
        <time>2017-09-17T10:21:26Z</time>
      </trkpt>
      <trkpt lat="44.37131" lon="2.27184">
        <ele>422</ele>
        <time>2017-09-17T10:21:31Z</time>
      </trkpt>
      <trkpt lat="44.37134" lon="2.27175">
        <ele>421</ele>
        <time>2017-09-17T10:21:36Z</time>
      </trkpt>
      <trkpt lat="44.37137" lon="2.27167">
        <ele>420</ele>
        <time>2017-09-17T10:21:39Z</time>
      </trkpt>
      <trkpt lat="44.37136" lon="2.2716">
        <ele>432</ele>
        <time>2017-09-17T10:21:49Z</time>
      </trkpt>
      <trkpt lat="44.37137" lon="2.27152">
        <ele>432</ele>
        <time>2017-09-17T10:21:55Z</time>
      </trkpt>
      <trkpt lat="44.37145" lon="2.27137">
        <ele>433</ele>
        <time>2017-09-17T10:22:06Z</time>
      </trkpt>
      <trkpt lat="44.37152" lon="2.27131">
        <ele>433</ele>
        <time>2017-09-17T10:22:12Z</time>
      </trkpt>
      <trkpt lat="44.3716" lon="2.27115">
        <ele>434</ele>
        <time>2017-09-17T10:22:24Z</time>
      </trkpt>
      <trkpt lat="44.37165" lon="2.27111">
        <ele>434</ele>
        <time>2017-09-17T10:22:28Z</time>
      </trkpt>
      <trkpt lat="44.37192" lon="2.27075">
        <ele>421</ele>
        <time>2017-09-17T10:22:56Z</time>
      </trkpt>
      <trkpt lat="44.37199" lon="2.27072">
        <ele>420</ele>
        <time>2017-09-17T10:23:00Z</time>
      </trkpt>
      <trkpt lat="44.37216" lon="2.27058">
        <ele>417</ele>
        <time>2017-09-17T10:23:13Z</time>
      </trkpt>
      <trkpt lat="44.37229" lon="2.27047">
        <ele>415</ele>
        <time>2017-09-17T10:23:21Z</time>
      </trkpt>
      <trkpt lat="44.37233" lon="2.27045">
        <ele>415</ele>
        <time>2017-09-17T10:23:24Z</time>
      </trkpt>
      <trkpt lat="44.37237" lon="2.27042">
        <ele>414</ele>
        <time>2017-09-17T10:23:27Z</time>
      </trkpt>
      <trkpt lat="44.37238" lon="2.27038">
        <ele>414</ele>
        <time>2017-09-17T10:23:29Z</time>
      </trkpt>
      <trkpt lat="44.37236" lon="2.27029">
        <ele>414</ele>
        <time>2017-09-17T10:23:33Z</time>
      </trkpt>
      <trkpt lat="44.37235" lon="2.27024">
        <ele>413</ele>
        <time>2017-09-17T10:23:36Z</time>
      </trkpt>
      <trkpt lat="44.37233" lon="2.2702">
        <ele>413</ele>
        <time>2017-09-17T10:23:39Z</time>
      </trkpt>
      <trkpt lat="44.37226" lon="2.27009">
        <ele>414</ele>
        <time>2017-09-17T10:23:46Z</time>
      </trkpt>
      <trkpt lat="44.37221" lon="2.27004">
        <ele>414</ele>
        <time>2017-09-17T10:23:50Z</time>
      </trkpt>
      <trkpt lat="44.37216" lon="2.26994">
        <ele>410</ele>
        <time>2017-09-17T10:23:57Z</time>
      </trkpt>
      <trkpt lat="44.37211" lon="2.26989">
        <ele>411</ele>
        <time>2017-09-17T10:24:01Z</time>
      </trkpt>
      <trkpt lat="44.37207" lon="2.26985">
        <ele>411</ele>
        <time>2017-09-17T10:24:05Z</time>
      </trkpt>
      <trkpt lat="44.37198" lon="2.26974">
        <ele>412</ele>
        <time>2017-09-17T10:24:13Z</time>
      </trkpt>
      <trkpt lat="44.37187" lon="2.26963">
        <ele>411</ele>
        <time>2017-09-17T10:24:26Z</time>
      </trkpt>
      <trkpt lat="44.37183" lon="2.26957">
        <ele>411</ele>
        <time>2017-09-17T10:24:30Z</time>
      </trkpt>
      <trkpt lat="44.37179" lon="2.26948">
        <ele>410</ele>
        <time>2017-09-17T10:24:34Z</time>
      </trkpt>
      <trkpt lat="44.37177" lon="2.2694">
        <ele>410</ele>
        <time>2017-09-17T10:24:37Z</time>
      </trkpt>
      <trkpt lat="44.37163" lon="2.26911">
        <ele>412</ele>
        <time>2017-09-17T10:24:53Z</time>
      </trkpt>
      <trkpt lat="44.37159" lon="2.26903">
        <ele>415</ele>
        <time>2017-09-17T10:24:57Z</time>
      </trkpt>
      <trkpt lat="44.37154" lon="2.26894">
        <ele>417</ele>
        <time>2017-09-17T10:25:02Z</time>
      </trkpt>
      <trkpt lat="44.3715" lon="2.26888">
        <ele>418</ele>
        <time>2017-09-17T10:25:06Z</time>
      </trkpt>
      <trkpt lat="44.37148" lon="2.26882">
        <ele>418</ele>
        <time>2017-09-17T10:25:09Z</time>
      </trkpt>
      <trkpt lat="44.37145" lon="2.26874">
        <ele>418</ele>
        <time>2017-09-17T10:25:13Z</time>
      </trkpt>
      <trkpt lat="44.37141" lon="2.26868">
        <ele>418</ele>
        <time>2017-09-17T10:25:18Z</time>
      </trkpt>
      <trkpt lat="44.37135" lon="2.26855">
        <ele>418</ele>
        <time>2017-09-17T10:25:26Z</time>
      </trkpt>
      <trkpt lat="44.37133" lon="2.26848">
        <ele>418</ele>
        <time>2017-09-17T10:25:29Z</time>
      </trkpt>
      <trkpt lat="44.3713" lon="2.26842">
        <ele>418</ele>
        <time>2017-09-17T10:25:33Z</time>
      </trkpt>
      <trkpt lat="44.37127" lon="2.26837">
        <ele>419</ele>
        <time>2017-09-17T10:25:36Z</time>
      </trkpt>
      <trkpt lat="44.37125" lon="2.26832">
        <ele>413</ele>
        <time>2017-09-17T10:25:39Z</time>
      </trkpt>
      <trkpt lat="44.37124" lon="2.26827">
        <ele>414</ele>
        <time>2017-09-17T10:25:41Z</time>
      </trkpt>
      <trkpt lat="44.37119" lon="2.26813">
        <ele>415</ele>
        <time>2017-09-17T10:25:49Z</time>
      </trkpt>
      <trkpt lat="44.37117" lon="2.26808">
        <ele>415</ele>
        <time>2017-09-17T10:25:52Z</time>
      </trkpt>
      <trkpt lat="44.37119" lon="2.268">
        <ele>414</ele>
        <time>2017-09-17T10:25:57Z</time>
      </trkpt>
      <trkpt lat="44.37118" lon="2.26792">
        <ele>414</ele>
        <time>2017-09-17T10:26:02Z</time>
      </trkpt>
      <trkpt lat="44.37117" lon="2.26784">
        <ele>414</ele>
        <time>2017-09-17T10:26:06Z</time>
      </trkpt>
      <trkpt lat="44.37116" lon="2.26767">
        <ele>414</ele>
        <time>2017-09-17T10:26:15Z</time>
      </trkpt>
      <trkpt lat="44.37113" lon="2.26757">
        <ele>415</ele>
        <time>2017-09-17T10:26:23Z</time>
      </trkpt>
      <trkpt lat="44.3711" lon="2.26749">
        <ele>413</ele>
        <time>2017-09-17T10:26:28Z</time>
      </trkpt>
      <trkpt lat="44.37104" lon="2.26743">
        <ele>414</ele>
        <time>2017-09-17T10:26:32Z</time>
      </trkpt>
      <trkpt lat="44.37098" lon="2.26726">
        <ele>414</ele>
        <time>2017-09-17T10:26:43Z</time>
      </trkpt>
      <trkpt lat="44.37093" lon="2.26717">
        <ele>413</ele>
        <time>2017-09-17T10:26:48Z</time>
      </trkpt>
      <trkpt lat="44.3709" lon="2.2671">
        <ele>412</ele>
        <time>2017-09-17T10:26:52Z</time>
      </trkpt>
      <trkpt lat="44.3708" lon="2.26695">
        <ele>425</ele>
        <time>2017-09-17T10:27:02Z</time>
      </trkpt>
      <trkpt lat="44.37074" lon="2.26679">
        <ele>421</ele>
        <time>2017-09-17T10:27:10Z</time>
      </trkpt>
      <trkpt lat="44.37071" lon="2.26673">
        <ele>420</ele>
        <time>2017-09-17T10:27:13Z</time>
      </trkpt>
      <trkpt lat="44.37068" lon="2.26668">
        <ele>421</ele>
        <time>2017-09-17T10:27:17Z</time>
      </trkpt>
      <trkpt lat="44.37066" lon="2.26661">
        <ele>414</ele>
        <time>2017-09-17T10:27:20Z</time>
      </trkpt>
      <trkpt lat="44.37062" lon="2.26648">
        <ele>415</ele>
        <time>2017-09-17T10:27:26Z</time>
      </trkpt>
      <trkpt lat="44.37052" lon="2.26617">
        <ele>414</ele>
        <time>2017-09-17T10:27:44Z</time>
      </trkpt>
      <trkpt lat="44.3705" lon="2.26604">
        <ele>414</ele>
        <time>2017-09-17T10:27:51Z</time>
      </trkpt>
      <trkpt lat="44.37044" lon="2.26593">
        <ele>413</ele>
        <time>2017-09-17T10:27:58Z</time>
      </trkpt>
      <trkpt lat="44.3704" lon="2.26586">
        <ele>414</ele>
        <time>2017-09-17T10:28:02Z</time>
      </trkpt>
      <trkpt lat="44.37036" lon="2.26581">
        <ele>407</ele>
        <time>2017-09-17T10:28:05Z</time>
      </trkpt>
      <trkpt lat="44.37034" lon="2.26576">
        <ele>408</ele>
        <time>2017-09-17T10:28:08Z</time>
      </trkpt>
      <trkpt lat="44.37031" lon="2.26578">
        <ele>408</ele>
        <time>2017-09-17T10:28:46Z</time>
      </trkpt>
      <trkpt lat="44.37031" lon="2.26572">
        <ele>408</ele>
        <time>2017-09-17T10:28:54Z</time>
      </trkpt>
      <trkpt lat="44.37028" lon="2.26566">
        <ele>408</ele>
        <time>2017-09-17T10:29:00Z</time>
      </trkpt>
      <trkpt lat="44.3702" lon="2.26557">
        <ele>408</ele>
        <time>2017-09-17T10:29:07Z</time>
      </trkpt>
      <trkpt lat="44.37" lon="2.2655">
        <ele>413</ele>
        <time>2017-09-17T10:29:19Z</time>
      </trkpt>
      <trkpt lat="44.36989" lon="2.26551">
        <ele>414</ele>
        <time>2017-09-17T10:29:27Z</time>
      </trkpt>
      <trkpt lat="44.36983" lon="2.26551">
        <ele>414</ele>
        <time>2017-09-17T10:29:32Z</time>
      </trkpt>
      <trkpt lat="44.36976" lon="2.26551">
        <ele>414</ele>
        <time>2017-09-17T10:29:39Z</time>
      </trkpt>
      <trkpt lat="44.36956" lon="2.26558">
        <ele>416</ele>
        <time>2017-09-17T10:29:51Z</time>
      </trkpt>
      <trkpt lat="44.36951" lon="2.2656">
        <ele>416</ele>
        <time>2017-09-17T10:29:55Z</time>
      </trkpt>
      <trkpt lat="44.36947" lon="2.26555">
        <ele>416</ele>
        <time>2017-09-17T10:29:59Z</time>
      </trkpt>
      <trkpt lat="44.36944" lon="2.26549">
        <ele>416</ele>
        <time>2017-09-17T10:30:03Z</time>
      </trkpt>
      <trkpt lat="44.36945" lon="2.26542">
        <ele>415</ele>
        <time>2017-09-17T10:30:08Z</time>
      </trkpt>
      <trkpt lat="44.36947" lon="2.26534">
        <ele>415</ele>
        <time>2017-09-17T10:30:14Z</time>
      </trkpt>
      <trkpt lat="44.36947" lon="2.26525">
        <ele>414</ele>
        <time>2017-09-17T10:30:18Z</time>
      </trkpt>
      <trkpt lat="44.36951" lon="2.26513">
        <ele>414</ele>
        <time>2017-09-17T10:30:24Z</time>
      </trkpt>
      <trkpt lat="44.36954" lon="2.26509">
        <ele>413</ele>
        <time>2017-09-17T10:30:29Z</time>
      </trkpt>
      <trkpt lat="44.36953" lon="2.26504">
        <ele>413</ele>
        <time>2017-09-17T10:30:30Z</time>
      </trkpt>
      <trkpt lat="44.36952" lon="2.265">
        <ele>407</ele>
        <time>2017-09-17T10:30:33Z</time>
      </trkpt>
      <trkpt lat="44.36951" lon="2.26492">
        <ele>407</ele>
        <time>2017-09-17T10:30:37Z</time>
      </trkpt>
      <trkpt lat="44.36949" lon="2.26486">
        <ele>407</ele>
        <time>2017-09-17T10:30:41Z</time>
      </trkpt>
      <trkpt lat="44.36947" lon="2.26481">
        <ele>407</ele>
        <time>2017-09-17T10:30:44Z</time>
      </trkpt>
      <trkpt lat="44.36943" lon="2.26477">
        <ele>407</ele>
        <time>2017-09-17T10:30:49Z</time>
      </trkpt>
      <trkpt lat="44.3694" lon="2.26472">
        <ele>407</ele>
        <time>2017-09-17T10:30:52Z</time>
      </trkpt>
      <trkpt lat="44.36929" lon="2.2646">
        <ele>406</ele>
        <time>2017-09-17T10:31:00Z</time>
      </trkpt>
      <trkpt lat="44.36924" lon="2.26458">
        <ele>406</ele>
        <time>2017-09-17T10:31:03Z</time>
      </trkpt>
      <trkpt lat="44.3692" lon="2.26457">
        <ele>406</ele>
        <time>2017-09-17T10:31:07Z</time>
      </trkpt>
      <trkpt lat="44.36916" lon="2.26454">
        <ele>413</ele>
        <time>2017-09-17T10:31:11Z</time>
      </trkpt>
      <trkpt lat="44.36902" lon="2.26442">
        <ele>413</ele>
        <time>2017-09-17T10:31:23Z</time>
      </trkpt>
      <trkpt lat="44.36892" lon="2.26439">
        <ele>414</ele>
        <time>2017-09-17T10:31:29Z</time>
      </trkpt>
      <trkpt lat="44.36887" lon="2.2644">
        <ele>414</ele>
        <time>2017-09-17T10:31:32Z</time>
      </trkpt>
      <trkpt lat="44.36879" lon="2.26439">
        <ele>415</ele>
        <time>2017-09-17T10:31:38Z</time>
      </trkpt>
      <trkpt lat="44.36867" lon="2.26445">
        <ele>417</ele>
        <time>2017-09-17T10:31:47Z</time>
      </trkpt>
      <trkpt lat="44.36863" lon="2.26449">
        <ele>417</ele>
        <time>2017-09-17T10:31:50Z</time>
      </trkpt>
      <trkpt lat="44.36847" lon="2.26459">
        <ele>419</ele>
        <time>2017-09-17T10:32:03Z</time>
      </trkpt>
      <trkpt lat="44.36834" lon="2.26465">
        <ele>420</ele>
        <time>2017-09-17T10:32:15Z</time>
      </trkpt>
      <trkpt lat="44.36831" lon="2.26458">
        <ele>430</ele>
        <time>2017-09-17T10:32:23Z</time>
      </trkpt>
      <trkpt lat="44.36832" lon="2.26438">
        <ele>428</ele>
        <time>2017-09-17T10:32:33Z</time>
      </trkpt>
      <trkpt lat="44.36841" lon="2.26422">
        <ele>420</ele>
        <time>2017-09-17T10:32:41Z</time>
      </trkpt>
      <trkpt lat="44.36845" lon="2.26417">
        <ele>420</ele>
        <time>2017-09-17T10:32:47Z</time>
      </trkpt>
      <trkpt lat="44.3685" lon="2.26408">
        <ele>420</ele>
        <time>2017-09-17T10:32:53Z</time>
      </trkpt>
      <trkpt lat="44.36857" lon="2.26397">
        <ele>419</ele>
        <time>2017-09-17T10:33:00Z</time>
      </trkpt>
      <trkpt lat="44.3686" lon="2.26384">
        <ele>420</ele>
        <time>2017-09-17T10:33:06Z</time>
      </trkpt>
      <trkpt lat="44.36866" lon="2.26376">
        <ele>420</ele>
        <time>2017-09-17T10:33:12Z</time>
      </trkpt>
      <trkpt lat="44.36878" lon="2.26371">
        <ele>418</ele>
        <time>2017-09-17T10:33:18Z</time>
      </trkpt>
      <trkpt lat="44.36882" lon="2.26368">
        <ele>418</ele>
        <time>2017-09-17T10:33:21Z</time>
      </trkpt>
      <trkpt lat="44.36887" lon="2.26364">
        <ele>417</ele>
        <time>2017-09-17T10:33:24Z</time>
      </trkpt>
      <trkpt lat="44.36889" lon="2.26357">
        <ele>417</ele>
        <time>2017-09-17T10:33:32Z</time>
      </trkpt>
      <trkpt lat="44.36897" lon="2.26344">
        <ele>415</ele>
        <time>2017-09-17T10:33:40Z</time>
      </trkpt>
      <trkpt lat="44.36899" lon="2.26337">
        <ele>414</ele>
        <time>2017-09-17T10:33:46Z</time>
      </trkpt>
      <trkpt lat="44.36909" lon="2.26321">
        <ele>418</ele>
        <time>2017-09-17T10:33:59Z</time>
      </trkpt>
      <trkpt lat="44.36912" lon="2.26313">
        <ele>420</ele>
        <time>2017-09-17T10:34:03Z</time>
      </trkpt>
      <trkpt lat="44.36917" lon="2.26306">
        <ele>408</ele>
        <time>2017-09-17T10:34:08Z</time>
      </trkpt>
      <trkpt lat="44.36929" lon="2.26291">
        <ele>408</ele>
        <time>2017-09-17T10:34:19Z</time>
      </trkpt>
      <trkpt lat="44.36935" lon="2.26283">
        <ele>408</ele>
        <time>2017-09-17T10:34:24Z</time>
      </trkpt>
      <trkpt lat="44.3694" lon="2.26273">
        <ele>409</ele>
        <time>2017-09-17T10:34:31Z</time>
      </trkpt>
      <trkpt lat="44.36943" lon="2.26266">
        <ele>409</ele>
        <time>2017-09-17T10:34:35Z</time>
      </trkpt>
      <trkpt lat="44.36948" lon="2.26259">
        <ele>408</ele>
        <time>2017-09-17T10:34:39Z</time>
      </trkpt>
      <trkpt lat="44.36952" lon="2.2625">
        <ele>416</ele>
        <time>2017-09-17T10:34:45Z</time>
      </trkpt>
      <trkpt lat="44.3695" lon="2.26242">
        <ele>417</ele>
        <time>2017-09-17T10:34:49Z</time>
      </trkpt>
      <trkpt lat="44.36952" lon="2.26233">
        <ele>417</ele>
        <time>2017-09-17T10:34:53Z</time>
      </trkpt>
      <trkpt lat="44.36961" lon="2.26218">
        <ele>417</ele>
        <time>2017-09-17T10:35:04Z</time>
      </trkpt>
      <trkpt lat="44.36966" lon="2.26208">
        <ele>418</ele>
        <time>2017-09-17T10:35:10Z</time>
      </trkpt>
      <trkpt lat="44.36972" lon="2.262">
        <ele>418</ele>
        <time>2017-09-17T10:35:15Z</time>
      </trkpt>
      <trkpt lat="44.36984" lon="2.26162">
        <ele>432</ele>
        <time>2017-09-17T10:35:35Z</time>
      </trkpt>
      <trkpt lat="44.3699" lon="2.26155">
        <ele>432</ele>
        <time>2017-09-17T10:35:43Z</time>
      </trkpt>
      <trkpt lat="44.36995" lon="2.26152">
        <ele>432</ele>
        <time>2017-09-17T10:35:47Z</time>
      </trkpt>
      <trkpt lat="44.37002" lon="2.26149">
        <ele>424</ele>
        <time>2017-09-17T10:35:54Z</time>
      </trkpt>
      <trkpt lat="44.37009" lon="2.2615">
        <ele>424</ele>
        <time>2017-09-17T10:35:58Z</time>
      </trkpt>
      <trkpt lat="44.37015" lon="2.26147">
        <ele>425</ele>
        <time>2017-09-17T10:36:05Z</time>
      </trkpt>
      <trkpt lat="44.37022" lon="2.26148">
        <ele>425</ele>
        <time>2017-09-17T10:36:12Z</time>
      </trkpt>
      <trkpt lat="44.37041" lon="2.26143">
        <ele>425</ele>
        <time>2017-09-17T10:36:27Z</time>
      </trkpt>
      <trkpt lat="44.37045" lon="2.26145">
        <ele>424</ele>
        <time>2017-09-17T10:36:31Z</time>
      </trkpt>
      <trkpt lat="44.37052" lon="2.26144">
        <ele>424</ele>
        <time>2017-09-17T10:36:36Z</time>
      </trkpt>
      <trkpt lat="44.37059" lon="2.26143">
        <ele>423</ele>
        <time>2017-09-17T10:36:42Z</time>
      </trkpt>
      <trkpt lat="44.37065" lon="2.26142">
        <ele>422</ele>
        <time>2017-09-17T10:36:47Z</time>
      </trkpt>
      <trkpt lat="44.37075" lon="2.26144">
        <ele>421</ele>
        <time>2017-09-17T10:36:53Z</time>
      </trkpt>
      <trkpt lat="44.37096" lon="2.26153">
        <ele>413</ele>
        <time>2017-09-17T10:37:04Z</time>
      </trkpt>
      <trkpt lat="44.37103" lon="2.26159">
        <ele>412</ele>
        <time>2017-09-17T10:37:08Z</time>
      </trkpt>
      <trkpt lat="44.37127" lon="2.26169">
        <ele>403</ele>
        <time>2017-09-17T10:37:22Z</time>
      </trkpt>
      <trkpt lat="44.37173" lon="2.26201">
        <ele>398</ele>
        <time>2017-09-17T10:37:53Z</time>
      </trkpt>
      <trkpt lat="44.37187" lon="2.26213">
        <ele>397</ele>
        <time>2017-09-17T10:38:05Z</time>
      </trkpt>
      <trkpt lat="44.3719" lon="2.26218">
        <ele>396</ele>
        <time>2017-09-17T10:38:08Z</time>
      </trkpt>
      <trkpt lat="44.37194" lon="2.26224">
        <ele>396</ele>
        <time>2017-09-17T10:38:13Z</time>
      </trkpt>
      <trkpt lat="44.37203" lon="2.26231">
        <ele>395</ele>
        <time>2017-09-17T10:38:24Z</time>
      </trkpt>
      <trkpt lat="44.37209" lon="2.26233">
        <ele>395</ele>
        <time>2017-09-17T10:38:30Z</time>
      </trkpt>
      <trkpt lat="44.37214" lon="2.26234">
        <ele>395</ele>
        <time>2017-09-17T10:38:34Z</time>
      </trkpt>
      <trkpt lat="44.37222" lon="2.2624">
        <ele>394</ele>
        <time>2017-09-17T10:38:53Z</time>
      </trkpt>
      <trkpt lat="44.37226" lon="2.26242">
        <ele>393</ele>
        <time>2017-09-17T10:39:14Z</time>
      </trkpt>
      <trkpt lat="44.37236" lon="2.26242">
        <ele>392</ele>
        <time>2017-09-17T10:39:23Z</time>
      </trkpt>
      <trkpt lat="44.37241" lon="2.26244">
        <ele>391</ele>
        <time>2017-09-17T10:39:27Z</time>
      </trkpt>
      <trkpt lat="44.37246" lon="2.26246">
        <ele>390</ele>
        <time>2017-09-17T10:39:31Z</time>
      </trkpt>
      <trkpt lat="44.37258" lon="2.26241">
        <ele>391</ele>
        <time>2017-09-17T10:39:45Z</time>
      </trkpt>
      <trkpt lat="44.37263" lon="2.26237">
        <ele>392</ele>
        <time>2017-09-17T10:39:49Z</time>
      </trkpt>
      <trkpt lat="44.37268" lon="2.26235">
        <ele>392</ele>
        <time>2017-09-17T10:39:52Z</time>
      </trkpt>
      <trkpt lat="44.37273" lon="2.26232">
        <ele>392</ele>
        <time>2017-09-17T10:39:56Z</time>
      </trkpt>
      <trkpt lat="44.37278" lon="2.26229">
        <ele>393</ele>
        <time>2017-09-17T10:40:00Z</time>
      </trkpt>
      <trkpt lat="44.37288" lon="2.26221">
        <ele>393</ele>
        <time>2017-09-17T10:40:08Z</time>
      </trkpt>
      <trkpt lat="44.37297" lon="2.26203">
        <ele>394</ele>
        <time>2017-09-17T10:40:19Z</time>
      </trkpt>
      <trkpt lat="44.37303" lon="2.26198">
        <ele>394</ele>
        <time>2017-09-17T10:40:22Z</time>
      </trkpt>
      <trkpt lat="44.37302" lon="2.26184">
        <ele>395</ele>
        <time>2017-09-17T10:40:30Z</time>
      </trkpt>
      <trkpt lat="44.37295" lon="2.26168">
        <ele>395</ele>
        <time>2017-09-17T10:40:39Z</time>
      </trkpt>
      <trkpt lat="44.37291" lon="2.26164">
        <ele>399</ele>
        <time>2017-09-17T10:40:43Z</time>
      </trkpt>
      <trkpt lat="44.37282" lon="2.26149">
        <ele>399</ele>
        <time>2017-09-17T10:40:53Z</time>
      </trkpt>
      <trkpt lat="44.37279" lon="2.26136">
        <ele>399</ele>
        <time>2017-09-17T10:41:01Z</time>
      </trkpt>
      <trkpt lat="44.37272" lon="2.26124">
        <ele>399</ele>
        <time>2017-09-17T10:41:09Z</time>
      </trkpt>
      <trkpt lat="44.37269" lon="2.26119">
        <ele>398</ele>
        <time>2017-09-17T10:41:13Z</time>
      </trkpt>
      <trkpt lat="44.37265" lon="2.26114">
        <ele>398</ele>
        <time>2017-09-17T10:41:18Z</time>
      </trkpt>
      <trkpt lat="44.37262" lon="2.2611">
        <ele>398</ele>
        <time>2017-09-17T10:41:21Z</time>
      </trkpt>
      <trkpt lat="44.37261" lon="2.26104">
        <ele>397</ele>
        <time>2017-09-17T10:41:24Z</time>
      </trkpt>
      <trkpt lat="44.37253" lon="2.26092">
        <ele>395</ele>
        <time>2017-09-17T10:41:33Z</time>
      </trkpt>
      <trkpt lat="44.37247" lon="2.26081">
        <ele>394</ele>
        <time>2017-09-17T10:41:40Z</time>
      </trkpt>
      <trkpt lat="44.37244" lon="2.26077">
        <ele>395</ele>
        <time>2017-09-17T10:41:42Z</time>
      </trkpt>
      <trkpt lat="44.37243" lon="2.26073">
        <ele>396</ele>
        <time>2017-09-17T10:41:44Z</time>
      </trkpt>
      <trkpt lat="44.3724" lon="2.26068">
        <ele>397</ele>
        <time>2017-09-17T10:41:47Z</time>
      </trkpt>
      <trkpt lat="44.37238" lon="2.26065">
        <ele>398</ele>
        <time>2017-09-17T10:41:50Z</time>
      </trkpt>
      <trkpt lat="44.37235" lon="2.26061">
        <ele>398</ele>
        <time>2017-09-17T10:41:52Z</time>
      </trkpt>
      <trkpt lat="44.37233" lon="2.26058">
        <ele>398</ele>
        <time>2017-09-17T10:41:54Z</time>
      </trkpt>
      <trkpt lat="44.3723" lon="2.26055">
        <ele>399</ele>
        <time>2017-09-17T10:41:57Z</time>
      </trkpt>
      <trkpt lat="44.37216" lon="2.26031">
        <ele>400</ele>
        <time>2017-09-17T10:42:11Z</time>
      </trkpt>
      <trkpt lat="44.37211" lon="2.26025">
        <ele>400</ele>
        <time>2017-09-17T10:42:16Z</time>
      </trkpt>
      <trkpt lat="44.3721" lon="2.26021">
        <ele>400</ele>
        <time>2017-09-17T10:42:18Z</time>
      </trkpt>
      <trkpt lat="44.37206" lon="2.26013">
        <ele>400</ele>
        <time>2017-09-17T10:42:23Z</time>
      </trkpt>
      <trkpt lat="44.37201" lon="2.26006">
        <ele>401</ele>
        <time>2017-09-17T10:42:28Z</time>
      </trkpt>
      <trkpt lat="44.37191" lon="2.25988">
        <ele>402</ele>
        <time>2017-09-17T10:42:41Z</time>
      </trkpt>
      <trkpt lat="44.37189" lon="2.25984">
        <ele>402</ele>
        <time>2017-09-17T10:42:44Z</time>
      </trkpt>
      <trkpt lat="44.37187" lon="2.25979">
        <ele>402</ele>
        <time>2017-09-17T10:42:49Z</time>
      </trkpt>
      <trkpt lat="44.37183" lon="2.25976">
        <ele>402</ele>
        <time>2017-09-17T10:42:53Z</time>
      </trkpt>
      <trkpt lat="44.37178" lon="2.25962">
        <ele>402</ele>
        <time>2017-09-17T10:43:03Z</time>
      </trkpt>
      <trkpt lat="44.37176" lon="2.25956">
        <ele>402</ele>
        <time>2017-09-17T10:43:07Z</time>
      </trkpt>
      <trkpt lat="44.3717" lon="2.25937">
        <ele>401</ele>
        <time>2017-09-17T10:43:21Z</time>
      </trkpt>
      <trkpt lat="44.37167" lon="2.25932">
        <ele>410</ele>
        <time>2017-09-17T10:43:24Z</time>
      </trkpt>
      <trkpt lat="44.37163" lon="2.25926">
        <ele>408</ele>
        <time>2017-09-17T10:43:28Z</time>
      </trkpt>
      <trkpt lat="44.37162" lon="2.25909">
        <ele>407</ele>
        <time>2017-09-17T10:43:40Z</time>
      </trkpt>
      <trkpt lat="44.3716" lon="2.25899">
        <ele>414</ele>
        <time>2017-09-17T10:43:48Z</time>
      </trkpt>
      <trkpt lat="44.37161" lon="2.25887">
        <ele>417</ele>
        <time>2017-09-17T10:43:54Z</time>
      </trkpt>
      <trkpt lat="44.37161" lon="2.25863">
        <ele>418</ele>
        <time>2017-09-17T10:44:07Z</time>
      </trkpt>
      <trkpt lat="44.37174" lon="2.25846">
        <ele>407</ele>
        <time>2017-09-17T10:44:20Z</time>
      </trkpt>
      <trkpt lat="44.37183" lon="2.25842">
        <ele>408</ele>
        <time>2017-09-17T10:44:25Z</time>
      </trkpt>
      <trkpt lat="44.37195" lon="2.25825">
        <ele>413</ele>
        <time>2017-09-17T10:44:39Z</time>
      </trkpt>
      <trkpt lat="44.37185" lon="2.25797">
        <ele>413</ele>
        <time>2017-09-17T10:44:51Z</time>
      </trkpt>
      <trkpt lat="44.37182" lon="2.25787">
        <ele>413</ele>
        <time>2017-09-17T10:44:56Z</time>
      </trkpt>
      <trkpt lat="44.37183" lon="2.25775">
        <ele>413</ele>
        <time>2017-09-17T10:45:02Z</time>
      </trkpt>
      <trkpt lat="44.37191" lon="2.25755">
        <ele>414</ele>
        <time>2017-09-17T10:45:13Z</time>
      </trkpt>
      <trkpt lat="44.3719" lon="2.25743">
        <ele>414</ele>
        <time>2017-09-17T10:45:18Z</time>
      </trkpt>
      <trkpt lat="44.37189" lon="2.25733">
        <ele>414</ele>
        <time>2017-09-17T10:45:24Z</time>
      </trkpt>
      <trkpt lat="44.37191" lon="2.25713">
        <ele>415</ele>
        <time>2017-09-17T10:45:35Z</time>
      </trkpt>
      <trkpt lat="44.37189" lon="2.25703">
        <ele>415</ele>
        <time>2017-09-17T10:45:40Z</time>
      </trkpt>
      <trkpt lat="44.37194" lon="2.25695">
        <ele>415</ele>
        <time>2017-09-17T10:45:46Z</time>
      </trkpt>
      <trkpt lat="44.37195" lon="2.25686">
        <ele>415</ele>
        <time>2017-09-17T10:45:50Z</time>
      </trkpt>
      <trkpt lat="44.37195" lon="2.25677">
        <ele>415</ele>
        <time>2017-09-17T10:45:54Z</time>
      </trkpt>
      <trkpt lat="44.37193" lon="2.25667">
        <ele>415</ele>
        <time>2017-09-17T10:45:58Z</time>
      </trkpt>
      <trkpt lat="44.37193" lon="2.25659">
        <ele>414</ele>
        <time>2017-09-17T10:46:02Z</time>
      </trkpt>
      <trkpt lat="44.37195" lon="2.2565">
        <ele>414</ele>
        <time>2017-09-17T10:46:07Z</time>
      </trkpt>
      <trkpt lat="44.37194" lon="2.2564">
        <ele>413</ele>
        <time>2017-09-17T10:46:13Z</time>
      </trkpt>
      <trkpt lat="44.37193" lon="2.2562">
        <ele>413</ele>
        <time>2017-09-17T10:46:23Z</time>
      </trkpt>
      <trkpt lat="44.37195" lon="2.25611">
        <ele>413</ele>
        <time>2017-09-17T10:46:29Z</time>
      </trkpt>
      <trkpt lat="44.37196" lon="2.25599">
        <ele>413</ele>
        <time>2017-09-17T10:46:35Z</time>
      </trkpt>
      <trkpt lat="44.37202" lon="2.25588">
        <ele>413</ele>
        <time>2017-09-17T10:46:41Z</time>
      </trkpt>
      <trkpt lat="44.37203" lon="2.25579">
        <ele>414</ele>
        <time>2017-09-17T10:46:46Z</time>
      </trkpt>
      <trkpt lat="44.37203" lon="2.2557">
        <ele>414</ele>
        <time>2017-09-17T10:46:50Z</time>
      </trkpt>
      <trkpt lat="44.37204" lon="2.25561">
        <ele>414</ele>
        <time>2017-09-17T10:46:54Z</time>
      </trkpt>
      <trkpt lat="44.37207" lon="2.2555">
        <ele>414</ele>
        <time>2017-09-17T10:47:00Z</time>
      </trkpt>
      <trkpt lat="44.3721" lon="2.25542">
        <ele>414</ele>
        <time>2017-09-17T10:47:04Z</time>
      </trkpt>
      <trkpt lat="44.37216" lon="2.25533">
        <ele>413</ele>
        <time>2017-09-17T10:47:09Z</time>
      </trkpt>
      <trkpt lat="44.37219" lon="2.25525">
        <ele>413</ele>
        <time>2017-09-17T10:47:13Z</time>
      </trkpt>
      <trkpt lat="44.3722" lon="2.25515">
        <ele>412</ele>
        <time>2017-09-17T10:47:18Z</time>
      </trkpt>
      <trkpt lat="44.37232" lon="2.25467">
        <ele>419</ele>
        <time>2017-09-17T10:47:44Z</time>
      </trkpt>
      <trkpt lat="44.37235" lon="2.2546">
        <ele>420</ele>
        <time>2017-09-17T10:47:48Z</time>
      </trkpt>
      <trkpt lat="44.37237" lon="2.25453">
        <ele>420</ele>
        <time>2017-09-17T10:47:52Z</time>
      </trkpt>
      <trkpt lat="44.37239" lon="2.25444">
        <ele>419</ele>
        <time>2017-09-17T10:47:57Z</time>
      </trkpt>
      <trkpt lat="44.37243" lon="2.25438">
        <ele>417</ele>
        <time>2017-09-17T10:48:01Z</time>
      </trkpt>
      <trkpt lat="44.37248" lon="2.25421">
        <ele>411</ele>
        <time>2017-09-17T10:48:10Z</time>
      </trkpt>
      <trkpt lat="44.37252" lon="2.25412">
        <ele>407</ele>
        <time>2017-09-17T10:48:16Z</time>
      </trkpt>
      <trkpt lat="44.37254" lon="2.25403">
        <ele>408</ele>
        <time>2017-09-17T10:48:21Z</time>
      </trkpt>
      <trkpt lat="44.37266" lon="2.2538">
        <ele>410</ele>
        <time>2017-09-17T10:48:37Z</time>
      </trkpt>
      <trkpt lat="44.37269" lon="2.25372">
        <ele>411</ele>
        <time>2017-09-17T10:48:41Z</time>
      </trkpt>
      <trkpt lat="44.37273" lon="2.25365">
        <ele>411</ele>
        <time>2017-09-17T10:48:46Z</time>
      </trkpt>
      <trkpt lat="44.37277" lon="2.25359">
        <ele>412</ele>
        <time>2017-09-17T10:48:51Z</time>
      </trkpt>
      <trkpt lat="44.37278" lon="2.25359">
        <ele>411</ele>
        <time>2017-09-17T10:49:18Z</time>
      </trkpt>
      <trkpt lat="44.37281" lon="2.25351">
        <ele>412</ele>
        <time>2017-09-17T10:49:34Z</time>
      </trkpt>
      <trkpt lat="44.37282" lon="2.25341">
        <ele>412</ele>
        <time>2017-09-17T10:49:46Z</time>
      </trkpt>
      <trkpt lat="44.37283" lon="2.25332">
        <ele>426</ele>
        <time>2017-09-17T10:49:54Z</time>
      </trkpt>
      <trkpt lat="44.37289" lon="2.25315">
        <ele>426</ele>
        <time>2017-09-17T10:50:05Z</time>
      </trkpt>
      <trkpt lat="44.37297" lon="2.2531">
        <ele>424</ele>
        <time>2017-09-17T10:50:10Z</time>
      </trkpt>
      <trkpt lat="44.37301" lon="2.25304">
        <ele>424</ele>
        <time>2017-09-17T10:50:14Z</time>
      </trkpt>
      <trkpt lat="44.37307" lon="2.25299">
        <ele>424</ele>
        <time>2017-09-17T10:50:19Z</time>
      </trkpt>
      <trkpt lat="44.3732" lon="2.25284">
        <ele>424</ele>
        <time>2017-09-17T10:50:38Z</time>
      </trkpt>
      <trkpt lat="44.37329" lon="2.25276">
        <ele>423</ele>
        <time>2017-09-17T10:50:55Z</time>
      </trkpt>
      <trkpt lat="44.37334" lon="2.25274">
        <ele>408</ele>
        <time>2017-09-17T10:51:12Z</time>
      </trkpt>
      <trkpt lat="44.37338" lon="2.25264">
        <ele>410</ele>
        <time>2017-09-17T10:51:19Z</time>
      </trkpt>
      <trkpt lat="44.3734" lon="2.25258">
        <ele>413</ele>
        <time>2017-09-17T10:51:25Z</time>
      </trkpt>
      <trkpt lat="44.37342" lon="2.25252">
        <ele>413</ele>
        <time>2017-09-17T10:51:31Z</time>
      </trkpt>
      <trkpt lat="44.37348" lon="2.25249">
        <ele>420</ele>
        <time>2017-09-17T10:51:38Z</time>
      </trkpt>
      <trkpt lat="44.37353" lon="2.25245">
        <ele>419</ele>
        <time>2017-09-17T10:51:46Z</time>
      </trkpt>
      <trkpt lat="44.37361" lon="2.2524">
        <ele>419</ele>
        <time>2017-09-17T10:51:58Z</time>
      </trkpt>
      <trkpt lat="44.37365" lon="2.25238">
        <ele>419</ele>
        <time>2017-09-17T10:52:05Z</time>
      </trkpt>
      <trkpt lat="44.37369" lon="2.25232">
        <ele>419</ele>
        <time>2017-09-17T10:52:11Z</time>
      </trkpt>
      <trkpt lat="44.37374" lon="2.2523">
        <ele>418</ele>
        <time>2017-09-17T10:52:16Z</time>
      </trkpt>
      <trkpt lat="44.37379" lon="2.25232">
        <ele>417</ele>
        <time>2017-09-17T10:52:25Z</time>
      </trkpt>
      <trkpt lat="44.37383" lon="2.2523">
        <ele>416</ele>
        <time>2017-09-17T10:52:33Z</time>
      </trkpt>
      <trkpt lat="44.37387" lon="2.25226">
        <ele>416</ele>
        <time>2017-09-17T10:52:34Z</time>
      </trkpt>
      <trkpt lat="44.37392" lon="2.25221">
        <ele>416</ele>
        <time>2017-09-17T10:52:50Z</time>
      </trkpt>
      <trkpt lat="44.37397" lon="2.25219">
        <ele>416</ele>
        <time>2017-09-17T10:53:00Z</time>
      </trkpt>
      <trkpt lat="44.37401" lon="2.25216">
        <ele>416</ele>
        <time>2017-09-17T10:53:49Z</time>
      </trkpt>
      <trkpt lat="44.37404" lon="2.25219">
        <ele>415</ele>
        <time>2017-09-17T10:53:57Z</time>
      </trkpt>
      <trkpt lat="44.37408" lon="2.25218">
        <ele>415</ele>
        <time>2017-09-17T10:54:03Z</time>
      </trkpt>
      <trkpt lat="44.37411" lon="2.25219">
        <ele>414</ele>
        <time>2017-09-17T10:54:09Z</time>
      </trkpt>
      <trkpt lat="44.37414" lon="2.25217">
        <ele>414</ele>
        <time>2017-09-17T10:54:12Z</time>
      </trkpt>
      <trkpt lat="44.37418" lon="2.25215">
        <ele>409</ele>
        <time>2017-09-17T10:54:15Z</time>
      </trkpt>
      <trkpt lat="44.37422" lon="2.25214">
        <ele>410</ele>
        <time>2017-09-17T10:54:20Z</time>
      </trkpt>
      <trkpt lat="44.37426" lon="2.25211">
        <ele>410</ele>
        <time>2017-09-17T10:54:26Z</time>
      </trkpt>
      <trkpt lat="44.3743" lon="2.25212">
        <ele>410</ele>
        <time>2017-09-17T10:54:30Z</time>
      </trkpt>
      <trkpt lat="44.37438" lon="2.25214">
        <ele>410</ele>
        <time>2017-09-17T10:54:37Z</time>
      </trkpt>
      <trkpt lat="44.37442" lon="2.25215">
        <ele>410</ele>
        <time>2017-09-17T10:54:40Z</time>
      </trkpt>
      <trkpt lat="44.37446" lon="2.25216">
        <ele>410</ele>
        <time>2017-09-17T10:54:43Z</time>
      </trkpt>
      <trkpt lat="44.37461" lon="2.25224">
        <ele>410</ele>
        <time>2017-09-17T10:54:56Z</time>
      </trkpt>
      <trkpt lat="44.37465" lon="2.25227">
        <ele>409</ele>
        <time>2017-09-17T10:54:59Z</time>
      </trkpt>
      <trkpt lat="44.37469" lon="2.25231">
        <ele>409</ele>
        <time>2017-09-17T10:55:02Z</time>
      </trkpt>
      <trkpt lat="44.37471" lon="2.25235">
        <ele>408</ele>
        <time>2017-09-17T10:55:04Z</time>
      </trkpt>
      <trkpt lat="44.37477" lon="2.25242">
        <ele>407</ele>
        <time>2017-09-17T10:55:09Z</time>
      </trkpt>
      <trkpt lat="44.37478" lon="2.25247">
        <ele>406</ele>
        <time>2017-09-17T10:55:12Z</time>
      </trkpt>
      <trkpt lat="44.37503" lon="2.2528">
        <ele>402</ele>
        <time>2017-09-17T10:55:36Z</time>
      </trkpt>
      <trkpt lat="44.37514" lon="2.25292">
        <ele>401</ele>
        <time>2017-09-17T10:55:46Z</time>
      </trkpt>
      <trkpt lat="44.37516" lon="2.25294">
        <ele>401</ele>
        <time>2017-09-17T10:55:48Z</time>
      </trkpt>
      <trkpt lat="44.37521" lon="2.25302">
        <ele>401</ele>
        <time>2017-09-17T10:55:53Z</time>
      </trkpt>
      <trkpt lat="44.37523" lon="2.25305">
        <ele>401</ele>
        <time>2017-09-17T10:55:55Z</time>
      </trkpt>
      <trkpt lat="44.37525" lon="2.25309">
        <ele>401</ele>
        <time>2017-09-17T10:55:58Z</time>
      </trkpt>
      <trkpt lat="44.37527" lon="2.25313">
        <ele>401</ele>
        <time>2017-09-17T10:56:01Z</time>
      </trkpt>
      <trkpt lat="44.37529" lon="2.25316">
        <ele>401</ele>
        <time>2017-09-17T10:56:05Z</time>
      </trkpt>
      <trkpt lat="44.37533" lon="2.25318">
        <ele>401</ele>
        <time>2017-09-17T10:56:08Z</time>
      </trkpt>
      <trkpt lat="44.37536" lon="2.25322">
        <ele>401</ele>
        <time>2017-09-17T10:56:10Z</time>
      </trkpt>
      <trkpt lat="44.37538" lon="2.25324">
        <ele>401</ele>
        <time>2017-09-17T10:56:12Z</time>
      </trkpt>
      <trkpt lat="44.37542" lon="2.2533">
        <ele>402</ele>
        <time>2017-09-17T10:56:18Z</time>
      </trkpt>
      <trkpt lat="44.37546" lon="2.25334">
        <ele>399</ele>
        <time>2017-09-17T10:56:25Z</time>
      </trkpt>
      <trkpt lat="44.37549" lon="2.25337">
        <ele>400</ele>
        <time>2017-09-17T10:56:30Z</time>
      </trkpt>
      <trkpt lat="44.37552" lon="2.25339">
        <ele>400</ele>
        <time>2017-09-17T10:56:34Z</time>
      </trkpt>
      <trkpt lat="44.37553" lon="2.25344">
        <ele>400</ele>
        <time>2017-09-17T10:56:47Z</time>
      </trkpt>
      <trkpt lat="44.37556" lon="2.25348">
        <ele>400</ele>
        <time>2017-09-17T10:56:51Z</time>
      </trkpt>
      <trkpt lat="44.37559" lon="2.2535">
        <ele>400</ele>
        <time>2017-09-17T10:56:54Z</time>
      </trkpt>
      <trkpt lat="44.37562" lon="2.25354">
        <ele>400</ele>
        <time>2017-09-17T10:56:57Z</time>
      </trkpt>
      <trkpt lat="44.37565" lon="2.25358">
        <ele>400</ele>
        <time>2017-09-17T10:57:00Z</time>
      </trkpt>
      <trkpt lat="44.37567" lon="2.25362">
        <ele>400</ele>
        <time>2017-09-17T10:57:03Z</time>
      </trkpt>
      <trkpt lat="44.37569" lon="2.25367">
        <ele>400</ele>
        <time>2017-09-17T10:57:07Z</time>
      </trkpt>
      <trkpt lat="44.37572" lon="2.25371">
        <ele>400</ele>
        <time>2017-09-17T10:57:11Z</time>
      </trkpt>
      <trkpt lat="44.37575" lon="2.25375">
        <ele>399</ele>
        <time>2017-09-17T10:57:15Z</time>
      </trkpt>
      <trkpt lat="44.37581" lon="2.25386">
        <ele>399</ele>
        <time>2017-09-17T10:57:22Z</time>
      </trkpt>
      <trkpt lat="44.37588" lon="2.25395">
        <ele>397</ele>
        <time>2017-09-17T10:57:29Z</time>
      </trkpt>
      <trkpt lat="44.37589" lon="2.25401">
        <ele>397</ele>
        <time>2017-09-17T10:57:32Z</time>
      </trkpt>
      <trkpt lat="44.37598" lon="2.25413">
        <ele>396</ele>
        <time>2017-09-17T10:57:41Z</time>
      </trkpt>
      <trkpt lat="44.37602" lon="2.25416">
        <ele>396</ele>
        <time>2017-09-17T10:57:44Z</time>
      </trkpt>
      <trkpt lat="44.37606" lon="2.25418">
        <ele>398</ele>
        <time>2017-09-17T10:57:47Z</time>
      </trkpt>
      <trkpt lat="44.37621" lon="2.25427">
        <ele>398</ele>
        <time>2017-09-17T10:57:59Z</time>
      </trkpt>
      <trkpt lat="44.37631" lon="2.25431">
        <ele>398</ele>
        <time>2017-09-17T10:58:05Z</time>
      </trkpt>
      <trkpt lat="44.37664" lon="2.25432">
        <ele>396</ele>
        <time>2017-09-17T10:58:32Z</time>
      </trkpt>
      <trkpt lat="44.37668" lon="2.25433">
        <ele>398</ele>
        <time>2017-09-17T10:58:42Z</time>
      </trkpt>
      <trkpt lat="44.37673" lon="2.25431">
        <ele>397</ele>
        <time>2017-09-17T10:58:49Z</time>
      </trkpt>
      <trkpt lat="44.37688" lon="2.25426">
        <ele>399</ele>
        <time>2017-09-17T10:59:00Z</time>
      </trkpt>
      <trkpt lat="44.37693" lon="2.25423">
        <ele>399</ele>
        <time>2017-09-17T10:59:05Z</time>
      </trkpt>
      <trkpt lat="44.37697" lon="2.25418">
        <ele>400</ele>
        <time>2017-09-17T10:59:11Z</time>
      </trkpt>
      <trkpt lat="44.37712" lon="2.25408">
        <ele>395</ele>
        <time>2017-09-17T10:59:23Z</time>
      </trkpt>
      <trkpt lat="44.37715" lon="2.25403">
        <ele>395</ele>
        <time>2017-09-17T10:59:26Z</time>
      </trkpt>
      <trkpt lat="44.37719" lon="2.254">
        <ele>395</ele>
        <time>2017-09-17T10:59:29Z</time>
      </trkpt>
      <trkpt lat="44.37721" lon="2.25396">
        <ele>395</ele>
        <time>2017-09-17T10:59:32Z</time>
      </trkpt>
      <trkpt lat="44.3773" lon="2.25381">
        <ele>395</ele>
        <time>2017-09-17T10:59:43Z</time>
      </trkpt>
      <trkpt lat="44.37735" lon="2.2537">
        <ele>394</ele>
        <time>2017-09-17T10:59:48Z</time>
      </trkpt>
      <trkpt lat="44.37742" lon="2.25355">
        <ele>393</ele>
        <time>2017-09-17T10:59:57Z</time>
      </trkpt>
      <trkpt lat="44.37743" lon="2.25348">
        <ele>392</ele>
        <time>2017-09-17T11:00:02Z</time>
      </trkpt>
      <trkpt lat="44.37746" lon="2.25337">
        <ele>390</ele>
        <time>2017-09-17T11:00:09Z</time>
      </trkpt>
      <trkpt lat="44.37749" lon="2.25332">
        <ele>390</ele>
        <time>2017-09-17T11:00:12Z</time>
      </trkpt>
      <trkpt lat="44.37749" lon="2.25327">
        <ele>390</ele>
        <time>2017-09-17T11:00:15Z</time>
      </trkpt>
      <trkpt lat="44.3775" lon="2.25321">
        <ele>397</ele>
        <time>2017-09-17T11:00:18Z</time>
      </trkpt>
      <trkpt lat="44.3775" lon="2.25317">
        <ele>392</ele>
        <time>2017-09-17T11:00:21Z</time>
      </trkpt>
      <trkpt lat="44.37752" lon="2.25307">
        <ele>402</ele>
        <time>2017-09-17T11:00:26Z</time>
      </trkpt>
      <trkpt lat="44.37751" lon="2.25301">
        <ele>403</ele>
        <time>2017-09-17T11:00:29Z</time>
      </trkpt>
      <trkpt lat="44.3775" lon="2.25285">
        <ele>404</ele>
        <time>2017-09-17T11:00:38Z</time>
      </trkpt>
      <trkpt lat="44.3775" lon="2.2528">
        <ele>403</ele>
        <time>2017-09-17T11:00:41Z</time>
      </trkpt>
      <trkpt lat="44.3775" lon="2.25274">
        <ele>393</ele>
        <time>2017-09-17T11:00:45Z</time>
      </trkpt>
      <trkpt lat="44.37748" lon="2.25267">
        <ele>393</ele>
        <time>2017-09-17T11:00:49Z</time>
      </trkpt>
      <trkpt lat="44.37748" lon="2.25255">
        <ele>393</ele>
        <time>2017-09-17T11:00:56Z</time>
      </trkpt>
      <trkpt lat="44.37749" lon="2.25249">
        <ele>392</ele>
        <time>2017-09-17T11:01:01Z</time>
      </trkpt>
      <trkpt lat="44.37749" lon="2.25243">
        <ele>393</ele>
        <time>2017-09-17T11:01:04Z</time>
      </trkpt>
      <trkpt lat="44.3775" lon="2.25237">
        <ele>399</ele>
        <time>2017-09-17T11:01:08Z</time>
      </trkpt>
      <trkpt lat="44.37752" lon="2.25232">
        <ele>401</ele>
        <time>2017-09-17T11:01:18Z</time>
      </trkpt>
      <trkpt lat="44.37751" lon="2.25225">
        <ele>402</ele>
        <time>2017-09-17T11:01:23Z</time>
      </trkpt>
      <trkpt lat="44.37751" lon="2.25217">
        <ele>404</ele>
        <time>2017-09-17T11:01:27Z</time>
      </trkpt>
      <trkpt lat="44.3775" lon="2.25211">
        <ele>394</ele>
        <time>2017-09-17T11:01:30Z</time>
      </trkpt>
      <trkpt lat="44.3775" lon="2.25206">
        <ele>394</ele>
        <time>2017-09-17T11:01:33Z</time>
      </trkpt>
      <trkpt lat="44.37748" lon="2.25202">
        <ele>394</ele>
        <time>2017-09-17T11:01:36Z</time>
      </trkpt>
      <trkpt lat="44.37746" lon="2.25197">
        <ele>394</ele>
        <time>2017-09-17T11:01:40Z</time>
      </trkpt>
      <trkpt lat="44.37743" lon="2.25193">
        <ele>394</ele>
        <time>2017-09-17T11:01:52Z</time>
      </trkpt>
      <trkpt lat="44.37742" lon="2.25188">
        <ele>394</ele>
        <time>2017-09-17T11:01:58Z</time>
      </trkpt>
      <trkpt lat="44.3774" lon="2.25184">
        <ele>394</ele>
        <time>2017-09-17T11:02:02Z</time>
      </trkpt>
      <trkpt lat="44.37739" lon="2.2518">
        <ele>394</ele>
        <time>2017-09-17T11:02:04Z</time>
      </trkpt>
      <trkpt lat="44.37737" lon="2.25172">
        <ele>394</ele>
        <time>2017-09-17T11:02:08Z</time>
      </trkpt>
      <trkpt lat="44.37735" lon="2.25165">
        <ele>395</ele>
        <time>2017-09-17T11:02:14Z</time>
      </trkpt>
      <trkpt lat="44.37734" lon="2.25157">
        <ele>395</ele>
        <time>2017-09-17T11:02:20Z</time>
      </trkpt>
      <trkpt lat="44.3773" lon="2.25137">
        <ele>396</ele>
        <time>2017-09-17T11:02:32Z</time>
      </trkpt>
      <trkpt lat="44.37727" lon="2.25127">
        <ele>397</ele>
        <time>2017-09-17T11:02:38Z</time>
      </trkpt>
      <trkpt lat="44.37726" lon="2.25122">
        <ele>397</ele>
        <time>2017-09-17T11:02:41Z</time>
      </trkpt>
      <trkpt lat="44.37725" lon="2.25118">
        <ele>397</ele>
        <time>2017-09-17T11:02:44Z</time>
      </trkpt>
      <trkpt lat="44.37723" lon="2.25112">
        <ele>397</ele>
        <time>2017-09-17T11:02:48Z</time>
      </trkpt>
      <trkpt lat="44.37721" lon="2.25108">
        <ele>397</ele>
        <time>2017-09-17T11:02:51Z</time>
      </trkpt>
      <trkpt lat="44.37719" lon="2.25103">
        <ele>397</ele>
        <time>2017-09-17T11:02:57Z</time>
      </trkpt>
      <trkpt lat="44.37717" lon="2.25088">
        <ele>397</ele>
        <time>2017-09-17T11:03:14Z</time>
      </trkpt>
      <trkpt lat="44.37715" lon="2.25082">
        <ele>399</ele>
        <time>2017-09-17T11:03:23Z</time>
      </trkpt>
      <trkpt lat="44.37714" lon="2.25076">
        <ele>399</ele>
        <time>2017-09-17T11:03:27Z</time>
      </trkpt>
      <trkpt lat="44.37713" lon="2.2507">
        <ele>399</ele>
        <time>2017-09-17T11:03:31Z</time>
      </trkpt>
      <trkpt lat="44.37713" lon="2.25062">
        <ele>399</ele>
        <time>2017-09-17T11:03:36Z</time>
      </trkpt>
      <trkpt lat="44.37704" lon="2.25033">
        <ele>398</ele>
        <time>2017-09-17T11:03:52Z</time>
      </trkpt>
      <trkpt lat="44.37703" lon="2.25027">
        <ele>398</ele>
        <time>2017-09-17T11:03:55Z</time>
      </trkpt>
      <trkpt lat="44.37702" lon="2.25023">
        <ele>398</ele>
        <time>2017-09-17T11:03:58Z</time>
      </trkpt>
      <trkpt lat="44.37699" lon="2.25017">
        <ele>397</ele>
        <time>2017-09-17T11:04:02Z</time>
      </trkpt>
      <trkpt lat="44.37697" lon="2.25013">
        <ele>397</ele>
        <time>2017-09-17T11:04:06Z</time>
      </trkpt>
      <trkpt lat="44.37693" lon="2.2501">
        <ele>397</ele>
        <time>2017-09-17T11:04:09Z</time>
      </trkpt>
      <trkpt lat="44.37685" lon="2.2499">
        <ele>396</ele>
        <time>2017-09-17T11:04:21Z</time>
      </trkpt>
      <trkpt lat="44.37683" lon="2.24984">
        <ele>397</ele>
        <time>2017-09-17T11:04:25Z</time>
      </trkpt>
      <trkpt lat="44.37682" lon="2.24979">
        <ele>397</ele>
        <time>2017-09-17T11:04:28Z</time>
      </trkpt>
      <trkpt lat="44.37678" lon="2.24964">
        <ele>398</ele>
        <time>2017-09-17T11:04:36Z</time>
      </trkpt>
      <trkpt lat="44.37672" lon="2.24952">
        <ele>398</ele>
        <time>2017-09-17T11:04:44Z</time>
      </trkpt>
      <trkpt lat="44.3767" lon="2.24946">
        <ele>397</ele>
        <time>2017-09-17T11:04:48Z</time>
      </trkpt>
      <trkpt lat="44.37669" lon="2.2494">
        <ele>397</ele>
        <time>2017-09-17T11:04:52Z</time>
      </trkpt>
      <trkpt lat="44.37669" lon="2.24935">
        <ele>396</ele>
        <time>2017-09-17T11:04:54Z</time>
      </trkpt>
      <trkpt lat="44.37666" lon="2.2493">
        <ele>394</ele>
        <time>2017-09-17T11:04:57Z</time>
      </trkpt>
      <trkpt lat="44.37664" lon="2.24924">
        <ele>393</ele>
        <time>2017-09-17T11:05:00Z</time>
      </trkpt>
      <trkpt lat="44.37663" lon="2.24919">
        <ele>392</ele>
        <time>2017-09-17T11:05:03Z</time>
      </trkpt>
      <trkpt lat="44.37654" lon="2.24892">
        <ele>396</ele>
        <time>2017-09-17T11:05:18Z</time>
      </trkpt>
      <trkpt lat="44.3765" lon="2.24882">
        <ele>397</ele>
        <time>2017-09-17T11:05:26Z</time>
      </trkpt>
      <trkpt lat="44.37643" lon="2.2487">
        <ele>398</ele>
        <time>2017-09-17T11:05:34Z</time>
      </trkpt>
      <trkpt lat="44.37638" lon="2.24863">
        <ele>398</ele>
        <time>2017-09-17T11:05:40Z</time>
      </trkpt>
      <trkpt lat="44.37635" lon="2.24858">
        <ele>398</ele>
        <time>2017-09-17T11:05:44Z</time>
      </trkpt>
      <trkpt lat="44.37631" lon="2.24853">
        <ele>398</ele>
        <time>2017-09-17T11:05:47Z</time>
      </trkpt>
      <trkpt lat="44.37629" lon="2.24846">
        <ele>398</ele>
        <time>2017-09-17T11:05:52Z</time>
      </trkpt>
      <trkpt lat="44.37626" lon="2.24842">
        <ele>398</ele>
        <time>2017-09-17T11:05:55Z</time>
      </trkpt>
      <trkpt lat="44.37623" lon="2.24837">
        <ele>398</ele>
        <time>2017-09-17T11:05:59Z</time>
      </trkpt>
      <trkpt lat="44.3762" lon="2.24831">
        <ele>402</ele>
        <time>2017-09-17T11:06:02Z</time>
      </trkpt>
      <trkpt lat="44.37617" lon="2.24824">
        <ele>401</ele>
        <time>2017-09-17T11:06:07Z</time>
      </trkpt>
      <trkpt lat="44.37614" lon="2.24821">
        <ele>401</ele>
        <time>2017-09-17T11:06:12Z</time>
      </trkpt>
      <trkpt lat="44.37608" lon="2.24806">
        <ele>401</ele>
        <time>2017-09-17T11:06:22Z</time>
      </trkpt>
      <trkpt lat="44.37603" lon="2.24799">
        <ele>401</ele>
        <time>2017-09-17T11:06:27Z</time>
      </trkpt>
      <trkpt lat="44.37599" lon="2.24792">
        <ele>401</ele>
        <time>2017-09-17T11:06:31Z</time>
      </trkpt>
      <trkpt lat="44.37595" lon="2.24788">
        <ele>401</ele>
        <time>2017-09-17T11:06:34Z</time>
      </trkpt>
      <trkpt lat="44.37586" lon="2.2478">
        <ele>401</ele>
        <time>2017-09-17T11:06:40Z</time>
      </trkpt>
      <trkpt lat="44.37582" lon="2.24776">
        <ele>399</ele>
        <time>2017-09-17T11:06:43Z</time>
      </trkpt>
      <trkpt lat="44.37579" lon="2.24774">
        <ele>399</ele>
        <time>2017-09-17T11:06:45Z</time>
      </trkpt>
      <trkpt lat="44.37576" lon="2.24769">
        <ele>399</ele>
        <time>2017-09-17T11:06:48Z</time>
      </trkpt>
      <trkpt lat="44.37574" lon="2.24763">
        <ele>399</ele>
        <time>2017-09-17T11:06:51Z</time>
      </trkpt>
      <trkpt lat="44.37568" lon="2.24752">
        <ele>399</ele>
        <time>2017-09-17T11:06:58Z</time>
      </trkpt>
      <trkpt lat="44.37565" lon="2.24749">
        <ele>398</ele>
        <time>2017-09-17T11:07:01Z</time>
      </trkpt>
      <trkpt lat="44.37562" lon="2.24742">
        <ele>398</ele>
        <time>2017-09-17T11:07:08Z</time>
      </trkpt>
      <trkpt lat="44.37561" lon="2.24737">
        <ele>398</ele>
        <time>2017-09-17T11:07:12Z</time>
      </trkpt>
      <trkpt lat="44.37558" lon="2.24733">
        <ele>398</ele>
        <time>2017-09-17T11:07:14Z</time>
      </trkpt>
      <trkpt lat="44.37555" lon="2.24729">
        <ele>398</ele>
        <time>2017-09-17T11:07:16Z</time>
      </trkpt>
      <trkpt lat="44.37547" lon="2.24721">
        <ele>398</ele>
        <time>2017-09-17T11:07:24Z</time>
      </trkpt>
      <trkpt lat="44.37545" lon="2.24716">
        <ele>398</ele>
        <time>2017-09-17T11:07:27Z</time>
      </trkpt>
      <trkpt lat="44.3754" lon="2.24706">
        <ele>398</ele>
        <time>2017-09-17T11:07:39Z</time>
      </trkpt>
      <trkpt lat="44.37535" lon="2.24694">
        <ele>398</ele>
        <time>2017-09-17T11:07:53Z</time>
      </trkpt>
      <trkpt lat="44.37532" lon="2.2469">
        <ele>398</ele>
        <time>2017-09-17T11:07:56Z</time>
      </trkpt>
      <trkpt lat="44.37529" lon="2.24684">
        <ele>397</ele>
        <time>2017-09-17T11:08:01Z</time>
      </trkpt>
      <trkpt lat="44.37527" lon="2.2468">
        <ele>397</ele>
        <time>2017-09-17T11:08:05Z</time>
      </trkpt>
      <trkpt lat="44.37524" lon="2.24669">
        <ele>396</ele>
        <time>2017-09-17T11:08:12Z</time>
      </trkpt>
      <trkpt lat="44.37516" lon="2.24655">
        <ele>396</ele>
        <time>2017-09-17T11:08:21Z</time>
      </trkpt>
      <trkpt lat="44.37513" lon="2.24651">
        <ele>396</ele>
        <time>2017-09-17T11:08:24Z</time>
      </trkpt>
      <trkpt lat="44.37509" lon="2.2464">
        <ele>397</ele>
        <time>2017-09-17T11:08:30Z</time>
      </trkpt>
      <trkpt lat="44.37508" lon="2.24635">
        <ele>397</ele>
        <time>2017-09-17T11:08:33Z</time>
      </trkpt>
      <trkpt lat="44.37508" lon="2.24628">
        <ele>397</ele>
        <time>2017-09-17T11:08:38Z</time>
      </trkpt>
      <trkpt lat="44.37499" lon="2.24617">
        <ele>402</ele>
        <time>2017-09-17T11:08:48Z</time>
      </trkpt>
      <trkpt lat="44.37498" lon="2.24609">
        <ele>401</ele>
        <time>2017-09-17T11:08:54Z</time>
      </trkpt>
      <trkpt lat="44.37495" lon="2.24601">
        <ele>400</ele>
        <time>2017-09-17T11:08:59Z</time>
      </trkpt>
      <trkpt lat="44.37496" lon="2.24594">
        <ele>399</ele>
        <time>2017-09-17T11:09:03Z</time>
      </trkpt>
      <trkpt lat="44.37499" lon="2.24586">
        <ele>396</ele>
        <time>2017-09-17T11:09:15Z</time>
      </trkpt>
      <trkpt lat="44.37498" lon="2.2458">
        <ele>396</ele>
        <time>2017-09-17T11:09:19Z</time>
      </trkpt>
      <trkpt lat="44.37494" lon="2.24572">
        <ele>398</ele>
        <time>2017-09-17T11:09:24Z</time>
      </trkpt>
      <trkpt lat="44.37495" lon="2.24565">
        <ele>399</ele>
        <time>2017-09-17T11:09:30Z</time>
      </trkpt>
      <trkpt lat="44.37493" lon="2.24556">
        <ele>400</ele>
        <time>2017-09-17T11:09:40Z</time>
      </trkpt>
      <trkpt lat="44.3749" lon="2.24548">
        <ele>401</ele>
        <time>2017-09-17T11:09:44Z</time>
      </trkpt>
      <trkpt lat="44.37483" lon="2.24533">
        <ele>401</ele>
        <time>2017-09-17T11:09:53Z</time>
      </trkpt>
      <trkpt lat="44.3748" lon="2.24525">
        <ele>401</ele>
        <time>2017-09-17T11:09:58Z</time>
      </trkpt>
      <trkpt lat="44.37483" lon="2.24518">
        <ele>400</ele>
        <time>2017-09-17T11:10:02Z</time>
      </trkpt>
      <trkpt lat="44.3748" lon="2.24511">
        <ele>399</ele>
        <time>2017-09-17T11:10:06Z</time>
      </trkpt>
      <trkpt lat="44.37486" lon="2.24505">
        <ele>398</ele>
        <time>2017-09-17T11:10:19Z</time>
      </trkpt>
      <trkpt lat="44.37488" lon="2.24493">
        <ele>397</ele>
        <time>2017-09-17T11:10:23Z</time>
      </trkpt>
      <trkpt lat="44.37486" lon="2.24482">
        <ele>398</ele>
        <time>2017-09-17T11:10:28Z</time>
      </trkpt>
      <trkpt lat="44.37483" lon="2.24474">
        <ele>399</ele>
        <time>2017-09-17T11:10:32Z</time>
      </trkpt>
      <trkpt lat="44.37486" lon="2.24466">
        <ele>399</ele>
        <time>2017-09-17T11:10:37Z</time>
      </trkpt>
      <trkpt lat="44.37491" lon="2.24457">
        <ele>399</ele>
        <time>2017-09-17T11:10:44Z</time>
      </trkpt>
      <trkpt lat="44.37491" lon="2.24445">
        <ele>398</ele>
        <time>2017-09-17T11:10:50Z</time>
      </trkpt>
      <trkpt lat="44.37494" lon="2.24436">
        <ele>396</ele>
        <time>2017-09-17T11:10:56Z</time>
      </trkpt>
      <trkpt lat="44.37496" lon="2.24426">
        <ele>394</ele>
        <time>2017-09-17T11:11:04Z</time>
      </trkpt>
      <trkpt lat="44.37502" lon="2.24418">
        <ele>390</ele>
        <time>2017-09-17T11:11:09Z</time>
      </trkpt>
      <trkpt lat="44.37506" lon="2.24411">
        <ele>390</ele>
        <time>2017-09-17T11:11:15Z</time>
      </trkpt>
      <trkpt lat="44.37507" lon="2.24402">
        <ele>391</ele>
        <time>2017-09-17T11:11:22Z</time>
      </trkpt>
      <trkpt lat="44.37514" lon="2.24396">
        <ele>391</ele>
        <time>2017-09-17T11:11:28Z</time>
      </trkpt>
      <trkpt lat="44.3752" lon="2.24391">
        <ele>392</ele>
        <time>2017-09-17T11:11:32Z</time>
      </trkpt>
      <trkpt lat="44.37526" lon="2.24385">
        <ele>392</ele>
        <time>2017-09-17T11:11:37Z</time>
      </trkpt>
      <trkpt lat="44.37532" lon="2.24378">
        <ele>392</ele>
        <time>2017-09-17T11:11:42Z</time>
      </trkpt>
      <trkpt lat="44.37537" lon="2.24371">
        <ele>392</ele>
        <time>2017-09-17T11:11:47Z</time>
      </trkpt>
      <trkpt lat="44.37572" lon="2.24335">
        <ele>392</ele>
        <time>2017-09-17T11:12:20Z</time>
      </trkpt>
      <trkpt lat="44.37577" lon="2.24329">
        <ele>392</ele>
        <time>2017-09-17T11:12:26Z</time>
      </trkpt>
      <trkpt lat="44.37582" lon="2.24325">
        <ele>392</ele>
        <time>2017-09-17T11:12:31Z</time>
      </trkpt>
      <trkpt lat="44.37593" lon="2.24313">
        <ele>395</ele>
        <time>2017-09-17T11:12:44Z</time>
      </trkpt>
      <trkpt lat="44.37599" lon="2.24304">
        <ele>396</ele>
        <time>2017-09-17T11:12:52Z</time>
      </trkpt>
      <trkpt lat="44.37606" lon="2.24298">
        <ele>396</ele>
        <time>2017-09-17T11:12:58Z</time>
      </trkpt>
      <trkpt lat="44.3761" lon="2.24291">
        <ele>396</ele>
        <time>2017-09-17T11:13:04Z</time>
      </trkpt>
      <trkpt lat="44.37615" lon="2.24282">
        <ele>396</ele>
        <time>2017-09-17T11:13:10Z</time>
      </trkpt>
      <trkpt lat="44.3762" lon="2.24275">
        <ele>397</ele>
        <time>2017-09-17T11:13:16Z</time>
      </trkpt>
      <trkpt lat="44.37627" lon="2.24267">
        <ele>397</ele>
        <time>2017-09-17T11:13:25Z</time>
      </trkpt>
      <trkpt lat="44.37633" lon="2.24262">
        <ele>397</ele>
        <time>2017-09-17T11:13:30Z</time>
      </trkpt>
      <trkpt lat="44.37638" lon="2.24255">
        <ele>398</ele>
        <time>2017-09-17T11:13:36Z</time>
      </trkpt>
      <trkpt lat="44.37642" lon="2.24248">
        <ele>396</ele>
        <time>2017-09-17T11:13:41Z</time>
      </trkpt>
      <trkpt lat="44.37648" lon="2.24241">
        <ele>396</ele>
        <time>2017-09-17T11:13:46Z</time>
      </trkpt>
      <trkpt lat="44.37651" lon="2.24233">
        <ele>396</ele>
        <time>2017-09-17T11:13:51Z</time>
      </trkpt>
      <trkpt lat="44.37659" lon="2.2422">
        <ele>395</ele>
        <time>2017-09-17T11:13:59Z</time>
      </trkpt>
      <trkpt lat="44.37659" lon="2.24212">
        <ele>395</ele>
        <time>2017-09-17T11:14:02Z</time>
      </trkpt>
      <trkpt lat="44.37661" lon="2.24204">
        <ele>394</ele>
        <time>2017-09-17T11:14:06Z</time>
      </trkpt>
      <trkpt lat="44.37665" lon="2.24198">
        <ele>394</ele>
        <time>2017-09-17T11:14:11Z</time>
      </trkpt>
      <trkpt lat="44.37669" lon="2.24188">
        <ele>404</ele>
        <time>2017-09-17T11:14:17Z</time>
      </trkpt>
      <trkpt lat="44.3767" lon="2.24181">
        <ele>401</ele>
        <time>2017-09-17T11:14:21Z</time>
      </trkpt>
      <trkpt lat="44.37672" lon="2.24152">
        <ele>400</ele>
        <time>2017-09-17T11:14:35Z</time>
      </trkpt>
      <trkpt lat="44.37669" lon="2.24145">
        <ele>402</ele>
        <time>2017-09-17T11:14:41Z</time>
      </trkpt>
      <trkpt lat="44.37667" lon="2.2414">
        <ele>403</ele>
        <time>2017-09-17T11:14:45Z</time>
      </trkpt>
      <trkpt lat="44.37664" lon="2.24132">
        <ele>395</ele>
        <time>2017-09-17T11:14:49Z</time>
      </trkpt>
      <trkpt lat="44.37662" lon="2.24127">
        <ele>395</ele>
        <time>2017-09-17T11:14:52Z</time>
      </trkpt>
      <trkpt lat="44.3766" lon="2.2411">
        <ele>395</ele>
        <time>2017-09-17T11:15:00Z</time>
      </trkpt>
      <trkpt lat="44.37661" lon="2.24103">
        <ele>395</ele>
        <time>2017-09-17T11:15:04Z</time>
      </trkpt>
      <trkpt lat="44.37663" lon="2.24088">
        <ele>393</ele>
        <time>2017-09-17T11:15:11Z</time>
      </trkpt>
      <trkpt lat="44.37664" lon="2.2408">
        <ele>394</ele>
        <time>2017-09-17T11:15:15Z</time>
      </trkpt>
      <trkpt lat="44.37661" lon="2.24072">
        <ele>396</ele>
        <time>2017-09-17T11:15:20Z</time>
      </trkpt>
      <trkpt lat="44.37655" lon="2.24057">
        <ele>398</ele>
        <time>2017-09-17T11:15:31Z</time>
      </trkpt>
      <trkpt lat="44.37654" lon="2.24049">
        <ele>399</ele>
        <time>2017-09-17T11:15:39Z</time>
      </trkpt>
      <trkpt lat="44.3765" lon="2.24045">
        <ele>399</ele>
        <time>2017-09-17T11:16:07Z</time>
      </trkpt>
      <trkpt lat="44.37646" lon="2.2404">
        <ele>399</ele>
        <time>2017-09-17T11:16:36Z</time>
      </trkpt>
      <trkpt lat="44.37641" lon="2.24025">
        <ele>400</ele>
        <time>2017-09-17T11:16:43Z</time>
      </trkpt>
      <trkpt lat="44.3764" lon="2.24018">
        <ele>400</ele>
        <time>2017-09-17T11:16:46Z</time>
      </trkpt>
      <trkpt lat="44.37638" lon="2.24013">
        <ele>400</ele>
        <time>2017-09-17T11:16:50Z</time>
      </trkpt>
      <trkpt lat="44.37636" lon="2.24007">
        <ele>400</ele>
        <time>2017-09-17T11:16:54Z</time>
      </trkpt>
      <trkpt lat="44.3763" lon="2.23991">
        <ele>400</ele>
        <time>2017-09-17T11:17:05Z</time>
      </trkpt>
      <trkpt lat="44.37627" lon="2.23977">
        <ele>400</ele>
        <time>2017-09-17T11:17:12Z</time>
      </trkpt>
      <trkpt lat="44.37625" lon="2.23969">
        <ele>399</ele>
        <time>2017-09-17T11:17:16Z</time>
      </trkpt>
      <trkpt lat="44.37626" lon="2.23962">
        <ele>399</ele>
        <time>2017-09-17T11:17:20Z</time>
      </trkpt>
      <trkpt lat="44.37624" lon="2.23956">
        <ele>399</ele>
        <time>2017-09-17T11:17:24Z</time>
      </trkpt>
      <trkpt lat="44.37625" lon="2.23941">
        <ele>398</ele>
        <time>2017-09-17T11:17:34Z</time>
      </trkpt>
      <trkpt lat="44.37624" lon="2.23934">
        <ele>398</ele>
        <time>2017-09-17T11:17:37Z</time>
      </trkpt>
      <trkpt lat="44.37622" lon="2.23927">
        <ele>398</ele>
        <time>2017-09-17T11:17:41Z</time>
      </trkpt>
      <trkpt lat="44.3762" lon="2.23919">
        <ele>398</ele>
        <time>2017-09-17T11:17:45Z</time>
      </trkpt>
      <trkpt lat="44.37621" lon="2.23911">
        <ele>397</ele>
        <time>2017-09-17T11:17:49Z</time>
      </trkpt>
      <trkpt lat="44.37618" lon="2.23906">
        <ele>397</ele>
        <time>2017-09-17T11:17:53Z</time>
      </trkpt>
      <trkpt lat="44.37613" lon="2.23893">
        <ele>397</ele>
        <time>2017-09-17T11:18:01Z</time>
      </trkpt>
      <trkpt lat="44.37611" lon="2.23871">
        <ele>397</ele>
        <time>2017-09-17T11:18:14Z</time>
      </trkpt>
      <trkpt lat="44.37611" lon="2.23863">
        <ele>397</ele>
        <time>2017-09-17T11:18:20Z</time>
      </trkpt>
      <trkpt lat="44.37611" lon="2.23855">
        <ele>397</ele>
        <time>2017-09-17T11:18:24Z</time>
      </trkpt>
      <trkpt lat="44.3761" lon="2.23848">
        <ele>397</ele>
        <time>2017-09-17T11:18:27Z</time>
      </trkpt>
      <trkpt lat="44.3761" lon="2.2384">
        <ele>397</ele>
        <time>2017-09-17T11:18:32Z</time>
      </trkpt>
      <trkpt lat="44.37608" lon="2.23834">
        <ele>397</ele>
        <time>2017-09-17T11:18:35Z</time>
      </trkpt>
      <trkpt lat="44.37608" lon="2.23808">
        <ele>396</ele>
        <time>2017-09-17T11:18:48Z</time>
      </trkpt>
      <trkpt lat="44.37605" lon="2.23799">
        <ele>396</ele>
        <time>2017-09-17T11:18:56Z</time>
      </trkpt>
      <trkpt lat="44.376" lon="2.23792">
        <ele>396</ele>
        <time>2017-09-17T11:19:00Z</time>
      </trkpt>
      <trkpt lat="44.37594" lon="2.23788">
        <ele>396</ele>
        <time>2017-09-17T11:19:04Z</time>
      </trkpt>
      <trkpt lat="44.37589" lon="2.23783">
        <ele>395</ele>
        <time>2017-09-17T11:19:09Z</time>
      </trkpt>
      <trkpt lat="44.37584" lon="2.23778">
        <ele>395</ele>
        <time>2017-09-17T11:19:15Z</time>
      </trkpt>
      <trkpt lat="44.37578" lon="2.23772">
        <ele>406</ele>
        <time>2017-09-17T11:19:22Z</time>
      </trkpt>
      <trkpt lat="44.37575" lon="2.23764">
        <ele>404</ele>
        <time>2017-09-17T11:19:28Z</time>
      </trkpt>
      <trkpt lat="44.37569" lon="2.23757">
        <ele>404</ele>
        <time>2017-09-17T11:19:34Z</time>
      </trkpt>
      <trkpt lat="44.37564" lon="2.23749">
        <ele>403</ele>
        <time>2017-09-17T11:19:39Z</time>
      </trkpt>
      <trkpt lat="44.37565" lon="2.2374">
        <ele>403</ele>
        <time>2017-09-17T11:19:43Z</time>
      </trkpt>
      <trkpt lat="44.37565" lon="2.23732">
        <ele>405</ele>
        <time>2017-09-17T11:19:48Z</time>
      </trkpt>
      <trkpt lat="44.37566" lon="2.23723">
        <ele>406</ele>
        <time>2017-09-17T11:19:53Z</time>
      </trkpt>
      <trkpt lat="44.37564" lon="2.23706">
        <ele>406</ele>
        <time>2017-09-17T11:20:03Z</time>
      </trkpt>
      <trkpt lat="44.37562" lon="2.23682">
        <ele>404</ele>
        <time>2017-09-17T11:20:16Z</time>
      </trkpt>
      <trkpt lat="44.37559" lon="2.23667">
        <ele>404</ele>
        <time>2017-09-17T11:20:26Z</time>
      </trkpt>
      <trkpt lat="44.37558" lon="2.23651">
        <ele>400</ele>
        <time>2017-09-17T11:20:35Z</time>
      </trkpt>
      <trkpt lat="44.37554" lon="2.23637">
        <ele>402</ele>
        <time>2017-09-17T11:20:44Z</time>
      </trkpt>
      <trkpt lat="44.37551" lon="2.23575">
        <ele>393</ele>
        <time>2017-09-17T11:21:18Z</time>
      </trkpt>
      <trkpt lat="44.3755" lon="2.23566">
        <ele>393</ele>
        <time>2017-09-17T11:21:23Z</time>
      </trkpt>
      <trkpt lat="44.37551" lon="2.23559">
        <ele>393</ele>
        <time>2017-09-17T11:21:27Z</time>
      </trkpt>
      <trkpt lat="44.37553" lon="2.23551">
        <ele>393</ele>
        <time>2017-09-17T11:21:31Z</time>
      </trkpt>
      <trkpt lat="44.37553" lon="2.23538">
        <ele>392</ele>
        <time>2017-09-17T11:21:39Z</time>
      </trkpt>
      <trkpt lat="44.37553" lon="2.23524">
        <ele>391</ele>
        <time>2017-09-17T11:21:47Z</time>
      </trkpt>
      <trkpt lat="44.37554" lon="2.23518">
        <ele>390</ele>
        <time>2017-09-17T11:21:52Z</time>
      </trkpt>
      <trkpt lat="44.37558" lon="2.2352">
        <ele>390</ele>
        <time>2017-09-17T11:21:59Z</time>
      </trkpt>
      <trkpt lat="44.37562" lon="2.23524">
        <ele>390</ele>
        <time>2017-09-17T11:22:07Z</time>
      </trkpt>
      <trkpt lat="44.37576" lon="2.23519">
        <ele>387</ele>
        <time>2017-09-17T11:22:21Z</time>
      </trkpt>
      <trkpt lat="44.3758" lon="2.23515">
        <ele>385</ele>
        <time>2017-09-17T11:22:28Z</time>
      </trkpt>
      <trkpt lat="44.37578" lon="2.23508">
        <ele>384</ele>
        <time>2017-09-17T11:23:31Z</time>
      </trkpt>
      <trkpt lat="44.37583" lon="2.23507">
        <ele>383</ele>
        <time>2017-09-17T11:23:47Z</time>
      </trkpt>
      <trkpt lat="44.37585" lon="2.23501">
        <ele>380</ele>
        <time>2017-09-17T11:25:44Z</time>
      </trkpt>
      <trkpt lat="44.37589" lon="2.23495">
        <ele>381</ele>
        <time>2017-09-17T11:26:23Z</time>
      </trkpt>
      <trkpt lat="44.37593" lon="2.23491">
        <ele>382</ele>
        <time>2017-09-17T11:26:53Z</time>
      </trkpt>
      <trkpt lat="44.37597" lon="2.23488">
        <ele>383</ele>
        <time>2017-09-17T11:26:59Z</time>
      </trkpt>
      <trkpt lat="44.376" lon="2.23483">
        <ele>383</ele>
        <time>2017-09-17T11:27:18Z</time>
      </trkpt>
      <trkpt lat="44.37603" lon="2.23476">
        <ele>384</ele>
        <time>2017-09-17T11:27:34Z</time>
      </trkpt>
      <trkpt lat="44.37602" lon="2.2347">
        <ele>384</ele>
        <time>2017-09-17T11:28:17Z</time>
      </trkpt>
      <trkpt lat="44.37595" lon="2.23459">
        <ele>384</ele>
        <time>2017-09-17T11:28:55Z</time>
      </trkpt>
      <trkpt lat="44.37591" lon="2.23454">
        <ele>384</ele>
        <time>2017-09-17T11:29:11Z</time>
      </trkpt>
      <trkpt lat="44.37588" lon="2.23452">
        <ele>384</ele>
        <time>2017-09-17T11:29:22Z</time>
      </trkpt>
      <trkpt lat="44.37585" lon="2.23449">
        <ele>384</ele>
        <time>2017-09-17T11:29:29Z</time>
      </trkpt>
      <trkpt lat="44.3758" lon="2.23443">
        <ele>385</ele>
        <time>2017-09-17T11:30:25Z</time>
      </trkpt>
      <trkpt lat="44.37582" lon="2.23444">
        <ele>385</ele>
        <time>2017-09-17T12:21:03Z</time>
      </trkpt>
      <trkpt lat="44.37583" lon="2.23445">
        <ele>385</ele>
        <time>2017-09-17T12:22:48Z</time>
      </trkpt>
      <trkpt lat="44.37583" lon="2.23441">
        <ele>385</ele>
        <time>2017-09-17T12:23:23Z</time>
      </trkpt>
      <trkpt lat="44.37585" lon="2.23444">
        <ele>383</ele>
        <time>2017-09-17T11:37:05Z</time>
      </trkpt>
      <trkpt lat="44.3758" lon="2.23446">
        <ele>385</ele>
        <time>2017-09-17T11:38:54Z</time>
      </trkpt>
      <trkpt lat="44.37581" lon="2.23444">
        <ele>385</ele>
        <time>2017-09-17T11:39:45Z</time>
      </trkpt>
      <trkpt lat="44.37588" lon="2.23437">
        <ele>383</ele>
        <time>2017-09-17T11:40:39Z</time>
      </trkpt>
      <trkpt lat="44.37593" lon="2.23439">
        <ele>384</ele>
        <time>2017-09-17T11:41:26Z</time>
      </trkpt>
      <trkpt lat="44.37591" lon="2.23441">
        <ele>384</ele>
        <time>2017-09-17T11:46:54Z</time>
      </trkpt>
      <trkpt lat="44.37587" lon="2.23439">
        <ele>383</ele>
        <time>2017-09-17T12:01:09Z</time>
      </trkpt>
      <trkpt lat="44.37584" lon="2.23435">
        <ele>383</ele>
        <time>2017-09-17T11:48:50Z</time>
      </trkpt>
      <trkpt lat="44.37583" lon="2.23437">
        <ele>385</ele>
        <time>2017-09-17T11:50:06Z</time>
      </trkpt>
      <trkpt lat="44.37586" lon="2.23439">
        <ele>383</ele>
        <time>2017-09-17T11:52:11Z</time>
      </trkpt>
      <trkpt lat="44.37588" lon="2.23443">
        <ele>384</ele>
        <time>2017-09-17T11:59:05Z</time>
      </trkpt>
      <trkpt lat="44.37588" lon="2.23447">
        <ele>384</ele>
        <time>2017-09-17T11:59:09Z</time>
      </trkpt>
      <trkpt lat="44.37586" lon="2.23448">
        <ele>384</ele>
        <time>2017-09-17T11:59:14Z</time>
      </trkpt>
      <trkpt lat="44.37584" lon="2.23449">
        <ele>384</ele>
        <time>2017-09-17T11:59:18Z</time>
      </trkpt>
      <trkpt lat="44.37588" lon="2.23438">
        <ele>383</ele>
        <time>2017-09-17T12:01:02Z</time>
      </trkpt>
      <trkpt lat="44.37588" lon="2.23438">
        <ele>383</ele>
        <time>2017-09-17T12:01:02Z</time>
      </trkpt>
      <trkpt lat="44.37587" lon="2.23438">
        <ele>383</ele>
        <time>2017-09-17T12:01:09Z</time>
      </trkpt>
      <trkpt lat="44.37585" lon="2.23439">
        <ele>383</ele>
        <time>2017-09-17T12:01:47Z</time>
      </trkpt>
      <trkpt lat="44.37584" lon="2.23443">
        <ele>383</ele>
        <time>2017-09-17T12:01:53Z</time>
      </trkpt>
      <trkpt lat="44.37584" lon="2.23447">
        <ele>384</ele>
        <time>2017-09-17T12:06:29Z</time>
      </trkpt>
      <trkpt lat="44.37582" lon="2.23447">
        <ele>385</ele>
        <time>2017-09-17T12:08:16Z</time>
      </trkpt>
      <trkpt lat="44.37583" lon="2.23444">
        <ele>385</ele>
        <time>2017-09-17T12:24:11Z</time>
      </trkpt>
      <trkpt lat="44.37584" lon="2.23445">
        <ele>383</ele>
        <time>2017-09-17T12:24:34Z</time>
      </trkpt>
      <trkpt lat="44.37582" lon="2.23445">
        <ele>385</ele>
        <time>2017-09-17T12:17:54Z</time>
      </trkpt>
      <trkpt lat="44.37582" lon="2.23444">
        <ele>385</ele>
        <time>2017-09-17T12:21:03Z</time>
      </trkpt>
      <trkpt lat="44.37583" lon="2.23445">
        <ele>385</ele>
        <time>2017-09-17T12:22:48Z</time>
      </trkpt>
      <trkpt lat="44.37583" lon="2.23441">
        <ele>385</ele>
        <time>2017-09-17T12:23:23Z</time>
      </trkpt>
      <trkpt lat="44.37586" lon="2.23444">
        <ele>384</ele>
        <time>2017-09-17T12:23:35Z</time>
      </trkpt>
      <trkpt lat="44.37583" lon="2.23444">
        <ele>383</ele>
        <time>2017-09-17T12:24:11Z</time>
      </trkpt>
      <trkpt lat="44.37584" lon="2.23445">
        <ele>383</ele>
        <time>2017-09-17T12:24:34Z</time>
      </trkpt>
      <trkpt lat="44.37584" lon="2.23442">
        <ele>383</ele>
        <time>2017-09-17T12:25:15Z</time>
      </trkpt>
      <trkpt lat="44.37583" lon="2.23443">
        <ele>385</ele>
        <time>2017-09-17T12:25:51Z</time>
      </trkpt>
      <trkpt lat="44.37581" lon="2.23446">
        <ele>385</ele>
        <time>2017-09-17T12:26:03Z</time>
      </trkpt>
      <trkpt lat="44.37577" lon="2.23445">
        <ele>385</ele>
        <time>2017-09-17T12:26:05Z</time>
      </trkpt>
      <trkpt lat="44.37575" lon="2.23446">
        <ele>386</ele>
        <time>2017-09-17T12:26:07Z</time>
      </trkpt>
      <trkpt lat="44.37572" lon="2.23449">
        <ele>386</ele>
        <time>2017-09-17T12:26:09Z</time>
      </trkpt>
      <trkpt lat="44.37569" lon="2.2345">
        <ele>386</ele>
        <time>2017-09-17T12:26:11Z</time>
      </trkpt>
      <trkpt lat="44.37566" lon="2.23451">
        <ele>386</ele>
        <time>2017-09-17T12:26:13Z</time>
      </trkpt>
      <trkpt lat="44.37564" lon="2.2345">
        <ele>387</ele>
        <time>2017-09-17T12:26:15Z</time>
      </trkpt>
      <trkpt lat="44.37557" lon="2.23449">
        <ele>387</ele>
        <time>2017-09-17T12:26:19Z</time>
      </trkpt>
      <trkpt lat="44.37551" lon="2.23431">
        <ele>388</ele>
        <time>2017-09-17T12:26:32Z</time>
      </trkpt>
      <trkpt lat="44.3755" lon="2.23428">
        <ele>388</ele>
        <time>2017-09-17T12:26:35Z</time>
      </trkpt>
      <trkpt lat="44.37549" lon="2.23426">
        <ele>388</ele>
        <time>2017-09-17T12:26:38Z</time>
      </trkpt>
      <trkpt lat="44.37548" lon="2.23419">
        <ele>388</ele>
        <time>2017-09-17T12:26:43Z</time>
      </trkpt>
      <trkpt lat="44.3755" lon="2.23405">
        <ele>389</ele>
        <time>2017-09-17T12:26:52Z</time>
      </trkpt>
      <trkpt lat="44.37549" lon="2.234">
        <ele>389</ele>
        <time>2017-09-17T12:26:55Z</time>
      </trkpt>
      <trkpt lat="44.37549" lon="2.23396">
        <ele>390</ele>
        <time>2017-09-17T12:26:58Z</time>
      </trkpt>
      <trkpt lat="44.37545" lon="2.23348">
        <ele>391</ele>
        <time>2017-09-17T12:27:28Z</time>
      </trkpt>
      <trkpt lat="44.37544" lon="2.23346">
        <ele>391</ele>
        <time>2017-09-17T12:27:29Z</time>
      </trkpt>
      <trkpt lat="44.37544" lon="2.2334">
        <ele>391</ele>
        <time>2017-09-17T12:27:33Z</time>
      </trkpt>
      <trkpt lat="44.37545" lon="2.23337">
        <ele>391</ele>
        <time>2017-09-17T12:27:35Z</time>
      </trkpt>
      <trkpt lat="44.37546" lon="2.23335">
        <ele>391</ele>
        <time>2017-09-17T12:27:46Z</time>
      </trkpt>
      <trkpt lat="44.37548" lon="2.23334">
        <ele>391</ele>
        <time>2017-09-17T12:28:04Z</time>
      </trkpt>
      <trkpt lat="44.37549" lon="2.23332">
        <ele>392</ele>
        <time>2017-09-17T12:28:09Z</time>
      </trkpt>
      <trkpt lat="44.37551" lon="2.23329">
        <ele>392</ele>
        <time>2017-09-17T12:28:12Z</time>
      </trkpt>
      <trkpt lat="44.37555" lon="2.23325">
        <ele>391</ele>
        <time>2017-09-17T12:28:16Z</time>
      </trkpt>
      <trkpt lat="44.37558" lon="2.23324">
        <ele>391</ele>
        <time>2017-09-17T12:28:18Z</time>
      </trkpt>
      <trkpt lat="44.3756" lon="2.23324">
        <ele>390</ele>
        <time>2017-09-17T12:28:20Z</time>
      </trkpt>
      <trkpt lat="44.37563" lon="2.23324">
        <ele>390</ele>
        <time>2017-09-17T12:28:26Z</time>
      </trkpt>
      <trkpt lat="44.37573" lon="2.23313">
        <ele>389</ele>
        <time>2017-09-17T12:28:37Z</time>
      </trkpt>
      <trkpt lat="44.37574" lon="2.23309">
        <ele>389</ele>
        <time>2017-09-17T12:28:40Z</time>
      </trkpt>
      <trkpt lat="44.37599" lon="2.23277">
        <ele>386</ele>
        <time>2017-09-17T12:29:07Z</time>
      </trkpt>
      <trkpt lat="44.37627" lon="2.23239">
        <ele>387</ele>
        <time>2017-09-17T12:29:38Z</time>
      </trkpt>
      <trkpt lat="44.37629" lon="2.23237">
        <ele>387</ele>
        <time>2017-09-17T12:29:40Z</time>
      </trkpt>
      <trkpt lat="44.3765" lon="2.23209">
        <ele>387</ele>
        <time>2017-09-17T12:30:05Z</time>
      </trkpt>
      <trkpt lat="44.37652" lon="2.23203">
        <ele>387</ele>
        <time>2017-09-17T12:30:10Z</time>
      </trkpt>
      <trkpt lat="44.37652" lon="2.23197">
        <ele>387</ele>
        <time>2017-09-17T12:30:16Z</time>
      </trkpt>
      <trkpt lat="44.37651" lon="2.23194">
        <ele>387</ele>
        <time>2017-09-17T12:30:18Z</time>
      </trkpt>
      <trkpt lat="44.37647" lon="2.23189">
        <ele>387</ele>
        <time>2017-09-17T12:30:27Z</time>
      </trkpt>
      <trkpt lat="44.37646" lon="2.23186">
        <ele>387</ele>
        <time>2017-09-17T12:30:31Z</time>
      </trkpt>
      <trkpt lat="44.37645" lon="2.23177">
        <ele>387</ele>
        <time>2017-09-17T12:30:36Z</time>
      </trkpt>
      <trkpt lat="44.3764" lon="2.23162">
        <ele>385</ele>
        <time>2017-09-17T12:30:45Z</time>
      </trkpt>
      <trkpt lat="44.37638" lon="2.23156">
        <ele>385</ele>
        <time>2017-09-17T12:30:49Z</time>
      </trkpt>
      <trkpt lat="44.37635" lon="2.23145">
        <ele>384</ele>
        <time>2017-09-17T12:30:55Z</time>
      </trkpt>
      <trkpt lat="44.37635" lon="2.23143">
        <ele>384</ele>
        <time>2017-09-17T12:30:57Z</time>
      </trkpt>
      <trkpt lat="44.37622" lon="2.231">
        <ele>383</ele>
        <time>2017-09-17T12:31:25Z</time>
      </trkpt>
      <trkpt lat="44.37602" lon="2.23056">
        <ele>380</ele>
        <time>2017-09-17T12:32:12Z</time>
      </trkpt>
      <trkpt lat="44.37595" lon="2.2304">
        <ele>380</ele>
        <time>2017-09-17T12:32:23Z</time>
      </trkpt>
      <trkpt lat="44.37589" lon="2.23027">
        <ele>379</ele>
        <time>2017-09-17T12:33:12Z</time>
      </trkpt>
      <trkpt lat="44.37586" lon="2.23024">
        <ele>379</ele>
        <time>2017-09-17T12:33:20Z</time>
      </trkpt>
      <trkpt lat="44.37581" lon="2.2302">
        <ele>380</ele>
        <time>2017-09-17T12:33:26Z</time>
      </trkpt>
      <trkpt lat="44.37579" lon="2.23018">
        <ele>380</ele>
        <time>2017-09-17T12:33:28Z</time>
      </trkpt>
      <trkpt lat="44.37578" lon="2.23014">
        <ele>379</ele>
        <time>2017-09-17T12:33:30Z</time>
      </trkpt>
      <trkpt lat="44.37575" lon="2.23004">
        <ele>379</ele>
        <time>2017-09-17T12:33:36Z</time>
      </trkpt>
      <trkpt lat="44.37563" lon="2.22969">
        <ele>381</ele>
        <time>2017-09-17T12:33:58Z</time>
      </trkpt>
      <trkpt lat="44.37557" lon="2.22944">
        <ele>381</ele>
        <time>2017-09-17T12:34:12Z</time>
      </trkpt>
      <trkpt lat="44.37556" lon="2.22941">
        <ele>381</ele>
        <time>2017-09-17T12:34:14Z</time>
      </trkpt>
      <trkpt lat="44.37555" lon="2.22939">
        <ele>381</ele>
        <time>2017-09-17T12:34:18Z</time>
      </trkpt>
      <trkpt lat="44.37551" lon="2.22919">
        <ele>381</ele>
        <time>2017-09-17T12:34:30Z</time>
      </trkpt>
      <trkpt lat="44.37551" lon="2.22916">
        <ele>380</ele>
        <time>2017-09-17T12:34:33Z</time>
      </trkpt>
      <trkpt lat="44.37549" lon="2.22909">
        <ele>381</ele>
        <time>2017-09-17T12:34:39Z</time>
      </trkpt>
      <trkpt lat="44.37547" lon="2.229">
        <ele>381</ele>
        <time>2017-09-17T12:34:44Z</time>
      </trkpt>
      <trkpt lat="44.37545" lon="2.22889">
        <ele>381</ele>
        <time>2017-09-17T12:34:51Z</time>
      </trkpt>
      <trkpt lat="44.37539" lon="2.22833">
        <ele>382</ele>
        <time>2017-09-17T12:35:21Z</time>
      </trkpt>
      <trkpt lat="44.37538" lon="2.22825">
        <ele>382</ele>
        <time>2017-09-17T12:35:25Z</time>
      </trkpt>
      <trkpt lat="44.37543" lon="2.22807">
        <ele>382</ele>
        <time>2017-09-17T12:35:35Z</time>
      </trkpt>
      <trkpt lat="44.37544" lon="2.22804">
        <ele>381</ele>
        <time>2017-09-17T12:35:37Z</time>
      </trkpt>
      <trkpt lat="44.37545" lon="2.22801">
        <ele>381</ele>
        <time>2017-09-17T12:35:39Z</time>
      </trkpt>
      <trkpt lat="44.37548" lon="2.22792">
        <ele>381</ele>
        <time>2017-09-17T12:35:45Z</time>
      </trkpt>
      <trkpt lat="44.37549" lon="2.22785">
        <ele>381</ele>
        <time>2017-09-17T12:35:49Z</time>
      </trkpt>
      <trkpt lat="44.37551" lon="2.22783">
        <ele>381</ele>
        <time>2017-09-17T12:35:51Z</time>
      </trkpt>
      <trkpt lat="44.37554" lon="2.22769">
        <ele>381</ele>
        <time>2017-09-17T12:35:59Z</time>
      </trkpt>
      <trkpt lat="44.37558" lon="2.22756">
        <ele>381</ele>
        <time>2017-09-17T12:36:07Z</time>
      </trkpt>
      <trkpt lat="44.37569" lon="2.2274">
        <ele>380</ele>
        <time>2017-09-17T12:36:21Z</time>
      </trkpt>
      <trkpt lat="44.37572" lon="2.22735">
        <ele>380</ele>
        <time>2017-09-17T12:36:26Z</time>
      </trkpt>
      <trkpt lat="44.37573" lon="2.22732">
        <ele>380</ele>
        <time>2017-09-17T12:36:28Z</time>
      </trkpt>
      <trkpt lat="44.37574" lon="2.22722">
        <ele>379</ele>
        <time>2017-09-17T12:36:34Z</time>
      </trkpt>
      <trkpt lat="44.37576" lon="2.22717">
        <ele>379</ele>
        <time>2017-09-17T12:36:38Z</time>
      </trkpt>
      <trkpt lat="44.37576" lon="2.22713">
        <ele>379</ele>
        <time>2017-09-17T12:36:41Z</time>
      </trkpt>
      <trkpt lat="44.37575" lon="2.22704">
        <ele>379</ele>
        <time>2017-09-17T12:36:47Z</time>
      </trkpt>
      <trkpt lat="44.37573" lon="2.22697">
        <ele>379</ele>
        <time>2017-09-17T12:36:51Z</time>
      </trkpt>
      <trkpt lat="44.37571" lon="2.22687">
        <ele>379</ele>
        <time>2017-09-17T12:36:57Z</time>
      </trkpt>
      <trkpt lat="44.37571" lon="2.2268">
        <ele>378</ele>
        <time>2017-09-17T12:37:01Z</time>
      </trkpt>
      <trkpt lat="44.37572" lon="2.22676">
        <ele>378</ele>
        <time>2017-09-17T12:37:04Z</time>
      </trkpt>
      <trkpt lat="44.37573" lon="2.22673">
        <ele>378</ele>
        <time>2017-09-17T12:37:06Z</time>
      </trkpt>
      <trkpt lat="44.37574" lon="2.2267">
        <ele>378</ele>
        <time>2017-09-17T12:37:09Z</time>
      </trkpt>
      <trkpt lat="44.37575" lon="2.22661">
        <ele>377</ele>
        <time>2017-09-17T12:37:16Z</time>
      </trkpt>
      <trkpt lat="44.37576" lon="2.22652">
        <ele>378</ele>
        <time>2017-09-17T12:37:22Z</time>
      </trkpt>
      <trkpt lat="44.37577" lon="2.22629">
        <ele>378</ele>
        <time>2017-09-17T12:37:36Z</time>
      </trkpt>
      <trkpt lat="44.37578" lon="2.22625">
        <ele>378</ele>
        <time>2017-09-17T12:37:38Z</time>
      </trkpt>
      <trkpt lat="44.37578" lon="2.22616">
        <ele>379</ele>
        <time>2017-09-17T12:37:42Z</time>
      </trkpt>
      <trkpt lat="44.3758" lon="2.2261">
        <ele>379</ele>
        <time>2017-09-17T12:37:46Z</time>
      </trkpt>
      <trkpt lat="44.37582" lon="2.22607">
        <ele>379</ele>
        <time>2017-09-17T12:37:48Z</time>
      </trkpt>
      <trkpt lat="44.37589" lon="2.22586">
        <ele>382</ele>
        <time>2017-09-17T12:38:01Z</time>
      </trkpt>
      <trkpt lat="44.37593" lon="2.22574">
        <ele>386</ele>
        <time>2017-09-17T12:38:10Z</time>
      </trkpt>
      <trkpt lat="44.37601" lon="2.22554">
        <ele>390</ele>
        <time>2017-09-17T12:38:23Z</time>
      </trkpt>
      <trkpt lat="44.37605" lon="2.22547">
        <ele>391</ele>
        <time>2017-09-17T12:38:28Z</time>
      </trkpt>
      <trkpt lat="44.37606" lon="2.22543">
        <ele>391</ele>
        <time>2017-09-17T12:38:31Z</time>
      </trkpt>
      <trkpt lat="44.37606" lon="2.22539">
        <ele>391</ele>
        <time>2017-09-17T12:38:34Z</time>
      </trkpt>
      <trkpt lat="44.37606" lon="2.22535">
        <ele>392</ele>
        <time>2017-09-17T12:38:37Z</time>
      </trkpt>
      <trkpt lat="44.37607" lon="2.22531">
        <ele>392</ele>
        <time>2017-09-17T12:38:40Z</time>
      </trkpt>
      <trkpt lat="44.37613" lon="2.2252">
        <ele>393</ele>
        <time>2017-09-17T12:38:54Z</time>
      </trkpt>
      <trkpt lat="44.37614" lon="2.22517">
        <ele>393</ele>
        <time>2017-09-17T12:39:45Z</time>
      </trkpt>
      <trkpt lat="44.37613" lon="2.22512">
        <ele>393</ele>
        <time>2017-09-17T12:39:48Z</time>
      </trkpt>
      <trkpt lat="44.37613" lon="2.22506">
        <ele>393</ele>
        <time>2017-09-17T12:39:54Z</time>
      </trkpt>
      <trkpt lat="44.37607" lon="2.22498">
        <ele>400</ele>
        <time>2017-09-17T12:40:03Z</time>
      </trkpt>
      <trkpt lat="44.37604" lon="2.22492">
        <ele>400</ele>
        <time>2017-09-17T12:40:08Z</time>
      </trkpt>
      <trkpt lat="44.37601" lon="2.22487">
        <ele>400</ele>
        <time>2017-09-17T12:40:11Z</time>
      </trkpt>
      <trkpt lat="44.37599" lon="2.22481">
        <ele>401</ele>
        <time>2017-09-17T12:40:15Z</time>
      </trkpt>
      <trkpt lat="44.37597" lon="2.22475">
        <ele>402</ele>
        <time>2017-09-17T12:40:18Z</time>
      </trkpt>
      <trkpt lat="44.37593" lon="2.22468">
        <ele>403</ele>
        <time>2017-09-17T12:40:27Z</time>
      </trkpt>
      <trkpt lat="44.37591" lon="2.2246">
        <ele>405</ele>
        <time>2017-09-17T12:40:32Z</time>
      </trkpt>
      <trkpt lat="44.37589" lon="2.22453">
        <ele>406</ele>
        <time>2017-09-17T12:40:38Z</time>
      </trkpt>
      <trkpt lat="44.37579" lon="2.22439">
        <ele>402</ele>
        <time>2017-09-17T12:40:48Z</time>
      </trkpt>
      <trkpt lat="44.37576" lon="2.22435">
        <ele>404</ele>
        <time>2017-09-17T12:40:52Z</time>
      </trkpt>
      <trkpt lat="44.37572" lon="2.22431">
        <ele>404</ele>
        <time>2017-09-17T12:40:57Z</time>
      </trkpt>
      <trkpt lat="44.37569" lon="2.22426">
        <ele>404</ele>
        <time>2017-09-17T12:41:01Z</time>
      </trkpt>
      <trkpt lat="44.37552" lon="2.22405">
        <ele>413</ele>
        <time>2017-09-17T12:41:22Z</time>
      </trkpt>
      <trkpt lat="44.37547" lon="2.224">
        <ele>413</ele>
        <time>2017-09-17T12:41:28Z</time>
      </trkpt>
      <trkpt lat="44.37536" lon="2.22389">
        <ele>413</ele>
        <time>2017-09-17T12:41:37Z</time>
      </trkpt>
      <trkpt lat="44.37531" lon="2.22388">
        <ele>413</ele>
        <time>2017-09-17T12:41:43Z</time>
      </trkpt>
      <trkpt lat="44.37526" lon="2.22388">
        <ele>412</ele>
        <time>2017-09-17T12:41:47Z</time>
      </trkpt>
      <trkpt lat="44.37513" lon="2.22363">
        <ele>415</ele>
        <time>2017-09-17T12:42:11Z</time>
      </trkpt>
      <trkpt lat="44.37507" lon="2.22355">
        <ele>416</ele>
        <time>2017-09-17T12:42:19Z</time>
      </trkpt>
      <trkpt lat="44.37503" lon="2.22351">
        <ele>417</ele>
        <time>2017-09-17T12:42:39Z</time>
      </trkpt>
      <trkpt lat="44.37499" lon="2.22347">
        <ele>413</ele>
        <time>2017-09-17T12:43:07Z</time>
      </trkpt>
      <trkpt lat="44.37493" lon="2.2234">
        <ele>415</ele>
        <time>2017-09-17T12:43:23Z</time>
      </trkpt>
      <trkpt lat="44.37488" lon="2.22337">
        <ele>414</ele>
        <time>2017-09-17T12:43:26Z</time>
      </trkpt>
      <trkpt lat="44.37482" lon="2.22333">
        <ele>420</ele>
        <time>2017-09-17T12:43:30Z</time>
      </trkpt>
      <trkpt lat="44.37477" lon="2.22326">
        <ele>420</ele>
        <time>2017-09-17T12:43:39Z</time>
      </trkpt>
      <trkpt lat="44.37472" lon="2.22321">
        <ele>420</ele>
        <time>2017-09-17T12:43:42Z</time>
      </trkpt>
      <trkpt lat="44.37467" lon="2.22313">
        <ele>420</ele>
        <time>2017-09-17T12:43:48Z</time>
      </trkpt>
      <trkpt lat="44.37463" lon="2.22309">
        <ele>420</ele>
        <time>2017-09-17T12:43:52Z</time>
      </trkpt>
      <trkpt lat="44.37458" lon="2.22308">
        <ele>419</ele>
        <time>2017-09-17T12:44:17Z</time>
      </trkpt>
      <trkpt lat="44.37445" lon="2.22299">
        <ele>419</ele>
        <time>2017-09-17T12:44:36Z</time>
      </trkpt>
      <trkpt lat="44.37429" lon="2.2229">
        <ele>420</ele>
        <time>2017-09-17T12:44:50Z</time>
      </trkpt>
      <trkpt lat="44.37422" lon="2.22286">
        <ele>420</ele>
        <time>2017-09-17T12:44:56Z</time>
      </trkpt>
      <trkpt lat="44.37413" lon="2.22286">
        <ele>417</ele>
        <time>2017-09-17T12:45:03Z</time>
      </trkpt>
      <trkpt lat="44.37404" lon="2.22283">
        <ele>417</ele>
        <time>2017-09-17T12:45:14Z</time>
      </trkpt>
      <trkpt lat="44.37401" lon="2.22279">
        <ele>418</ele>
        <time>2017-09-17T12:45:18Z</time>
      </trkpt>
      <trkpt lat="44.37389" lon="2.22268">
        <ele>419</ele>
        <time>2017-09-17T12:45:31Z</time>
      </trkpt>
      <trkpt lat="44.37386" lon="2.22265">
        <ele>419</ele>
        <time>2017-09-17T12:45:33Z</time>
      </trkpt>
      <trkpt lat="44.37385" lon="2.22261">
        <ele>419</ele>
        <time>2017-09-17T12:45:39Z</time>
      </trkpt>
      <trkpt lat="44.37386" lon="2.22258">
        <ele>420</ele>
        <time>2017-09-17T12:45:42Z</time>
      </trkpt>
      <trkpt lat="44.37384" lon="2.22255">
        <ele>420</ele>
        <time>2017-09-17T12:45:44Z</time>
      </trkpt>
      <trkpt lat="44.37382" lon="2.22252">
        <ele>420</ele>
        <time>2017-09-17T12:45:51Z</time>
      </trkpt>
      <trkpt lat="44.37381" lon="2.22251">
        <ele>420</ele>
        <time>2017-09-17T12:46:07Z</time>
      </trkpt>
      <trkpt lat="44.3738" lon="2.2225">
        <ele>427</ele>
        <time>2017-09-17T12:47:35Z</time>
      </trkpt>
      <trkpt lat="44.37377" lon="2.2225">
        <ele>427</ele>
        <time>2017-09-17T12:47:37Z</time>
      </trkpt>
      <trkpt lat="44.37375" lon="2.22251">
        <ele>420</ele>
        <time>2017-09-17T12:47:39Z</time>
      </trkpt>
      <trkpt lat="44.37374" lon="2.22251">
        <ele>420</ele>
        <time>2017-09-17T12:47:41Z</time>
      </trkpt>
      <trkpt lat="44.37365" lon="2.22249">
        <ele>428</ele>
        <time>2017-09-17T12:47:51Z</time>
      </trkpt>
      <trkpt lat="44.37358" lon="2.22243">
        <ele>428</ele>
        <time>2017-09-17T12:47:55Z</time>
      </trkpt>
      <trkpt lat="44.37352" lon="2.22241">
        <ele>428</ele>
        <time>2017-09-17T12:47:59Z</time>
      </trkpt>
      <trkpt lat="44.37332" lon="2.22224">
        <ele>430</ele>
        <time>2017-09-17T12:48:16Z</time>
      </trkpt>
      <trkpt lat="44.3733" lon="2.22222">
        <ele>430</ele>
        <time>2017-09-17T12:48:18Z</time>
      </trkpt>
      <trkpt lat="44.3732" lon="2.22214">
        <ele>430</ele>
        <time>2017-09-17T12:48:28Z</time>
      </trkpt>
      <trkpt lat="44.37319" lon="2.22213">
        <ele>430</ele>
        <time>2017-09-17T12:48:30Z</time>
      </trkpt>
      <trkpt lat="44.37318" lon="2.2221">
        <ele>430</ele>
        <time>2017-09-17T12:48:32Z</time>
      </trkpt>
      <trkpt lat="44.3732" lon="2.22208">
        <ele>430</ele>
        <time>2017-09-17T12:49:00Z</time>
      </trkpt>
      <trkpt lat="44.37327" lon="2.22204">
        <ele>430</ele>
        <time>2017-09-17T12:49:07Z</time>
      </trkpt>
      <trkpt lat="44.37329" lon="2.22201">
        <ele>431</ele>
        <time>2017-09-17T12:49:10Z</time>
      </trkpt>
      <trkpt lat="44.37331" lon="2.22198">
        <ele>431</ele>
        <time>2017-09-17T12:49:12Z</time>
      </trkpt>
      <trkpt lat="44.37335" lon="2.22194">
        <ele>429</ele>
        <time>2017-09-17T12:49:16Z</time>
      </trkpt>
      <trkpt lat="44.37339" lon="2.22191">
        <ele>429</ele>
        <time>2017-09-17T12:49:20Z</time>
      </trkpt>
      <trkpt lat="44.37341" lon="2.22188">
        <ele>429</ele>
        <time>2017-09-17T12:49:22Z</time>
      </trkpt>
      <trkpt lat="44.3734" lon="2.22186">
        <ele>429</ele>
        <time>2017-09-17T12:49:30Z</time>
      </trkpt>
      <trkpt lat="44.37338" lon="2.22187">
        <ele>429</ele>
        <time>2017-09-17T12:49:38Z</time>
      </trkpt>
      <trkpt lat="44.37334" lon="2.22192">
        <ele>429</ele>
        <time>2017-09-17T12:49:42Z</time>
      </trkpt>
      <trkpt lat="44.37332" lon="2.22196">
        <ele>431</ele>
        <time>2017-09-17T12:49:44Z</time>
      </trkpt>
      <trkpt lat="44.3733" lon="2.22198">
        <ele>431</ele>
        <time>2017-09-17T12:49:46Z</time>
      </trkpt>
      <trkpt lat="44.37328" lon="2.22197">
        <ele>431</ele>
        <time>2017-09-17T12:49:48Z</time>
      </trkpt>
      <trkpt lat="44.37302" lon="2.22161">
        <ele>432</ele>
        <time>2017-09-17T12:50:16Z</time>
      </trkpt>
      <trkpt lat="44.373" lon="2.22158">
        <ele>432</ele>
        <time>2017-09-17T12:50:18Z</time>
      </trkpt>
      <trkpt lat="44.37299" lon="2.22152">
        <ele>432</ele>
        <time>2017-09-17T12:50:22Z</time>
      </trkpt>
      <trkpt lat="44.37298" lon="2.22144">
        <ele>432</ele>
        <time>2017-09-17T12:50:26Z</time>
      </trkpt>
      <trkpt lat="44.37299" lon="2.22138">
        <ele>432</ele>
        <time>2017-09-17T12:50:30Z</time>
      </trkpt>
      <trkpt lat="44.37302" lon="2.22127">
        <ele>432</ele>
        <time>2017-09-17T12:50:36Z</time>
      </trkpt>
      <trkpt lat="44.37302" lon="2.22124">
        <ele>432</ele>
        <time>2017-09-17T12:50:38Z</time>
      </trkpt>
      <trkpt lat="44.37301" lon="2.22117">
        <ele>432</ele>
        <time>2017-09-17T12:50:42Z</time>
      </trkpt>
      <trkpt lat="44.37299" lon="2.22114">
        <ele>432</ele>
        <time>2017-09-17T12:50:44Z</time>
      </trkpt>
      <trkpt lat="44.373" lon="2.22113">
        <ele>432</ele>
        <time>2017-09-17T12:51:14Z</time>
      </trkpt>
      <trkpt lat="44.37304" lon="2.2212">
        <ele>432</ele>
        <time>2017-09-17T12:51:20Z</time>
      </trkpt>
      <trkpt lat="44.37303" lon="2.22122">
        <ele>432</ele>
        <time>2017-09-17T12:51:34Z</time>
      </trkpt>
      <trkpt lat="44.37302" lon="2.22123">
        <ele>432</ele>
        <time>2017-09-17T12:51:36Z</time>
      </trkpt>
      <trkpt lat="44.37304" lon="2.22125">
        <ele>432</ele>
        <time>2017-09-17T12:52:32Z</time>
      </trkpt>
      <trkpt lat="44.37303" lon="2.22128">
        <ele>432</ele>
        <time>2017-09-17T12:52:41Z</time>
      </trkpt>
      <trkpt lat="44.37301" lon="2.22132">
        <ele>432</ele>
        <time>2017-09-17T12:52:44Z</time>
      </trkpt>
      <trkpt lat="44.37298" lon="2.22143">
        <ele>432</ele>
        <time>2017-09-17T12:52:50Z</time>
      </trkpt>
      <trkpt lat="44.37298" lon="2.2215">
        <ele>432</ele>
        <time>2017-09-17T12:52:54Z</time>
      </trkpt>
      <trkpt lat="44.37299" lon="2.22156">
        <ele>432</ele>
        <time>2017-09-17T12:52:57Z</time>
      </trkpt>
      <trkpt lat="44.37302" lon="2.2216">
        <ele>432</ele>
        <time>2017-09-17T12:53:00Z</time>
      </trkpt>
      <trkpt lat="44.37326" lon="2.22196">
        <ele>431</ele>
        <time>2017-09-17T12:53:38Z</time>
      </trkpt>
      <trkpt lat="44.3733" lon="2.22198">
        <ele>431</ele>
        <time>2017-09-17T12:53:42Z</time>
      </trkpt>
      <trkpt lat="44.37333" lon="2.22198">
        <ele>431</ele>
        <time>2017-09-17T12:53:44Z</time>
      </trkpt>
      <trkpt lat="44.37337" lon="2.22194">
        <ele>429</ele>
        <time>2017-09-17T12:53:48Z</time>
      </trkpt>
      <trkpt lat="44.37343" lon="2.22179">
        <ele>430</ele>
        <time>2017-09-17T12:53:58Z</time>
      </trkpt>
      <trkpt lat="44.37347" lon="2.22177">
        <ele>430</ele>
        <time>2017-09-17T12:54:01Z</time>
      </trkpt>
      <trkpt lat="44.37352" lon="2.22168">
        <ele>429</ele>
        <time>2017-09-17T12:54:07Z</time>
      </trkpt>
      <trkpt lat="44.37358" lon="2.22161">
        <ele>429</ele>
        <time>2017-09-17T12:54:13Z</time>
      </trkpt>
      <trkpt lat="44.37362" lon="2.22155">
        <ele>429</ele>
        <time>2017-09-17T12:54:18Z</time>
      </trkpt>
      <trkpt lat="44.37364" lon="2.22152">
        <ele>429</ele>
        <time>2017-09-17T12:54:20Z</time>
      </trkpt>
      <trkpt lat="44.37366" lon="2.2215">
        <ele>429</ele>
        <time>2017-09-17T12:54:22Z</time>
      </trkpt>
      <trkpt lat="44.37366" lon="2.22147">
        <ele>429</ele>
        <time>2017-09-17T12:55:10Z</time>
      </trkpt>
      <trkpt lat="44.37366" lon="2.22144">
        <ele>429</ele>
        <time>2017-09-17T12:55:12Z</time>
      </trkpt>
      <trkpt lat="44.37367" lon="2.22141">
        <ele>429</ele>
        <time>2017-09-17T12:55:14Z</time>
      </trkpt>
      <trkpt lat="44.3737" lon="2.22137">
        <ele>428</ele>
        <time>2017-09-17T12:55:19Z</time>
      </trkpt>
      <trkpt lat="44.37377" lon="2.22108">
        <ele>428</ele>
        <time>2017-09-17T12:55:43Z</time>
      </trkpt>
      <trkpt lat="44.37378" lon="2.22104">
        <ele>428</ele>
        <time>2017-09-17T12:55:46Z</time>
      </trkpt>
      <trkpt lat="44.37377" lon="2.22095">
        <ele>428</ele>
        <time>2017-09-17T12:55:51Z</time>
      </trkpt>
      <trkpt lat="44.37377" lon="2.22091">
        <ele>428</ele>
        <time>2017-09-17T12:55:53Z</time>
      </trkpt>
      <trkpt lat="44.37369" lon="2.22033">
        <ele>426</ele>
        <time>2017-09-17T12:56:24Z</time>
      </trkpt>
      <trkpt lat="44.37367" lon="2.22022">
        <ele>426</ele>
        <time>2017-09-17T12:56:31Z</time>
      </trkpt>
      <trkpt lat="44.3736" lon="2.22004">
        <ele>425</ele>
        <time>2017-09-17T12:56:41Z</time>
      </trkpt>
      <trkpt lat="44.37353" lon="2.21989">
        <ele>425</ele>
        <time>2017-09-17T12:56:50Z</time>
      </trkpt>
      <trkpt lat="44.37348" lon="2.21984">
        <ele>425</ele>
        <time>2017-09-17T12:56:54Z</time>
      </trkpt>
      <trkpt lat="44.37322" lon="2.21945">
        <ele>425</ele>
        <time>2017-09-17T12:57:24Z</time>
      </trkpt>
      <trkpt lat="44.37313" lon="2.21932">
        <ele>425</ele>
        <time>2017-09-17T12:57:33Z</time>
      </trkpt>
      <trkpt lat="44.37309" lon="2.21928">
        <ele>425</ele>
        <time>2017-09-17T12:57:37Z</time>
      </trkpt>
      <trkpt lat="44.37304" lon="2.2192">
        <ele>425</ele>
        <time>2017-09-17T12:57:43Z</time>
      </trkpt>
      <trkpt lat="44.373" lon="2.21911">
        <ele>425</ele>
        <time>2017-09-17T12:57:49Z</time>
      </trkpt>
      <trkpt lat="44.3729" lon="2.21896">
        <ele>425</ele>
        <time>2017-09-17T12:58:00Z</time>
      </trkpt>
      <trkpt lat="44.37287" lon="2.21889">
        <ele>425</ele>
        <time>2017-09-17T12:58:05Z</time>
      </trkpt>
      <trkpt lat="44.37285" lon="2.21886">
        <ele>425</ele>
        <time>2017-09-17T12:58:08Z</time>
      </trkpt>
      <trkpt lat="44.37281" lon="2.21879">
        <ele>425</ele>
        <time>2017-09-17T12:58:14Z</time>
      </trkpt>
      <trkpt lat="44.37279" lon="2.21874">
        <ele>425</ele>
        <time>2017-09-17T12:58:17Z</time>
      </trkpt>
      <trkpt lat="44.37274" lon="2.21865">
        <ele>426</ele>
        <time>2017-09-17T12:58:24Z</time>
      </trkpt>
      <trkpt lat="44.37266" lon="2.21845">
        <ele>426</ele>
        <time>2017-09-17T12:58:37Z</time>
      </trkpt>
      <trkpt lat="44.37264" lon="2.2183">
        <ele>427</ele>
        <time>2017-09-17T12:58:47Z</time>
      </trkpt>
      <trkpt lat="44.37257" lon="2.21815">
        <ele>427</ele>
        <time>2017-09-17T12:58:56Z</time>
      </trkpt>
      <trkpt lat="44.37256" lon="2.21812">
        <ele>427</ele>
        <time>2017-09-17T12:59:04Z</time>
      </trkpt>
      <trkpt lat="44.3726" lon="2.21807">
        <ele>427</ele>
        <time>2017-09-17T12:59:25Z</time>
      </trkpt>
      <trkpt lat="44.37262" lon="2.21805">
        <ele>427</ele>
        <time>2017-09-17T12:59:28Z</time>
      </trkpt>
      <trkpt lat="44.37266" lon="2.21802">
        <ele>427</ele>
        <time>2017-09-17T12:59:32Z</time>
      </trkpt>
      <trkpt lat="44.3727" lon="2.218">
        <ele>427</ele>
        <time>2017-09-17T12:59:38Z</time>
      </trkpt>
      <trkpt lat="44.37274" lon="2.21802">
        <ele>428</ele>
        <time>2017-09-17T12:59:43Z</time>
      </trkpt>
      <trkpt lat="44.37278" lon="2.21801">
        <ele>428</ele>
        <time>2017-09-17T12:59:47Z</time>
      </trkpt>
      <trkpt lat="44.37283" lon="2.21801">
        <ele>428</ele>
        <time>2017-09-17T12:59:53Z</time>
      </trkpt>
      <trkpt lat="44.37296" lon="2.21791">
        <ele>428</ele>
        <time>2017-09-17T13:00:06Z</time>
      </trkpt>
      <trkpt lat="44.37303" lon="2.21775">
        <ele>429</ele>
        <time>2017-09-17T13:00:16Z</time>
      </trkpt>
      <trkpt lat="44.37304" lon="2.21768">
        <ele>430</ele>
        <time>2017-09-17T13:00:24Z</time>
      </trkpt>
      <trkpt lat="44.373" lon="2.21757">
        <ele>430</ele>
        <time>2017-09-17T13:00:34Z</time>
      </trkpt>
      <trkpt lat="44.37298" lon="2.21753">
        <ele>430</ele>
        <time>2017-09-17T13:00:37Z</time>
      </trkpt>
      <trkpt lat="44.37282" lon="2.21733">
        <ele>432</ele>
        <time>2017-09-17T13:00:55Z</time>
      </trkpt>
      <trkpt lat="44.37275" lon="2.21721">
        <ele>432</ele>
        <time>2017-09-17T13:01:01Z</time>
      </trkpt>
      <trkpt lat="44.37272" lon="2.21717">
        <ele>432</ele>
        <time>2017-09-17T13:01:05Z</time>
      </trkpt>
      <trkpt lat="44.37269" lon="2.21712">
        <ele>432</ele>
        <time>2017-09-17T13:01:42Z</time>
      </trkpt>
      <trkpt lat="44.37265" lon="2.21708">
        <ele>432</ele>
        <time>2017-09-17T13:01:47Z</time>
      </trkpt>
      <trkpt lat="44.37264" lon="2.21701">
        <ele>432</ele>
        <time>2017-09-17T13:01:51Z</time>
      </trkpt>
      <trkpt lat="44.37262" lon="2.21695">
        <ele>432</ele>
        <time>2017-09-17T13:01:55Z</time>
      </trkpt>
      <trkpt lat="44.37257" lon="2.2168">
        <ele>432</ele>
        <time>2017-09-17T13:02:04Z</time>
      </trkpt>
      <trkpt lat="44.37256" lon="2.21673">
        <ele>431</ele>
        <time>2017-09-17T13:02:08Z</time>
      </trkpt>
      <trkpt lat="44.37258" lon="2.2166">
        <ele>432</ele>
        <time>2017-09-17T13:02:18Z</time>
      </trkpt>
      <trkpt lat="44.3726" lon="2.21654">
        <ele>432</ele>
        <time>2017-09-17T13:02:23Z</time>
      </trkpt>
      <trkpt lat="44.37277" lon="2.21625">
        <ele>433</ele>
        <time>2017-09-17T13:02:46Z</time>
      </trkpt>
      <trkpt lat="44.37292" lon="2.21619">
        <ele>434</ele>
        <time>2017-09-17T13:03:01Z</time>
      </trkpt>
      <trkpt lat="44.37298" lon="2.21616">
        <ele>434</ele>
        <time>2017-09-17T13:03:06Z</time>
      </trkpt>
      <trkpt lat="44.37303" lon="2.21616">
        <ele>435</ele>
        <time>2017-09-17T13:03:10Z</time>
      </trkpt>
      <trkpt lat="44.37318" lon="2.2162">
        <ele>436</ele>
        <time>2017-09-17T13:03:23Z</time>
      </trkpt>
      <trkpt lat="44.37338" lon="2.21629">
        <ele>446</ele>
        <time>2017-09-17T13:03:39Z</time>
      </trkpt>
      <trkpt lat="44.37349" lon="2.21634">
        <ele>446</ele>
        <time>2017-09-17T13:03:47Z</time>
      </trkpt>
      <trkpt lat="44.37353" lon="2.21635">
        <ele>447</ele>
        <time>2017-09-17T13:03:51Z</time>
      </trkpt>
      <trkpt lat="44.3736" lon="2.21641">
        <ele>447</ele>
        <time>2017-09-17T13:03:57Z</time>
      </trkpt>
      <trkpt lat="44.37365" lon="2.21648">
        <ele>448</ele>
        <time>2017-09-17T13:04:03Z</time>
      </trkpt>
      <trkpt lat="44.3737" lon="2.21655">
        <ele>448</ele>
        <time>2017-09-17T13:04:09Z</time>
      </trkpt>
      <trkpt lat="44.37371" lon="2.21657">
        <ele>448</ele>
        <time>2017-09-17T13:04:11Z</time>
      </trkpt>
      <trkpt lat="44.37378" lon="2.21668">
        <ele>448</ele>
        <time>2017-09-17T13:04:19Z</time>
      </trkpt>
      <trkpt lat="44.37384" lon="2.21674">
        <ele>449</ele>
        <time>2017-09-17T13:04:25Z</time>
      </trkpt>
      <trkpt lat="44.37386" lon="2.21678">
        <ele>449</ele>
        <time>2017-09-17T13:04:28Z</time>
      </trkpt>
      <trkpt lat="44.37397" lon="2.21695">
        <ele>449</ele>
        <time>2017-09-17T13:04:43Z</time>
      </trkpt>
      <trkpt lat="44.37401" lon="2.21702">
        <ele>449</ele>
        <time>2017-09-17T13:04:48Z</time>
      </trkpt>
      <trkpt lat="44.37427" lon="2.21726">
        <ele>453</ele>
        <time>2017-09-17T13:05:11Z</time>
      </trkpt>
      <trkpt lat="44.37436" lon="2.21733">
        <ele>453</ele>
        <time>2017-09-17T13:05:20Z</time>
      </trkpt>
      <trkpt lat="44.3744" lon="2.21737">
        <ele>453</ele>
        <time>2017-09-17T13:05:24Z</time>
      </trkpt>
      <trkpt lat="44.37459" lon="2.21751">
        <ele>453</ele>
        <time>2017-09-17T13:05:40Z</time>
      </trkpt>
      <trkpt lat="44.37464" lon="2.21753">
        <ele>453</ele>
        <time>2017-09-17T13:05:44Z</time>
      </trkpt>
      <trkpt lat="44.37475" lon="2.21763">
        <ele>454</ele>
        <time>2017-09-17T13:05:57Z</time>
      </trkpt>
      <trkpt lat="44.37489" lon="2.2177">
        <ele>454</ele>
        <time>2017-09-17T13:06:36Z</time>
      </trkpt>
      <trkpt lat="44.37493" lon="2.21775">
        <ele>454</ele>
        <time>2017-09-17T13:06:41Z</time>
      </trkpt>
      <trkpt lat="44.37501" lon="2.21778">
        <ele>460</ele>
        <time>2017-09-17T13:06:47Z</time>
      </trkpt>
      <trkpt lat="44.37516" lon="2.21788">
        <ele>460</ele>
        <time>2017-09-17T13:07:01Z</time>
      </trkpt>
      <trkpt lat="44.3752" lon="2.21789">
        <ele>460</ele>
        <time>2017-09-17T13:07:04Z</time>
      </trkpt>
      <trkpt lat="44.37527" lon="2.21792">
        <ele>460</ele>
        <time>2017-09-17T13:07:09Z</time>
      </trkpt>
      <trkpt lat="44.3753" lon="2.21793">
        <ele>461</ele>
        <time>2017-09-17T13:07:12Z</time>
      </trkpt>
      <trkpt lat="44.37556" lon="2.21806">
        <ele>462</ele>
        <time>2017-09-17T13:07:33Z</time>
      </trkpt>
      <trkpt lat="44.3756" lon="2.21807">
        <ele>462</ele>
        <time>2017-09-17T13:07:36Z</time>
      </trkpt>
      <trkpt lat="44.3757" lon="2.21811">
        <ele>463</ele>
        <time>2017-09-17T13:07:43Z</time>
      </trkpt>
      <trkpt lat="44.37573" lon="2.21814">
        <ele>463</ele>
        <time>2017-09-17T13:07:46Z</time>
      </trkpt>
      <trkpt lat="44.37575" lon="2.21817">
        <ele>464</ele>
        <time>2017-09-17T13:07:49Z</time>
      </trkpt>
      <trkpt lat="44.37579" lon="2.21818">
        <ele>464</ele>
        <time>2017-09-17T13:07:52Z</time>
      </trkpt>
      <trkpt lat="44.37582" lon="2.21818">
        <ele>464</ele>
        <time>2017-09-17T13:07:54Z</time>
      </trkpt>
      <trkpt lat="44.37584" lon="2.21819">
        <ele>466</ele>
        <time>2017-09-17T13:07:57Z</time>
      </trkpt>
      <trkpt lat="44.37584" lon="2.21822">
        <ele>466</ele>
        <time>2017-09-17T13:08:03Z</time>
      </trkpt>
      <trkpt lat="44.37583" lon="2.21824">
        <ele>466</ele>
        <time>2017-09-17T13:09:01Z</time>
      </trkpt>
      <trkpt lat="44.37584" lon="2.21827">
        <ele>467</ele>
        <time>2017-09-17T13:09:03Z</time>
      </trkpt>
      <trkpt lat="44.37587" lon="2.21833">
        <ele>467</ele>
        <time>2017-09-17T13:09:07Z</time>
      </trkpt>
      <trkpt lat="44.37593" lon="2.21837">
        <ele>468</ele>
        <time>2017-09-17T13:09:12Z</time>
      </trkpt>
      <trkpt lat="44.37601" lon="2.21844">
        <ele>468</ele>
        <time>2017-09-17T13:09:19Z</time>
      </trkpt>
      <trkpt lat="44.37635" lon="2.21858">
        <ele>470</ele>
        <time>2017-09-17T13:09:47Z</time>
      </trkpt>
      <trkpt lat="44.37637" lon="2.21859">
        <ele>470</ele>
        <time>2017-09-17T13:09:49Z</time>
      </trkpt>
      <trkpt lat="44.37639" lon="2.21861">
        <ele>470</ele>
        <time>2017-09-17T13:09:51Z</time>
      </trkpt>
      <trkpt lat="44.37641" lon="2.21874">
        <ele>470</ele>
        <time>2017-09-17T13:09:58Z</time>
      </trkpt>
      <trkpt lat="44.37641" lon="2.21882">
        <ele>470</ele>
        <time>2017-09-17T13:10:02Z</time>
      </trkpt>
      <trkpt lat="44.37642" lon="2.21889">
        <ele>471</ele>
        <time>2017-09-17T13:10:06Z</time>
      </trkpt>
      <trkpt lat="44.37642" lon="2.21896">
        <ele>471</ele>
        <time>2017-09-17T13:10:10Z</time>
      </trkpt>
      <trkpt lat="44.37649" lon="2.21924">
        <ele>472</ele>
        <time>2017-09-17T13:10:28Z</time>
      </trkpt>
      <trkpt lat="44.37654" lon="2.21931">
        <ele>473</ele>
        <time>2017-09-17T13:10:34Z</time>
      </trkpt>
      <trkpt lat="44.37658" lon="2.21935">
        <ele>473</ele>
        <time>2017-09-17T13:10:38Z</time>
      </trkpt>
      <trkpt lat="44.3767" lon="2.21957">
        <ele>473</ele>
        <time>2017-09-17T13:10:53Z</time>
      </trkpt>
      <trkpt lat="44.37677" lon="2.21961">
        <ele>473</ele>
        <time>2017-09-17T13:10:59Z</time>
      </trkpt>
      <trkpt lat="44.37679" lon="2.21962">
        <ele>473</ele>
        <time>2017-09-17T13:11:01Z</time>
      </trkpt>
      <trkpt lat="44.37684" lon="2.2196">
        <ele>473</ele>
        <time>2017-09-17T13:11:05Z</time>
      </trkpt>
      <trkpt lat="44.37691" lon="2.21959">
        <ele>473</ele>
        <time>2017-09-17T13:11:11Z</time>
      </trkpt>
      <trkpt lat="44.37701" lon="2.21952">
        <ele>473</ele>
        <time>2017-09-17T13:11:19Z</time>
      </trkpt>
      <trkpt lat="44.37707" lon="2.21944">
        <ele>472</ele>
        <time>2017-09-17T13:11:25Z</time>
      </trkpt>
      <trkpt lat="44.37721" lon="2.2194">
        <ele>472</ele>
        <time>2017-09-17T13:11:36Z</time>
      </trkpt>
      <trkpt lat="44.37756" lon="2.21962">
        <ele>466</ele>
        <time>2017-09-17T13:12:07Z</time>
      </trkpt>
      <trkpt lat="44.37757" lon="2.21963">
        <ele>466</ele>
        <time>2017-09-17T13:12:08Z</time>
      </trkpt>
      <trkpt lat="44.37761" lon="2.21966">
        <ele>466</ele>
        <time>2017-09-17T13:12:12Z</time>
      </trkpt>
      <trkpt lat="44.37764" lon="2.2197">
        <ele>465</ele>
        <time>2017-09-17T13:12:16Z</time>
      </trkpt>
      <trkpt lat="44.37773" lon="2.21981">
        <ele>465</ele>
        <time>2017-09-17T13:12:26Z</time>
      </trkpt>
      <trkpt lat="44.37774" lon="2.21984">
        <ele>465</ele>
        <time>2017-09-17T13:12:28Z</time>
      </trkpt>
      <trkpt lat="44.37793" lon="2.22004">
        <ele>462</ele>
        <time>2017-09-17T13:12:47Z</time>
      </trkpt>
      <trkpt lat="44.37798" lon="2.22007">
        <ele>461</ele>
        <time>2017-09-17T13:12:51Z</time>
      </trkpt>
      <trkpt lat="44.37808" lon="2.22022">
        <ele>461</ele>
        <time>2017-09-17T13:13:02Z</time>
      </trkpt>
      <trkpt lat="44.3781" lon="2.22023">
        <ele>461</ele>
        <time>2017-09-17T13:13:04Z</time>
      </trkpt>
      <trkpt lat="44.37812" lon="2.22024">
        <ele>461</ele>
        <time>2017-09-17T13:13:06Z</time>
      </trkpt>
      <trkpt lat="44.37818" lon="2.22035">
        <ele>460</ele>
        <time>2017-09-17T13:13:14Z</time>
      </trkpt>
      <trkpt lat="44.37832" lon="2.22048">
        <ele>460</ele>
        <time>2017-09-17T13:13:45Z</time>
      </trkpt>
      <trkpt lat="44.37834" lon="2.2205">
        <ele>456</ele>
        <time>2017-09-17T13:13:57Z</time>
      </trkpt>
      <trkpt lat="44.37856" lon="2.22082">
        <ele>455</ele>
        <time>2017-09-17T13:14:29Z</time>
      </trkpt>
      <trkpt lat="44.37879" lon="2.22118">
        <ele>452</ele>
        <time>2017-09-17T13:14:57Z</time>
      </trkpt>
      <trkpt lat="44.37883" lon="2.22123">
        <ele>451</ele>
        <time>2017-09-17T13:15:02Z</time>
      </trkpt>
      <trkpt lat="44.37885" lon="2.22126">
        <ele>451</ele>
        <time>2017-09-17T13:15:05Z</time>
      </trkpt>
      <trkpt lat="44.37893" lon="2.22134">
        <ele>451</ele>
        <time>2017-09-17T13:15:12Z</time>
      </trkpt>
      <trkpt lat="44.37904" lon="2.22151">
        <ele>450</ele>
        <time>2017-09-17T13:15:25Z</time>
      </trkpt>
      <trkpt lat="44.37907" lon="2.22159">
        <ele>449</ele>
        <time>2017-09-17T13:15:30Z</time>
      </trkpt>
      <trkpt lat="44.37908" lon="2.22166">
        <ele>449</ele>
        <time>2017-09-17T13:15:34Z</time>
      </trkpt>
      <trkpt lat="44.37911" lon="2.22203">
        <ele>447</ele>
        <time>2017-09-17T13:15:55Z</time>
      </trkpt>
      <trkpt lat="44.37913" lon="2.22221">
        <ele>446</ele>
        <time>2017-09-17T13:16:05Z</time>
      </trkpt>
      <trkpt lat="44.37915" lon="2.22229">
        <ele>446</ele>
        <time>2017-09-17T13:16:10Z</time>
      </trkpt>
      <trkpt lat="44.37937" lon="2.22266">
        <ele>441</ele>
        <time>2017-09-17T13:16:38Z</time>
      </trkpt>
      <trkpt lat="44.37951" lon="2.22287">
        <ele>441</ele>
        <time>2017-09-17T13:16:54Z</time>
      </trkpt>
      <trkpt lat="44.37959" lon="2.22294">
        <ele>440</ele>
        <time>2017-09-17T13:17:02Z</time>
      </trkpt>
      <trkpt lat="44.37964" lon="2.22296">
        <ele>441</ele>
        <time>2017-09-17T13:17:06Z</time>
      </trkpt>
      <trkpt lat="44.37969" lon="2.22295">
        <ele>441</ele>
        <time>2017-09-17T13:17:10Z</time>
      </trkpt>
      <trkpt lat="44.38" lon="2.22271">
        <ele>441</ele>
        <time>2017-09-17T13:17:40Z</time>
      </trkpt>
      <trkpt lat="44.38023" lon="2.2226">
        <ele>443</ele>
        <time>2017-09-17T13:17:59Z</time>
      </trkpt>
      <trkpt lat="44.38032" lon="2.22257">
        <ele>443</ele>
        <time>2017-09-17T13:18:06Z</time>
      </trkpt>
      <trkpt lat="44.38034" lon="2.22256">
        <ele>443</ele>
        <time>2017-09-17T13:18:08Z</time>
      </trkpt>
      <trkpt lat="44.38042" lon="2.22254">
        <ele>443</ele>
        <time>2017-09-17T13:18:14Z</time>
      </trkpt>
      <trkpt lat="44.38065" lon="2.22241">
        <ele>441</ele>
        <time>2017-09-17T13:18:33Z</time>
      </trkpt>
      <trkpt lat="44.38076" lon="2.22236">
        <ele>442</ele>
        <time>2017-09-17T13:18:41Z</time>
      </trkpt>
      <trkpt lat="44.38094" lon="2.2222">
        <ele>443</ele>
        <time>2017-09-17T13:18:56Z</time>
      </trkpt>
      <trkpt lat="44.38101" lon="2.22211">
        <ele>443</ele>
        <time>2017-09-17T13:19:03Z</time>
      </trkpt>
      <trkpt lat="44.38104" lon="2.22209">
        <ele>443</ele>
        <time>2017-09-17T13:19:05Z</time>
      </trkpt>
      <trkpt lat="44.3812" lon="2.22189">
        <ele>443</ele>
        <time>2017-09-17T13:19:22Z</time>
      </trkpt>
      <trkpt lat="44.38125" lon="2.22183">
        <ele>443</ele>
        <time>2017-09-17T13:19:28Z</time>
      </trkpt>
      <trkpt lat="44.38129" lon="2.2218">
        <ele>443</ele>
        <time>2017-09-17T13:19:31Z</time>
      </trkpt>
      <trkpt lat="44.38135" lon="2.22171">
        <ele>443</ele>
        <time>2017-09-17T13:19:39Z</time>
      </trkpt>
      <trkpt lat="44.38139" lon="2.22168">
        <ele>443</ele>
        <time>2017-09-17T13:19:42Z</time>
      </trkpt>
      <trkpt lat="44.38164" lon="2.22137">
        <ele>440</ele>
        <time>2017-09-17T13:20:07Z</time>
      </trkpt>
      <trkpt lat="44.38171" lon="2.22131">
        <ele>444</ele>
        <time>2017-09-17T13:20:13Z</time>
      </trkpt>
      <trkpt lat="44.38186" lon="2.22115">
        <ele>444</ele>
        <time>2017-09-17T13:20:27Z</time>
      </trkpt>
      <trkpt lat="44.38188" lon="2.22112">
        <ele>444</ele>
        <time>2017-09-17T13:20:30Z</time>
      </trkpt>
      <trkpt lat="44.38197" lon="2.22101">
        <ele>444</ele>
        <time>2017-09-17T13:20:40Z</time>
      </trkpt>
      <trkpt lat="44.382" lon="2.22097">
        <ele>444</ele>
        <time>2017-09-17T13:20:42Z</time>
      </trkpt>
      <trkpt lat="44.38203" lon="2.22094">
        <ele>444</ele>
        <time>2017-09-17T13:20:45Z</time>
      </trkpt>
      <trkpt lat="44.38212" lon="2.2208">
        <ele>440</ele>
        <time>2017-09-17T13:20:56Z</time>
      </trkpt>
      <trkpt lat="44.38219" lon="2.22048">
        <ele>439</ele>
        <time>2017-09-17T13:21:14Z</time>
      </trkpt>
      <trkpt lat="44.38223" lon="2.22019">
        <ele>437</ele>
        <time>2017-09-17T13:21:32Z</time>
      </trkpt>
      <trkpt lat="44.38231" lon="2.21997">
        <ele>434</ele>
        <time>2017-09-17T13:21:46Z</time>
      </trkpt>
      <trkpt lat="44.38233" lon="2.21989">
        <ele>434</ele>
        <time>2017-09-17T13:21:50Z</time>
      </trkpt>
      <trkpt lat="44.38237" lon="2.2198">
        <ele>433</ele>
        <time>2017-09-17T13:21:55Z</time>
      </trkpt>
      <trkpt lat="44.38244" lon="2.21965">
        <ele>433</ele>
        <time>2017-09-17T13:22:05Z</time>
      </trkpt>
      <trkpt lat="44.38251" lon="2.21948">
        <ele>435</ele>
        <time>2017-09-17T13:22:17Z</time>
      </trkpt>
      <trkpt lat="44.38261" lon="2.21926">
        <ele>433</ele>
        <time>2017-09-17T13:22:31Z</time>
      </trkpt>
      <trkpt lat="44.38263" lon="2.21921">
        <ele>433</ele>
        <time>2017-09-17T13:22:34Z</time>
      </trkpt>
      <trkpt lat="44.38265" lon="2.21914">
        <ele>432</ele>
        <time>2017-09-17T13:22:39Z</time>
      </trkpt>
      <trkpt lat="44.38275" lon="2.21884">
        <ele>434</ele>
        <time>2017-09-17T13:22:55Z</time>
      </trkpt>
      <trkpt lat="44.38277" lon="2.21873">
        <ele>434</ele>
        <time>2017-09-17T13:23:01Z</time>
      </trkpt>
      <trkpt lat="44.38278" lon="2.21855">
        <ele>434</ele>
        <time>2017-09-17T13:23:11Z</time>
      </trkpt>
      <trkpt lat="44.38279" lon="2.21851">
        <ele>434</ele>
        <time>2017-09-17T13:23:14Z</time>
      </trkpt>
      <trkpt lat="44.38281" lon="2.21839">
        <ele>434</ele>
        <time>2017-09-17T13:23:21Z</time>
      </trkpt>
      <trkpt lat="44.38281" lon="2.21835">
        <ele>434</ele>
        <time>2017-09-17T13:23:24Z</time>
      </trkpt>
      <trkpt lat="44.38283" lon="2.21794">
        <ele>434</ele>
        <time>2017-09-17T13:23:48Z</time>
      </trkpt>
      <trkpt lat="44.3829" lon="2.21746">
        <ele>432</ele>
        <time>2017-09-17T13:24:15Z</time>
      </trkpt>
      <trkpt lat="44.38291" lon="2.21742">
        <ele>432</ele>
        <time>2017-09-17T13:24:18Z</time>
      </trkpt>
      <trkpt lat="44.38292" lon="2.21738">
        <ele>432</ele>
        <time>2017-09-17T13:24:20Z</time>
      </trkpt>
      <trkpt lat="44.38293" lon="2.21731">
        <ele>432</ele>
        <time>2017-09-17T13:24:24Z</time>
      </trkpt>
      <trkpt lat="44.38302" lon="2.21711">
        <ele>432</ele>
        <time>2017-09-17T13:24:35Z</time>
      </trkpt>
      <trkpt lat="44.38307" lon="2.21706">
        <ele>432</ele>
        <time>2017-09-17T13:24:40Z</time>
      </trkpt>
      <trkpt lat="44.38313" lon="2.21704">
        <ele>432</ele>
        <time>2017-09-17T13:24:45Z</time>
      </trkpt>
      <trkpt lat="44.38318" lon="2.21703">
        <ele>432</ele>
        <time>2017-09-17T13:24:49Z</time>
      </trkpt>
      <trkpt lat="44.38327" lon="2.21703">
        <ele>433</ele>
        <time>2017-09-17T13:24:56Z</time>
      </trkpt>
      <trkpt lat="44.38331" lon="2.21701">
        <ele>433</ele>
        <time>2017-09-17T13:25:01Z</time>
      </trkpt>
      <trkpt lat="44.38341" lon="2.21696">
        <ele>437</ele>
        <time>2017-09-17T13:25:08Z</time>
      </trkpt>
      <trkpt lat="44.38343" lon="2.21694">
        <ele>437</ele>
        <time>2017-09-17T13:25:10Z</time>
      </trkpt>
      <trkpt lat="44.38348" lon="2.21689">
        <ele>436</ele>
        <time>2017-09-17T13:25:16Z</time>
      </trkpt>
      <trkpt lat="44.38354" lon="2.21679">
        <ele>436</ele>
        <time>2017-09-17T13:25:24Z</time>
      </trkpt>
      <trkpt lat="44.38357" lon="2.21662">
        <ele>435</ele>
        <time>2017-09-17T13:25:34Z</time>
      </trkpt>
      <trkpt lat="44.38358" lon="2.21636">
        <ele>435</ele>
        <time>2017-09-17T13:25:48Z</time>
      </trkpt>
      <trkpt lat="44.38361" lon="2.21612">
        <ele>434</ele>
        <time>2017-09-17T13:26:01Z</time>
      </trkpt>
      <trkpt lat="44.38378" lon="2.2156">
        <ele>432</ele>
        <time>2017-09-17T13:26:32Z</time>
      </trkpt>
      <trkpt lat="44.38381" lon="2.21552">
        <ele>432</ele>
        <time>2017-09-17T13:26:36Z</time>
      </trkpt>
      <trkpt lat="44.38392" lon="2.21521">
        <ele>432</ele>
        <time>2017-09-17T13:26:57Z</time>
      </trkpt>
      <trkpt lat="44.38394" lon="2.21513">
        <ele>432</ele>
        <time>2017-09-17T13:27:03Z</time>
      </trkpt>
      <trkpt lat="44.38406" lon="2.21467">
        <ele>429</ele>
        <time>2017-09-17T13:27:33Z</time>
      </trkpt>
      <trkpt lat="44.38407" lon="2.21463">
        <ele>428</ele>
        <time>2017-09-17T13:27:35Z</time>
      </trkpt>
      <trkpt lat="44.38415" lon="2.21435">
        <ele>427</ele>
        <time>2017-09-17T13:27:52Z</time>
      </trkpt>
      <trkpt lat="44.38416" lon="2.2143">
        <ele>427</ele>
        <time>2017-09-17T13:27:55Z</time>
      </trkpt>
      <trkpt lat="44.3843" lon="2.21379">
        <ele>429</ele>
        <time>2017-09-17T13:28:26Z</time>
      </trkpt>
      <trkpt lat="44.38444" lon="2.21328">
        <ele>424</ele>
        <time>2017-09-17T13:28:57Z</time>
      </trkpt>
      <trkpt lat="44.3845" lon="2.213">
        <ele>425</ele>
        <time>2017-09-17T13:29:13Z</time>
      </trkpt>
      <trkpt lat="44.38451" lon="2.21293">
        <ele>425</ele>
        <time>2017-09-17T13:29:18Z</time>
      </trkpt>
      <trkpt lat="44.38454" lon="2.21282">
        <ele>425</ele>
        <time>2017-09-17T13:29:25Z</time>
      </trkpt>
      <trkpt lat="44.38455" lon="2.21278">
        <ele>425</ele>
        <time>2017-09-17T13:29:27Z</time>
      </trkpt>
      <trkpt lat="44.38456" lon="2.21274">
        <ele>425</ele>
        <time>2017-09-17T13:29:30Z</time>
      </trkpt>
      <trkpt lat="44.38458" lon="2.2127">
        <ele>425</ele>
        <time>2017-09-17T13:29:33Z</time>
      </trkpt>
      <trkpt lat="44.38459" lon="2.21265">
        <ele>425</ele>
        <time>2017-09-17T13:29:36Z</time>
      </trkpt>
      <trkpt lat="44.3846" lon="2.21259">
        <ele>425</ele>
        <time>2017-09-17T13:29:40Z</time>
      </trkpt>
      <trkpt lat="44.38461" lon="2.21254">
        <ele>425</ele>
        <time>2017-09-17T13:29:43Z</time>
      </trkpt>
      <trkpt lat="44.38462" lon="2.21249">
        <ele>425</ele>
        <time>2017-09-17T13:29:47Z</time>
      </trkpt>
      <trkpt lat="44.38463" lon="2.21245">
        <ele>425</ele>
        <time>2017-09-17T13:29:49Z</time>
      </trkpt>
      <trkpt lat="44.38466" lon="2.21237">
        <ele>425</ele>
        <time>2017-09-17T13:29:54Z</time>
      </trkpt>
      <trkpt lat="44.38468" lon="2.21225">
        <ele>425</ele>
        <time>2017-09-17T13:30:00Z</time>
      </trkpt>
      <trkpt lat="44.38469" lon="2.21217">
        <ele>426</ele>
        <time>2017-09-17T13:30:04Z</time>
      </trkpt>
      <trkpt lat="44.3847" lon="2.21213">
        <ele>426</ele>
        <time>2017-09-17T13:30:07Z</time>
      </trkpt>
      <trkpt lat="44.3847" lon="2.21207">
        <ele>426</ele>
        <time>2017-09-17T13:30:10Z</time>
      </trkpt>
      <trkpt lat="44.38468" lon="2.21188">
        <ele>426</ele>
        <time>2017-09-17T13:30:20Z</time>
      </trkpt>
      <trkpt lat="44.38467" lon="2.21185">
        <ele>426</ele>
        <time>2017-09-17T13:30:22Z</time>
      </trkpt>
      <trkpt lat="44.38466" lon="2.21181">
        <ele>426</ele>
        <time>2017-09-17T13:30:25Z</time>
      </trkpt>
      <trkpt lat="44.38463" lon="2.21173">
        <ele>426</ele>
        <time>2017-09-17T13:30:30Z</time>
      </trkpt>
      <trkpt lat="44.38462" lon="2.21169">
        <ele>426</ele>
        <time>2017-09-17T13:30:33Z</time>
      </trkpt>
      <trkpt lat="44.38457" lon="2.21162">
        <ele>428</ele>
        <time>2017-09-17T13:30:38Z</time>
      </trkpt>
      <trkpt lat="44.38454" lon="2.2116">
        <ele>428</ele>
        <time>2017-09-17T13:30:41Z</time>
      </trkpt>
      <trkpt lat="44.38451" lon="2.21159">
        <ele>428</ele>
        <time>2017-09-17T13:30:44Z</time>
      </trkpt>
      <trkpt lat="44.38441" lon="2.21158">
        <ele>427</ele>
        <time>2017-09-17T13:30:52Z</time>
      </trkpt>
      <trkpt lat="44.38431" lon="2.21156">
        <ele>427</ele>
        <time>2017-09-17T13:31:00Z</time>
      </trkpt>
      <trkpt lat="44.3841" lon="2.21157">
        <ele>426</ele>
        <time>2017-09-17T13:31:20Z</time>
      </trkpt>
      <trkpt lat="44.38398" lon="2.21153">
        <ele>426</ele>
        <time>2017-09-17T13:31:31Z</time>
      </trkpt>
      <trkpt lat="44.38395" lon="2.21151">
        <ele>426</ele>
        <time>2017-09-17T13:31:34Z</time>
      </trkpt>
      <trkpt lat="44.38392" lon="2.21147">
        <ele>426</ele>
        <time>2017-09-17T13:31:38Z</time>
      </trkpt>
      <trkpt lat="44.38389" lon="2.21142">
        <ele>426</ele>
        <time>2017-09-17T13:31:42Z</time>
      </trkpt>
      <trkpt lat="44.38387" lon="2.21138">
        <ele>426</ele>
        <time>2017-09-17T13:31:45Z</time>
      </trkpt>
      <trkpt lat="44.38386" lon="2.21131">
        <ele>426</ele>
        <time>2017-09-17T13:31:49Z</time>
      </trkpt>
      <trkpt lat="44.38387" lon="2.21125">
        <ele>426</ele>
        <time>2017-09-17T13:31:52Z</time>
      </trkpt>
      <trkpt lat="44.38392" lon="2.21116">
        <ele>427</ele>
        <time>2017-09-17T13:31:58Z</time>
      </trkpt>
      <trkpt lat="44.38393" lon="2.21112">
        <ele>427</ele>
        <time>2017-09-17T13:32:01Z</time>
      </trkpt>
      <trkpt lat="44.38395" lon="2.21109">
        <ele>427</ele>
        <time>2017-09-17T13:32:03Z</time>
      </trkpt>
      <trkpt lat="44.38401" lon="2.21104">
        <ele>427</ele>
        <time>2017-09-17T13:32:09Z</time>
      </trkpt>
      <trkpt lat="44.38404" lon="2.21101">
        <ele>428</ele>
        <time>2017-09-17T13:32:12Z</time>
      </trkpt>
      <trkpt lat="44.38406" lon="2.21098">
        <ele>428</ele>
        <time>2017-09-17T13:32:15Z</time>
      </trkpt>
      <trkpt lat="44.38433" lon="2.21071">
        <ele>431</ele>
        <time>2017-09-17T13:32:48Z</time>
      </trkpt>
      <trkpt lat="44.38438" lon="2.21064">
        <ele>431</ele>
        <time>2017-09-17T13:32:53Z</time>
      </trkpt>
      <trkpt lat="44.38441" lon="2.21061">
        <ele>431</ele>
        <time>2017-09-17T13:32:56Z</time>
      </trkpt>
      <trkpt lat="44.3845" lon="2.2105">
        <ele>431</ele>
        <time>2017-09-17T13:33:07Z</time>
      </trkpt>
      <trkpt lat="44.38454" lon="2.21046">
        <ele>431</ele>
        <time>2017-09-17T13:33:10Z</time>
      </trkpt>
      <trkpt lat="44.38457" lon="2.21043">
        <ele>431</ele>
        <time>2017-09-17T13:33:13Z</time>
      </trkpt>
      <trkpt lat="44.38459" lon="2.21038">
        <ele>431</ele>
        <time>2017-09-17T13:33:16Z</time>
      </trkpt>
      <trkpt lat="44.38461" lon="2.21034">
        <ele>431</ele>
        <time>2017-09-17T13:33:19Z</time>
      </trkpt>
      <trkpt lat="44.38471" lon="2.21019">
        <ele>432</ele>
        <time>2017-09-17T13:33:30Z</time>
      </trkpt>
      <trkpt lat="44.38487" lon="2.20992">
        <ele>435</ele>
        <time>2017-09-17T13:33:52Z</time>
      </trkpt>
      <trkpt lat="44.38494" lon="2.20977">
        <ele>435</ele>
        <time>2017-09-17T13:34:02Z</time>
      </trkpt>
      <trkpt lat="44.38499" lon="2.20968">
        <ele>435</ele>
        <time>2017-09-17T13:34:09Z</time>
      </trkpt>
      <trkpt lat="44.3852" lon="2.20935">
        <ele>440</ele>
        <time>2017-09-17T13:34:36Z</time>
      </trkpt>
      <trkpt lat="44.38522" lon="2.20932">
        <ele>440</ele>
        <time>2017-09-17T13:34:39Z</time>
      </trkpt>
      <trkpt lat="44.38532" lon="2.20916">
        <ele>444</ele>
        <time>2017-09-17T13:34:51Z</time>
      </trkpt>
      <trkpt lat="44.38536" lon="2.20909">
        <ele>444</ele>
        <time>2017-09-17T13:34:56Z</time>
      </trkpt>
      <trkpt lat="44.3854" lon="2.20902">
        <ele>445</ele>
        <time>2017-09-17T13:35:02Z</time>
      </trkpt>
      <trkpt lat="44.38542" lon="2.20898">
        <ele>445</ele>
        <time>2017-09-17T13:35:05Z</time>
      </trkpt>
      <trkpt lat="44.38544" lon="2.20894">
        <ele>445</ele>
        <time>2017-09-17T13:35:08Z</time>
      </trkpt>
      <trkpt lat="44.38559" lon="2.20874">
        <ele>446</ele>
        <time>2017-09-17T13:35:26Z</time>
      </trkpt>
      <trkpt lat="44.38561" lon="2.2087">
        <ele>446</ele>
        <time>2017-09-17T13:35:31Z</time>
      </trkpt>
      <trkpt lat="44.38562" lon="2.20866">
        <ele>447</ele>
        <time>2017-09-17T13:35:34Z</time>
      </trkpt>
      <trkpt lat="44.38564" lon="2.20864">
        <ele>447</ele>
        <time>2017-09-17T13:35:36Z</time>
      </trkpt>
      <trkpt lat="44.38571" lon="2.20854">
        <ele>448</ele>
        <time>2017-09-17T13:35:45Z</time>
      </trkpt>
      <trkpt lat="44.38572" lon="2.20851">
        <ele>448</ele>
        <time>2017-09-17T13:35:47Z</time>
      </trkpt>
      <trkpt lat="44.38588" lon="2.20829">
        <ele>453</ele>
        <time>2017-09-17T13:36:07Z</time>
      </trkpt>
      <trkpt lat="44.38591" lon="2.20825">
        <ele>454</ele>
        <time>2017-09-17T13:36:10Z</time>
      </trkpt>
      <trkpt lat="44.38596" lon="2.20817">
        <ele>455</ele>
        <time>2017-09-17T13:36:17Z</time>
      </trkpt>
      <trkpt lat="44.38618" lon="2.20782">
        <ele>457</ele>
        <time>2017-09-17T13:36:46Z</time>
      </trkpt>
      <trkpt lat="44.38624" lon="2.20776">
        <ele>458</ele>
        <time>2017-09-17T13:36:52Z</time>
      </trkpt>
      <trkpt lat="44.38648" lon="2.20743">
        <ele>463</ele>
        <time>2017-09-17T13:37:22Z</time>
      </trkpt>
      <trkpt lat="44.38665" lon="2.20723">
        <ele>464</ele>
        <time>2017-09-17T13:37:41Z</time>
      </trkpt>
      <trkpt lat="44.38668" lon="2.2072">
        <ele>467</ele>
        <time>2017-09-17T13:37:44Z</time>
      </trkpt>
      <trkpt lat="44.38673" lon="2.20713">
        <ele>467</ele>
        <time>2017-09-17T13:37:50Z</time>
      </trkpt>
      <trkpt lat="44.38676" lon="2.20711">
        <ele>467</ele>
        <time>2017-09-17T13:37:53Z</time>
      </trkpt>
      <trkpt lat="44.38693" lon="2.20691">
        <ele>469</ele>
        <time>2017-09-17T13:38:14Z</time>
      </trkpt>
      <trkpt lat="44.38705" lon="2.20674">
        <ele>469</ele>
        <time>2017-09-17T13:38:29Z</time>
      </trkpt>
      <trkpt lat="44.38727" lon="2.20646">
        <ele>476</ele>
        <time>2017-09-17T13:38:56Z</time>
      </trkpt>
      <trkpt lat="44.38751" lon="2.20612">
        <ele>482</ele>
        <time>2017-09-17T13:39:25Z</time>
      </trkpt>
      <trkpt lat="44.38752" lon="2.20611">
        <ele>482</ele>
        <time>2017-09-17T13:39:27Z</time>
      </trkpt>
      <trkpt lat="44.38754" lon="2.20607">
        <ele>482</ele>
        <time>2017-09-17T13:39:36Z</time>
      </trkpt>
      <trkpt lat="44.38781" lon="2.20578">
        <ele>487</ele>
        <time>2017-09-17T13:40:06Z</time>
      </trkpt>
      <trkpt lat="44.38793" lon="2.20564">
        <ele>487</ele>
        <time>2017-09-17T13:40:20Z</time>
      </trkpt>
      <trkpt lat="44.38795" lon="2.20561">
        <ele>487</ele>
        <time>2017-09-17T13:40:23Z</time>
      </trkpt>
      <trkpt lat="44.38803" lon="2.20552">
        <ele>488</ele>
        <time>2017-09-17T13:40:32Z</time>
      </trkpt>
      <trkpt lat="44.38805" lon="2.20547">
        <ele>488</ele>
        <time>2017-09-17T13:40:35Z</time>
      </trkpt>
      <trkpt lat="44.38808" lon="2.20544">
        <ele>488</ele>
        <time>2017-09-17T13:40:39Z</time>
      </trkpt>
      <trkpt lat="44.38817" lon="2.20528">
        <ele>489</ele>
        <time>2017-09-17T13:40:52Z</time>
      </trkpt>
      <trkpt lat="44.38836" lon="2.20482">
        <ele>495</ele>
        <time>2017-09-17T13:41:23Z</time>
      </trkpt>
      <trkpt lat="44.38846" lon="2.20443">
        <ele>497</ele>
        <time>2017-09-17T13:41:49Z</time>
      </trkpt>
      <trkpt lat="44.38856" lon="2.20394">
        <ele>502</ele>
        <time>2017-09-17T13:42:21Z</time>
      </trkpt>
      <trkpt lat="44.38864" lon="2.20341">
        <ele>504</ele>
        <time>2017-09-17T13:42:53Z</time>
      </trkpt>
      <trkpt lat="44.38864" lon="2.20337">
        <ele>504</ele>
        <time>2017-09-17T13:42:55Z</time>
      </trkpt>
      <trkpt lat="44.38865" lon="2.20335">
        <ele>504</ele>
        <time>2017-09-17T13:42:57Z</time>
      </trkpt>
      <trkpt lat="44.38865" lon="2.20332">
        <ele>506</ele>
        <time>2017-09-17T13:42:59Z</time>
      </trkpt>
      <trkpt lat="44.38865" lon="2.20323">
        <ele>506</ele>
        <time>2017-09-17T13:43:05Z</time>
      </trkpt>
      <trkpt lat="44.38867" lon="2.20313">
        <ele>506</ele>
        <time>2017-09-17T13:43:11Z</time>
      </trkpt>
      <trkpt lat="44.38868" lon="2.20301">
        <ele>506</ele>
        <time>2017-09-17T13:43:17Z</time>
      </trkpt>
      <trkpt lat="44.38872" lon="2.20287">
        <ele>506</ele>
        <time>2017-09-17T13:43:25Z</time>
      </trkpt>
      <trkpt lat="44.38877" lon="2.20278">
        <ele>507</ele>
        <time>2017-09-17T13:43:31Z</time>
      </trkpt>
      <trkpt lat="44.38879" lon="2.20274">
        <ele>507</ele>
        <time>2017-09-17T13:43:34Z</time>
      </trkpt>
      <trkpt lat="44.38892" lon="2.20251">
        <ele>508</ele>
        <time>2017-09-17T13:43:49Z</time>
      </trkpt>
      <trkpt lat="44.38917" lon="2.20215">
        <ele>511</ele>
        <time>2017-09-17T13:44:19Z</time>
      </trkpt>
      <trkpt lat="44.38942" lon="2.20176">
        <ele>511</ele>
        <time>2017-09-17T13:44:49Z</time>
      </trkpt>
      <trkpt lat="44.38958" lon="2.20152">
        <ele>510</ele>
        <time>2017-09-17T13:45:08Z</time>
      </trkpt>
      <trkpt lat="44.38959" lon="2.2015">
        <ele>510</ele>
        <time>2017-09-17T13:45:10Z</time>
      </trkpt>
      <trkpt lat="44.38972" lon="2.2013">
        <ele>510</ele>
        <time>2017-09-17T13:45:25Z</time>
      </trkpt>
      <trkpt lat="44.38983" lon="2.20114">
        <ele>510</ele>
        <time>2017-09-17T13:45:38Z</time>
      </trkpt>
      <trkpt lat="44.38985" lon="2.20111">
        <ele>510</ele>
        <time>2017-09-17T13:45:41Z</time>
      </trkpt>
      <trkpt lat="44.38987" lon="2.20109">
        <ele>510</ele>
        <time>2017-09-17T13:45:43Z</time>
      </trkpt>
      <trkpt lat="44.38993" lon="2.20102">
        <ele>510</ele>
        <time>2017-09-17T13:45:49Z</time>
      </trkpt>
      <trkpt lat="44.39005" lon="2.2008">
        <ele>512</ele>
        <time>2017-09-17T13:46:05Z</time>
      </trkpt>
      <trkpt lat="44.3901" lon="2.20074">
        <ele>511</ele>
        <time>2017-09-17T13:46:10Z</time>
      </trkpt>
      <trkpt lat="44.39025" lon="2.2005">
        <ele>511</ele>
        <time>2017-09-17T13:46:28Z</time>
      </trkpt>
      <trkpt lat="44.39028" lon="2.20046">
        <ele>510</ele>
        <time>2017-09-17T13:46:31Z</time>
      </trkpt>
      <trkpt lat="44.39031" lon="2.20041">
        <ele>510</ele>
        <time>2017-09-17T13:46:34Z</time>
      </trkpt>
      <trkpt lat="44.39034" lon="2.2004">
        <ele>510</ele>
        <time>2017-09-17T13:46:37Z</time>
      </trkpt>
      <trkpt lat="44.39035" lon="2.20036">
        <ele>510</ele>
        <time>2017-09-17T13:46:40Z</time>
      </trkpt>
      <trkpt lat="44.39038" lon="2.20033">
        <ele>510</ele>
        <time>2017-09-17T13:46:43Z</time>
      </trkpt>
      <trkpt lat="44.39045" lon="2.20019">
        <ele>510</ele>
        <time>2017-09-17T13:46:53Z</time>
      </trkpt>
      <trkpt lat="44.39047" lon="2.20014">
        <ele>510</ele>
        <time>2017-09-17T13:46:57Z</time>
      </trkpt>
      <trkpt lat="44.39054" lon="2.19999">
        <ele>509</ele>
        <time>2017-09-17T13:47:06Z</time>
      </trkpt>
      <trkpt lat="44.39056" lon="2.19996">
        <ele>509</ele>
        <time>2017-09-17T13:47:09Z</time>
      </trkpt>
      <trkpt lat="44.39066" lon="2.19972">
        <ele>509</ele>
        <time>2017-09-17T13:47:24Z</time>
      </trkpt>
      <trkpt lat="44.39067" lon="2.1997">
        <ele>509</ele>
        <time>2017-09-17T13:47:26Z</time>
      </trkpt>
      <trkpt lat="44.39072" lon="2.19957">
        <ele>509</ele>
        <time>2017-09-17T13:47:34Z</time>
      </trkpt>
      <trkpt lat="44.39074" lon="2.19952">
        <ele>509</ele>
        <time>2017-09-17T13:47:37Z</time>
      </trkpt>
      <trkpt lat="44.39075" lon="2.19948">
        <ele>509</ele>
        <time>2017-09-17T13:47:40Z</time>
      </trkpt>
      <trkpt lat="44.39076" lon="2.19944">
        <ele>509</ele>
        <time>2017-09-17T13:47:43Z</time>
      </trkpt>
      <trkpt lat="44.39079" lon="2.19941">
        <ele>509</ele>
        <time>2017-09-17T13:47:46Z</time>
      </trkpt>
      <trkpt lat="44.39082" lon="2.19937">
        <ele>509</ele>
        <time>2017-09-17T13:47:49Z</time>
      </trkpt>
      <trkpt lat="44.39085" lon="2.19928">
        <ele>509</ele>
        <time>2017-09-17T13:47:54Z</time>
      </trkpt>
      <trkpt lat="44.39085" lon="2.19925">
        <ele>510</ele>
        <time>2017-09-17T13:47:56Z</time>
      </trkpt>
      <trkpt lat="44.39084" lon="2.19915">
        <ele>511</ele>
        <time>2017-09-17T13:48:03Z</time>
      </trkpt>
      <trkpt lat="44.39083" lon="2.19912">
        <ele>510</ele>
        <time>2017-09-17T13:48:05Z</time>
      </trkpt>
      <trkpt lat="44.39083" lon="2.19879">
        <ele>507</ele>
        <time>2017-09-17T13:48:26Z</time>
      </trkpt>
      <trkpt lat="44.39083" lon="2.19873">
        <ele>506</ele>
        <time>2017-09-17T13:48:30Z</time>
      </trkpt>
      <trkpt lat="44.39079" lon="2.19823">
        <ele>505</ele>
        <time>2017-09-17T13:49:01Z</time>
      </trkpt>
      <trkpt lat="44.39073" lon="2.19767">
        <ele>503</ele>
        <time>2017-09-17T13:49:32Z</time>
      </trkpt>
      <trkpt lat="44.39071" lon="2.19753">
        <ele>503</ele>
        <time>2017-09-17T13:49:42Z</time>
      </trkpt>
      <trkpt lat="44.39068" lon="2.19746">
        <ele>501</ele>
        <time>2017-09-17T13:49:47Z</time>
      </trkpt>
      <trkpt lat="44.39065" lon="2.19734">
        <ele>501</ele>
        <time>2017-09-17T13:49:55Z</time>
      </trkpt>
      <trkpt lat="44.39048" lon="2.19687">
        <ele>499</ele>
        <time>2017-09-17T13:50:25Z</time>
      </trkpt>
      <trkpt lat="44.39034" lon="2.19641">
        <ele>495</ele>
        <time>2017-09-17T13:50:55Z</time>
      </trkpt>
      <trkpt lat="44.39031" lon="2.19634">
        <ele>495</ele>
        <time>2017-09-17T13:50:59Z</time>
      </trkpt>
      <trkpt lat="44.3903" lon="2.19631">
        <ele>495</ele>
        <time>2017-09-17T13:51:01Z</time>
      </trkpt>
      <trkpt lat="44.39027" lon="2.19624">
        <ele>495</ele>
        <time>2017-09-17T13:51:06Z</time>
      </trkpt>
      <trkpt lat="44.39012" lon="2.19577">
        <ele>493</ele>
        <time>2017-09-17T13:51:36Z</time>
      </trkpt>
      <trkpt lat="44.38998" lon="2.19531">
        <ele>494</ele>
        <time>2017-09-17T13:52:06Z</time>
      </trkpt>
      <trkpt lat="44.38985" lon="2.19488">
        <ele>495</ele>
        <time>2017-09-17T13:52:32Z</time>
      </trkpt>
      <trkpt lat="44.3898" lon="2.19448">
        <ele>495</ele>
        <time>2017-09-17T13:52:55Z</time>
      </trkpt>
      <trkpt lat="44.3898" lon="2.19428">
        <ele>495</ele>
        <time>2017-09-17T13:53:07Z</time>
      </trkpt>
      <trkpt lat="44.38984" lon="2.19396">
        <ele>495</ele>
        <time>2017-09-17T13:53:28Z</time>
      </trkpt>
      <trkpt lat="44.38986" lon="2.19366">
        <ele>495</ele>
        <time>2017-09-17T13:53:45Z</time>
      </trkpt>
      <trkpt lat="44.38986" lon="2.19359">
        <ele>495</ele>
        <time>2017-09-17T13:53:49Z</time>
      </trkpt>
      <trkpt lat="44.38986" lon="2.19354">
        <ele>495</ele>
        <time>2017-09-17T13:53:51Z</time>
      </trkpt>
      <trkpt lat="44.38988" lon="2.19344">
        <ele>495</ele>
        <time>2017-09-17T13:53:57Z</time>
      </trkpt>
      <trkpt lat="44.38988" lon="2.19285">
        <ele>494</ele>
        <time>2017-09-17T13:54:28Z</time>
      </trkpt>
      <trkpt lat="44.38987" lon="2.19241">
        <ele>492</ele>
        <time>2017-09-17T13:54:52Z</time>
      </trkpt>
      <trkpt lat="44.38987" lon="2.19238">
        <ele>492</ele>
        <time>2017-09-17T13:54:54Z</time>
      </trkpt>
      <trkpt lat="44.38989" lon="2.19237">
        <ele>492</ele>
        <time>2017-09-17T13:54:56Z</time>
      </trkpt>
      <trkpt lat="44.3899" lon="2.19233">
        <ele>492</ele>
        <time>2017-09-17T13:55:02Z</time>
      </trkpt>
      <trkpt lat="44.38991" lon="2.19231">
        <ele>492</ele>
        <time>2017-09-17T13:55:07Z</time>
      </trkpt>
      <trkpt lat="44.38992" lon="2.19239">
        <ele>492</ele>
        <time>2017-09-17T13:55:28Z</time>
      </trkpt>
      <trkpt lat="44.3899" lon="2.19242">
        <ele>492</ele>
        <time>2017-09-17T13:55:38Z</time>
      </trkpt>
      <trkpt lat="44.38989" lon="2.19247">
        <ele>492</ele>
        <time>2017-09-17T13:55:42Z</time>
      </trkpt>
      <trkpt lat="44.3899" lon="2.19246">
        <ele>492</ele>
        <time>2017-09-17T13:57:32Z</time>
      </trkpt>
      <trkpt lat="44.3899" lon="2.1924">
        <ele>492</ele>
        <time>2017-09-17T13:57:35Z</time>
      </trkpt>
      <trkpt lat="44.38993" lon="2.19234">
        <ele>492</ele>
        <time>2017-09-17T13:57:40Z</time>
      </trkpt>
      <trkpt lat="44.38992" lon="2.19232">
        <ele>492</ele>
        <time>2017-09-17T13:58:26Z</time>
      </trkpt>
      <trkpt lat="44.38991" lon="2.19229">
        <ele>491</ele>
        <time>2017-09-17T13:58:38Z</time>
      </trkpt>
      <trkpt lat="44.38986" lon="2.19189">
        <ele>490</ele>
        <time>2017-09-17T13:59:09Z</time>
      </trkpt>
      <trkpt lat="44.38985" lon="2.19142">
        <ele>487</ele>
        <time>2017-09-17T13:59:39Z</time>
      </trkpt>
      <trkpt lat="44.38985" lon="2.1909">
        <ele>486</ele>
        <time>2017-09-17T14:00:10Z</time>
      </trkpt>
      <trkpt lat="44.38985" lon="2.19085">
        <ele>486</ele>
        <time>2017-09-17T14:00:13Z</time>
      </trkpt>
      <trkpt lat="44.38984" lon="2.19071">
        <ele>484</ele>
        <time>2017-09-17T14:00:22Z</time>
      </trkpt>
      <trkpt lat="44.38986" lon="2.19049">
        <ele>483</ele>
        <time>2017-09-17T14:00:35Z</time>
      </trkpt>
      <trkpt lat="44.38987" lon="2.19041">
        <ele>483</ele>
        <time>2017-09-17T14:00:43Z</time>
      </trkpt>
      <trkpt lat="44.38989" lon="2.19031">
        <ele>483</ele>
        <time>2017-09-17T14:00:51Z</time>
      </trkpt>
      <trkpt lat="44.38996" lon="2.19014">
        <ele>483</ele>
        <time>2017-09-17T14:01:02Z</time>
      </trkpt>
      <trkpt lat="44.39006" lon="2.18964">
        <ele>483</ele>
        <time>2017-09-17T14:01:30Z</time>
      </trkpt>
      <trkpt lat="44.39008" lon="2.18959">
        <ele>482</ele>
        <time>2017-09-17T14:01:33Z</time>
      </trkpt>
      <trkpt lat="44.3901" lon="2.18954">
        <ele>482</ele>
        <time>2017-09-17T14:01:36Z</time>
      </trkpt>
      <trkpt lat="44.39011" lon="2.1895">
        <ele>482</ele>
        <time>2017-09-17T14:01:39Z</time>
      </trkpt>
      <trkpt lat="44.39029" lon="2.18903">
        <ele>479</ele>
        <time>2017-09-17T14:02:10Z</time>
      </trkpt>
      <trkpt lat="44.39029" lon="2.18901">
        <ele>479</ele>
        <time>2017-09-17T14:02:11Z</time>
      </trkpt>
      <trkpt lat="44.3903" lon="2.18899">
        <ele>479</ele>
        <time>2017-09-17T14:02:12Z</time>
      </trkpt>
      <trkpt lat="44.39051" lon="2.18858">
        <ele>478</ele>
        <time>2017-09-17T14:02:42Z</time>
      </trkpt>
      <trkpt lat="44.3907" lon="2.18815">
        <ele>475</ele>
        <time>2017-09-17T14:03:12Z</time>
      </trkpt>
      <trkpt lat="44.39072" lon="2.18811">
        <ele>475</ele>
        <time>2017-09-17T14:03:15Z</time>
      </trkpt>
      <trkpt lat="44.39073" lon="2.18808">
        <ele>475</ele>
        <time>2017-09-17T14:03:17Z</time>
      </trkpt>
      <trkpt lat="44.39088" lon="2.18774">
        <ele>476</ele>
        <time>2017-09-17T14:03:39Z</time>
      </trkpt>
      <trkpt lat="44.3911" lon="2.18723">
        <ele>474</ele>
        <time>2017-09-17T14:04:11Z</time>
      </trkpt>
      <trkpt lat="44.39125" lon="2.18688">
        <ele>474</ele>
        <time>2017-09-17T14:04:38Z</time>
      </trkpt>
      <trkpt lat="44.39128" lon="2.18676">
        <ele>474</ele>
        <time>2017-09-17T14:04:45Z</time>
      </trkpt>
      <trkpt lat="44.39128" lon="2.18668">
        <ele>473</ele>
        <time>2017-09-17T14:04:49Z</time>
      </trkpt>
      <trkpt lat="44.39125" lon="2.18651">
        <ele>471</ele>
        <time>2017-09-17T14:05:00Z</time>
      </trkpt>
      <trkpt lat="44.39122" lon="2.18643">
        <ele>471</ele>
        <time>2017-09-17T14:05:05Z</time>
      </trkpt>
      <trkpt lat="44.39121" lon="2.1864">
        <ele>471</ele>
        <time>2017-09-17T14:05:07Z</time>
      </trkpt>
      <trkpt lat="44.39112" lon="2.18616">
        <ele>471</ele>
        <time>2017-09-17T14:05:22Z</time>
      </trkpt>
      <trkpt lat="44.3911" lon="2.18606">
        <ele>471</ele>
        <time>2017-09-17T14:05:30Z</time>
      </trkpt>
      <trkpt lat="44.39091" lon="2.18554">
        <ele>471</ele>
        <time>2017-09-17T14:06:02Z</time>
      </trkpt>
      <trkpt lat="44.39084" lon="2.18539">
        <ele>471</ele>
        <time>2017-09-17T14:06:12Z</time>
      </trkpt>
      <trkpt lat="44.3908" lon="2.18526">
        <ele>471</ele>
        <time>2017-09-17T14:06:21Z</time>
      </trkpt>
      <trkpt lat="44.39074" lon="2.18515">
        <ele>471</ele>
        <time>2017-09-17T14:06:30Z</time>
      </trkpt>
      <trkpt lat="44.39069" lon="2.18503">
        <ele>471</ele>
        <time>2017-09-17T14:06:38Z</time>
      </trkpt>
      <trkpt lat="44.39067" lon="2.185">
        <ele>471</ele>
        <time>2017-09-17T14:06:40Z</time>
      </trkpt>
      <trkpt lat="44.39059" lon="2.1849">
        <ele>472</ele>
        <time>2017-09-17T14:06:49Z</time>
      </trkpt>
      <trkpt lat="44.39053" lon="2.18483">
        <ele>472</ele>
        <time>2017-09-17T14:06:55Z</time>
      </trkpt>
      <trkpt lat="44.39045" lon="2.18471">
        <ele>472</ele>
        <time>2017-09-17T14:07:04Z</time>
      </trkpt>
      <trkpt lat="44.39017" lon="2.18429">
        <ele>473</ele>
        <time>2017-09-17T14:07:36Z</time>
      </trkpt>
      <trkpt lat="44.38991" lon="2.1839">
        <ele>475</ele>
        <time>2017-09-17T14:08:04Z</time>
      </trkpt>
      <trkpt lat="44.38989" lon="2.18389">
        <ele>475</ele>
        <time>2017-09-17T14:08:06Z</time>
      </trkpt>
      <trkpt lat="44.38988" lon="2.18387">
        <ele>475</ele>
        <time>2017-09-17T14:08:08Z</time>
      </trkpt>
      <trkpt lat="44.38985" lon="2.1838">
        <ele>475</ele>
        <time>2017-09-17T14:08:12Z</time>
      </trkpt>
      <trkpt lat="44.38986" lon="2.18328">
        <ele>476</ele>
        <time>2017-09-17T14:08:42Z</time>
      </trkpt>
      <trkpt lat="44.38986" lon="2.18303">
        <ele>477</ele>
        <time>2017-09-17T14:08:56Z</time>
      </trkpt>
      <trkpt lat="44.38987" lon="2.18298">
        <ele>477</ele>
        <time>2017-09-17T14:08:59Z</time>
      </trkpt>
      <trkpt lat="44.38987" lon="2.18281">
        <ele>476</ele>
        <time>2017-09-17T14:09:08Z</time>
      </trkpt>
      <trkpt lat="44.38991" lon="2.18262">
        <ele>476</ele>
        <time>2017-09-17T14:09:18Z</time>
      </trkpt>
      <trkpt lat="44.38993" lon="2.18257">
        <ele>475</ele>
        <time>2017-09-17T14:09:21Z</time>
      </trkpt>
      <trkpt lat="44.38995" lon="2.18251">
        <ele>475</ele>
        <time>2017-09-17T14:09:25Z</time>
      </trkpt>
      <trkpt lat="44.38999" lon="2.18237">
        <ele>475</ele>
        <time>2017-09-17T14:09:34Z</time>
      </trkpt>
      <trkpt lat="44.39001" lon="2.18232">
        <ele>473</ele>
        <time>2017-09-17T14:09:37Z</time>
      </trkpt>
      <trkpt lat="44.39003" lon="2.18229">
        <ele>473</ele>
        <time>2017-09-17T14:09:41Z</time>
      </trkpt>
      <trkpt lat="44.39003" lon="2.18224">
        <ele>473</ele>
        <time>2017-09-17T14:09:45Z</time>
      </trkpt>
      <trkpt lat="44.39003" lon="2.18219">
        <ele>472</ele>
        <time>2017-09-17T14:09:48Z</time>
      </trkpt>
      <trkpt lat="44.39005" lon="2.18215">
        <ele>472</ele>
        <time>2017-09-17T14:09:51Z</time>
      </trkpt>
      <trkpt lat="44.39009" lon="2.18206">
        <ele>472</ele>
        <time>2017-09-17T14:09:57Z</time>
      </trkpt>
      <trkpt lat="44.39011" lon="2.18202">
        <ele>472</ele>
        <time>2017-09-17T14:10:00Z</time>
      </trkpt>
      <trkpt lat="44.39017" lon="2.18195">
        <ele>472</ele>
        <time>2017-09-17T14:10:06Z</time>
      </trkpt>
      <trkpt lat="44.39051" lon="2.18163">
        <ele>472</ele>
        <time>2017-09-17T14:10:37Z</time>
      </trkpt>
      <trkpt lat="44.39081" lon="2.18146">
        <ele>471</ele>
        <time>2017-09-17T14:11:01Z</time>
      </trkpt>
      <trkpt lat="44.39119" lon="2.1813">
        <ele>466</ele>
        <time>2017-09-17T14:11:31Z</time>
      </trkpt>
      <trkpt lat="44.39127" lon="2.18126">
        <ele>465</ele>
        <time>2017-09-17T14:11:39Z</time>
      </trkpt>
      <trkpt lat="44.3913" lon="2.18124">
        <ele>465</ele>
        <time>2017-09-17T14:11:41Z</time>
      </trkpt>
      <trkpt lat="44.39131" lon="2.18122">
        <ele>465</ele>
        <time>2017-09-17T14:11:43Z</time>
      </trkpt>
      <trkpt lat="44.39132" lon="2.18118">
        <ele>465</ele>
        <time>2017-09-17T14:11:45Z</time>
      </trkpt>
      <trkpt lat="44.39136" lon="2.18098">
        <ele>465</ele>
        <time>2017-09-17T14:11:58Z</time>
      </trkpt>
      <trkpt lat="44.39142" lon="2.18081">
        <ele>464</ele>
        <time>2017-09-17T14:12:08Z</time>
      </trkpt>
      <trkpt lat="44.39148" lon="2.18076">
        <ele>463</ele>
        <time>2017-09-17T14:12:14Z</time>
      </trkpt>
      <trkpt lat="44.39153" lon="2.18072">
        <ele>463</ele>
        <time>2017-09-17T14:12:19Z</time>
      </trkpt>
      <trkpt lat="44.39158" lon="2.18066">
        <ele>463</ele>
        <time>2017-09-17T14:12:25Z</time>
      </trkpt>
      <trkpt lat="44.39164" lon="2.18053">
        <ele>463</ele>
        <time>2017-09-17T14:12:34Z</time>
      </trkpt>
      <trkpt lat="44.39166" lon="2.18048">
        <ele>463</ele>
        <time>2017-09-17T14:12:37Z</time>
      </trkpt>
      <trkpt lat="44.39168" lon="2.18044">
        <ele>459</ele>
        <time>2017-09-17T14:12:40Z</time>
      </trkpt>
      <trkpt lat="44.3917" lon="2.18038">
        <ele>459</ele>
        <time>2017-09-17T14:12:43Z</time>
      </trkpt>
      <trkpt lat="44.39171" lon="2.18033">
        <ele>458</ele>
        <time>2017-09-17T14:12:46Z</time>
      </trkpt>
      <trkpt lat="44.39186" lon="2.17979">
        <ele>456</ele>
        <time>2017-09-17T14:13:16Z</time>
      </trkpt>
      <trkpt lat="44.39196" lon="2.17932">
        <ele>456</ele>
        <time>2017-09-17T14:13:44Z</time>
      </trkpt>
      <trkpt lat="44.39208" lon="2.17883">
        <ele>456</ele>
        <time>2017-09-17T14:14:14Z</time>
      </trkpt>
      <trkpt lat="44.39211" lon="2.1787">
        <ele>456</ele>
        <time>2017-09-17T14:14:22Z</time>
      </trkpt>
      <trkpt lat="44.39213" lon="2.17855">
        <ele>456</ele>
        <time>2017-09-17T14:14:30Z</time>
      </trkpt>
      <trkpt lat="44.39214" lon="2.17852">
        <ele>456</ele>
        <time>2017-09-17T14:14:35Z</time>
      </trkpt>
      <trkpt lat="44.39215" lon="2.17846">
        <ele>456</ele>
        <time>2017-09-17T14:14:39Z</time>
      </trkpt>
      <trkpt lat="44.39217" lon="2.17837">
        <ele>456</ele>
        <time>2017-09-17T14:14:46Z</time>
      </trkpt>
      <trkpt lat="44.39217" lon="2.17827">
        <ele>458</ele>
        <time>2017-09-17T14:14:52Z</time>
      </trkpt>
      <trkpt lat="44.3922" lon="2.17814">
        <ele>458</ele>
        <time>2017-09-17T14:14:59Z</time>
      </trkpt>
      <trkpt lat="44.39219" lon="2.17793">
        <ele>458</ele>
        <time>2017-09-17T14:15:10Z</time>
      </trkpt>
      <trkpt lat="44.39219" lon="2.17789">
        <ele>458</ele>
        <time>2017-09-17T14:15:13Z</time>
      </trkpt>
      <trkpt lat="44.39218" lon="2.17776">
        <ele>459</ele>
        <time>2017-09-17T14:15:20Z</time>
      </trkpt>
      <trkpt lat="44.39219" lon="2.17771">
        <ele>459</ele>
        <time>2017-09-17T14:15:23Z</time>
      </trkpt>
      <trkpt lat="44.39219" lon="2.17761">
        <ele>459</ele>
        <time>2017-09-17T14:15:29Z</time>
      </trkpt>
      <trkpt lat="44.39218" lon="2.17755">
        <ele>459</ele>
        <time>2017-09-17T14:15:32Z</time>
      </trkpt>
      <trkpt lat="44.39217" lon="2.1775">
        <ele>460</ele>
        <time>2017-09-17T14:15:35Z</time>
      </trkpt>
      <trkpt lat="44.39218" lon="2.17746">
        <ele>460</ele>
        <time>2017-09-17T14:15:38Z</time>
      </trkpt>
      <trkpt lat="44.39217" lon="2.17741">
        <ele>460</ele>
        <time>2017-09-17T14:15:41Z</time>
      </trkpt>
      <trkpt lat="44.39218" lon="2.17736">
        <ele>461</ele>
        <time>2017-09-17T14:15:44Z</time>
      </trkpt>
      <trkpt lat="44.39216" lon="2.17708">
        <ele>461</ele>
        <time>2017-09-17T14:15:59Z</time>
      </trkpt>
      <trkpt lat="44.39216" lon="2.17704">
        <ele>461</ele>
        <time>2017-09-17T14:16:01Z</time>
      </trkpt>
      <trkpt lat="44.39216" lon="2.17701">
        <ele>461</ele>
        <time>2017-09-17T14:16:03Z</time>
      </trkpt>
      <trkpt lat="44.39215" lon="2.17693">
        <ele>461</ele>
        <time>2017-09-17T14:16:07Z</time>
      </trkpt>
      <trkpt lat="44.39212" lon="2.17646">
        <ele>463</ele>
        <time>2017-09-17T14:16:37Z</time>
      </trkpt>
      <trkpt lat="44.39212" lon="2.17595">
        <ele>464</ele>
        <time>2017-09-17T14:17:08Z</time>
      </trkpt>
      <trkpt lat="44.3921" lon="2.17559">
        <ele>466</ele>
        <time>2017-09-17T14:17:28Z</time>
      </trkpt>
      <trkpt lat="44.3921" lon="2.17548">
        <ele>466</ele>
        <time>2017-09-17T14:17:34Z</time>
      </trkpt>
      <trkpt lat="44.39209" lon="2.1753">
        <ele>467</ele>
        <time>2017-09-17T14:17:45Z</time>
      </trkpt>
      <trkpt lat="44.39208" lon="2.17526">
        <ele>467</ele>
        <time>2017-09-17T14:17:48Z</time>
      </trkpt>
      <trkpt lat="44.39208" lon="2.1752">
        <ele>467</ele>
        <time>2017-09-17T14:17:52Z</time>
      </trkpt>
      <trkpt lat="44.39203" lon="2.17493">
        <ele>470</ele>
        <time>2017-09-17T14:18:08Z</time>
      </trkpt>
      <trkpt lat="44.39195" lon="2.1745">
        <ele>472</ele>
        <time>2017-09-17T14:18:37Z</time>
      </trkpt>
      <trkpt lat="44.39194" lon="2.17442">
        <ele>472</ele>
        <time>2017-09-17T14:18:43Z</time>
      </trkpt>
      <trkpt lat="44.39196" lon="2.17433">
        <ele>472</ele>
        <time>2017-09-17T14:18:48Z</time>
      </trkpt>
      <trkpt lat="44.39205" lon="2.17417">
        <ele>472</ele>
        <time>2017-09-17T14:19:02Z</time>
      </trkpt>
      <trkpt lat="44.39208" lon="2.17414">
        <ele>477</ele>
        <time>2017-09-17T14:19:05Z</time>
      </trkpt>
      <trkpt lat="44.39224" lon="2.17394">
        <ele>478</ele>
        <time>2017-09-17T14:19:22Z</time>
      </trkpt>
      <trkpt lat="44.39233" lon="2.17387">
        <ele>478</ele>
        <time>2017-09-17T14:19:30Z</time>
      </trkpt>
      <trkpt lat="44.39236" lon="2.17385">
        <ele>478</ele>
        <time>2017-09-17T14:19:33Z</time>
      </trkpt>
      <trkpt lat="44.39243" lon="2.17382">
        <ele>478</ele>
        <time>2017-09-17T14:19:39Z</time>
      </trkpt>
      <trkpt lat="44.3928" lon="2.17371">
        <ele>479</ele>
        <time>2017-09-17T14:20:10Z</time>
      </trkpt>
      <trkpt lat="44.39313" lon="2.17355">
        <ele>480</ele>
        <time>2017-09-17T14:20:40Z</time>
      </trkpt>
      <trkpt lat="44.39318" lon="2.1735">
        <ele>480</ele>
        <time>2017-09-17T14:20:46Z</time>
      </trkpt>
      <trkpt lat="44.39321" lon="2.17346">
        <ele>481</ele>
        <time>2017-09-17T14:20:50Z</time>
      </trkpt>
      <trkpt lat="44.39324" lon="2.17337">
        <ele>482</ele>
        <time>2017-09-17T14:20:56Z</time>
      </trkpt>
      <trkpt lat="44.39325" lon="2.17328">
        <ele>483</ele>
        <time>2017-09-17T14:21:02Z</time>
      </trkpt>
      <trkpt lat="44.39324" lon="2.17318">
        <ele>484</ele>
        <time>2017-09-17T14:21:08Z</time>
      </trkpt>
      <trkpt lat="44.39322" lon="2.17309">
        <ele>484</ele>
        <time>2017-09-17T14:21:14Z</time>
      </trkpt>
      <trkpt lat="44.39314" lon="2.17279">
        <ele>484</ele>
        <time>2017-09-17T14:21:33Z</time>
      </trkpt>
      <trkpt lat="44.39313" lon="2.17275">
        <ele>484</ele>
        <time>2017-09-17T14:21:36Z</time>
      </trkpt>
      <trkpt lat="44.39295" lon="2.17228">
        <ele>486</ele>
        <time>2017-09-17T14:22:07Z</time>
      </trkpt>
      <trkpt lat="44.39292" lon="2.17219">
        <ele>487</ele>
        <time>2017-09-17T14:22:13Z</time>
      </trkpt>
      <trkpt lat="44.3928" lon="2.17164">
        <ele>489</ele>
        <time>2017-09-17T14:22:45Z</time>
      </trkpt>
      <trkpt lat="44.39273" lon="2.1711">
        <ele>490</ele>
        <time>2017-09-17T14:23:16Z</time>
      </trkpt>
      <trkpt lat="44.39272" lon="2.17104">
        <ele>490</ele>
        <time>2017-09-17T14:23:19Z</time>
      </trkpt>
      <trkpt lat="44.39271" lon="2.17098">
        <ele>490</ele>
        <time>2017-09-17T14:23:23Z</time>
      </trkpt>
      <trkpt lat="44.39271" lon="2.17093">
        <ele>490</ele>
        <time>2017-09-17T14:23:26Z</time>
      </trkpt>
      <trkpt lat="44.39269" lon="2.17087">
        <ele>491</ele>
        <time>2017-09-17T14:23:29Z</time>
      </trkpt>
      <trkpt lat="44.39267" lon="2.17071">
        <ele>490</ele>
        <time>2017-09-17T14:23:40Z</time>
      </trkpt>
      <trkpt lat="44.39267" lon="2.17064">
        <ele>490</ele>
        <time>2017-09-17T14:23:44Z</time>
      </trkpt>
      <trkpt lat="44.39266" lon="2.17058">
        <ele>490</ele>
        <time>2017-09-17T14:23:47Z</time>
      </trkpt>
      <trkpt lat="44.39263" lon="2.17053">
        <ele>490</ele>
        <time>2017-09-17T14:23:52Z</time>
      </trkpt>
      <trkpt lat="44.39262" lon="2.17047">
        <ele>490</ele>
        <time>2017-09-17T14:23:57Z</time>
      </trkpt>
      <trkpt lat="44.39261" lon="2.17042">
        <ele>490</ele>
        <time>2017-09-17T14:24:03Z</time>
      </trkpt>
      <trkpt lat="44.39257" lon="2.1703">
        <ele>490</ele>
        <time>2017-09-17T14:24:12Z</time>
      </trkpt>
      <trkpt lat="44.39253" lon="2.17007">
        <ele>492</ele>
        <time>2017-09-17T14:24:26Z</time>
      </trkpt>
      <trkpt lat="44.39253" lon="2.16991">
        <ele>491</ele>
        <time>2017-09-17T14:24:35Z</time>
      </trkpt>
      <trkpt lat="44.39252" lon="2.16986">
        <ele>490</ele>
        <time>2017-09-17T14:24:38Z</time>
      </trkpt>
      <trkpt lat="44.3925" lon="2.16976">
        <ele>489</ele>
        <time>2017-09-17T14:24:43Z</time>
      </trkpt>
      <trkpt lat="44.39249" lon="2.16969">
        <ele>490</ele>
        <time>2017-09-17T14:24:47Z</time>
      </trkpt>
      <trkpt lat="44.39248" lon="2.16964">
        <ele>490</ele>
        <time>2017-09-17T14:24:50Z</time>
      </trkpt>
      <trkpt lat="44.39242" lon="2.16929">
        <ele>489</ele>
        <time>2017-09-17T14:25:09Z</time>
      </trkpt>
      <trkpt lat="44.39241" lon="2.16923">
        <ele>489</ele>
        <time>2017-09-17T14:25:13Z</time>
      </trkpt>
      <trkpt lat="44.39241" lon="2.16919">
        <ele>489</ele>
        <time>2017-09-17T14:25:19Z</time>
      </trkpt>
      <trkpt lat="44.39241" lon="2.16908">
        <ele>487</ele>
        <time>2017-09-17T14:25:26Z</time>
      </trkpt>
      <trkpt lat="44.39241" lon="2.16904">
        <ele>487</ele>
        <time>2017-09-17T14:25:29Z</time>
      </trkpt>
      <trkpt lat="44.39242" lon="2.16883">
        <ele>485</ele>
        <time>2017-09-17T14:25:39Z</time>
      </trkpt>
      <trkpt lat="44.39244" lon="2.16865">
        <ele>485</ele>
        <time>2017-09-17T14:25:48Z</time>
      </trkpt>
      <trkpt lat="44.39249" lon="2.16816">
        <ele>483</ele>
        <time>2017-09-17T14:26:13Z</time>
      </trkpt>
      <trkpt lat="44.3925" lon="2.16813">
        <ele>483</ele>
        <time>2017-09-17T14:26:15Z</time>
      </trkpt>
      <trkpt lat="44.3925" lon="2.16801">
        <ele>482</ele>
        <time>2017-09-17T14:26:25Z</time>
      </trkpt>
      <trkpt lat="44.39259" lon="2.16755">
        <ele>480</ele>
        <time>2017-09-17T14:26:54Z</time>
      </trkpt>
      <trkpt lat="44.3926" lon="2.16751">
        <ele>480</ele>
        <time>2017-09-17T14:26:57Z</time>
      </trkpt>
      <trkpt lat="44.39262" lon="2.16737">
        <ele>478</ele>
        <time>2017-09-17T14:27:06Z</time>
      </trkpt>
      <trkpt lat="44.39262" lon="2.16732">
        <ele>477</ele>
        <time>2017-09-17T14:27:08Z</time>
      </trkpt>
      <trkpt lat="44.39263" lon="2.16718">
        <ele>477</ele>
        <time>2017-09-17T14:27:16Z</time>
      </trkpt>
      <trkpt lat="44.39263" lon="2.16713">
        <ele>476</ele>
        <time>2017-09-17T14:27:19Z</time>
      </trkpt>
      <trkpt lat="44.39262" lon="2.16698">
        <ele>476</ele>
        <time>2017-09-17T14:27:27Z</time>
      </trkpt>
      <trkpt lat="44.39262" lon="2.16691">
        <ele>476</ele>
        <time>2017-09-17T14:27:31Z</time>
      </trkpt>
      <trkpt lat="44.39262" lon="2.16688">
        <ele>475</ele>
        <time>2017-09-17T14:27:33Z</time>
      </trkpt>
      <trkpt lat="44.39261" lon="2.16658">
        <ele>474</ele>
        <time>2017-09-17T14:27:51Z</time>
      </trkpt>
      <trkpt lat="44.39262" lon="2.16652">
        <ele>473</ele>
        <time>2017-09-17T14:27:54Z</time>
      </trkpt>
      <trkpt lat="44.39262" lon="2.16645">
        <ele>473</ele>
        <time>2017-09-17T14:28:00Z</time>
      </trkpt>
      <trkpt lat="44.39261" lon="2.1663">
        <ele>472</ele>
        <time>2017-09-17T14:28:08Z</time>
      </trkpt>
      <trkpt lat="44.39259" lon="2.16586">
        <ele>472</ele>
        <time>2017-09-17T14:28:35Z</time>
      </trkpt>
      <trkpt lat="44.39259" lon="2.16581">
        <ele>471</ele>
        <time>2017-09-17T14:28:38Z</time>
      </trkpt>
      <trkpt lat="44.39259" lon="2.16572">
        <ele>471</ele>
        <time>2017-09-17T14:28:44Z</time>
      </trkpt>
      <trkpt lat="44.39256" lon="2.1655">
        <ele>470</ele>
        <time>2017-09-17T14:28:54Z</time>
      </trkpt>
      <trkpt lat="44.39256" lon="2.16514">
        <ele>470</ele>
        <time>2017-09-17T14:29:14Z</time>
      </trkpt>
      <trkpt lat="44.39255" lon="2.16479">
        <ele>468</ele>
        <time>2017-09-17T14:29:34Z</time>
      </trkpt>
      <trkpt lat="44.39254" lon="2.16468">
        <ele>467</ele>
        <time>2017-09-17T14:29:40Z</time>
      </trkpt>
      <trkpt lat="44.39254" lon="2.16465">
        <ele>467</ele>
        <time>2017-09-17T14:29:42Z</time>
      </trkpt>
      <trkpt lat="44.39254" lon="2.16462">
        <ele>467</ele>
        <time>2017-09-17T14:29:44Z</time>
      </trkpt>
      <trkpt lat="44.39254" lon="2.1645">
        <ele>467</ele>
        <time>2017-09-17T14:29:52Z</time>
      </trkpt>
      <trkpt lat="44.39246" lon="2.1641">
        <ele>465</ele>
        <time>2017-09-17T14:30:20Z</time>
      </trkpt>
      <trkpt lat="44.39246" lon="2.16399">
        <ele>464</ele>
        <time>2017-09-17T14:30:26Z</time>
      </trkpt>
      <trkpt lat="44.39248" lon="2.16381">
        <ele>463</ele>
        <time>2017-09-17T14:30:37Z</time>
      </trkpt>
      <trkpt lat="44.39257" lon="2.16369">
        <ele>462</ele>
        <time>2017-09-17T14:30:47Z</time>
      </trkpt>
      <trkpt lat="44.39259" lon="2.16365">
        <ele>462</ele>
        <time>2017-09-17T14:30:50Z</time>
      </trkpt>
      <trkpt lat="44.39276" lon="2.16334">
        <ele>461</ele>
        <time>2017-09-17T14:31:14Z</time>
      </trkpt>
      <trkpt lat="44.39278" lon="2.1633">
        <ele>458</ele>
        <time>2017-09-17T14:31:17Z</time>
      </trkpt>
      <trkpt lat="44.39279" lon="2.16318">
        <ele>457</ele>
        <time>2017-09-17T14:31:23Z</time>
      </trkpt>
      <trkpt lat="44.3928" lon="2.16302">
        <ele>456</ele>
        <time>2017-09-17T14:31:33Z</time>
      </trkpt>
      <trkpt lat="44.39281" lon="2.16296">
        <ele>456</ele>
        <time>2017-09-17T14:31:37Z</time>
      </trkpt>
      <trkpt lat="44.39281" lon="2.16291">
        <ele>455</ele>
        <time>2017-09-17T14:31:40Z</time>
      </trkpt>
      <trkpt lat="44.39279" lon="2.16277">
        <ele>455</ele>
        <time>2017-09-17T14:31:48Z</time>
      </trkpt>
      <trkpt lat="44.39278" lon="2.1627">
        <ele>455</ele>
        <time>2017-09-17T14:31:52Z</time>
      </trkpt>
      <trkpt lat="44.39277" lon="2.16264">
        <ele>454</ele>
        <time>2017-09-17T14:31:56Z</time>
      </trkpt>
      <trkpt lat="44.39276" lon="2.16262">
        <ele>454</ele>
        <time>2017-09-17T14:31:58Z</time>
      </trkpt>
      <trkpt lat="44.39274" lon="2.16259">
        <ele>454</ele>
        <time>2017-09-17T14:32:00Z</time>
      </trkpt>
      <trkpt lat="44.39272" lon="2.16257">
        <ele>454</ele>
        <time>2017-09-17T14:32:03Z</time>
      </trkpt>
      <trkpt lat="44.39269" lon="2.16254">
        <ele>454</ele>
        <time>2017-09-17T14:32:07Z</time>
      </trkpt>
      <trkpt lat="44.39267" lon="2.1625">
        <ele>451</ele>
        <time>2017-09-17T14:32:10Z</time>
      </trkpt>
      <trkpt lat="44.39264" lon="2.16245">
        <ele>451</ele>
        <time>2017-09-17T14:32:13Z</time>
      </trkpt>
      <trkpt lat="44.39263" lon="2.1624">
        <ele>451</ele>
        <time>2017-09-17T14:32:18Z</time>
      </trkpt>
      <trkpt lat="44.39264" lon="2.16234">
        <ele>451</ele>
        <time>2017-09-17T14:32:25Z</time>
      </trkpt>
      <trkpt lat="44.39266" lon="2.16228">
        <ele>450</ele>
        <time>2017-09-17T14:32:28Z</time>
      </trkpt>
      <trkpt lat="44.39269" lon="2.1621">
        <ele>449</ele>
        <time>2017-09-17T14:32:37Z</time>
      </trkpt>
      <trkpt lat="44.39274" lon="2.16184">
        <ele>449</ele>
        <time>2017-09-17T14:32:51Z</time>
      </trkpt>
      <trkpt lat="44.39275" lon="2.16178">
        <ele>449</ele>
        <time>2017-09-17T14:32:55Z</time>
      </trkpt>
      <trkpt lat="44.3928" lon="2.16149">
        <ele>446</ele>
        <time>2017-09-17T14:33:12Z</time>
      </trkpt>
      <trkpt lat="44.3928" lon="2.16145">
        <ele>446</ele>
        <time>2017-09-17T14:33:15Z</time>
      </trkpt>
      <trkpt lat="44.39282" lon="2.1614">
        <ele>445</ele>
        <time>2017-09-17T14:33:19Z</time>
      </trkpt>
      <trkpt lat="44.39284" lon="2.16136">
        <ele>445</ele>
        <time>2017-09-17T14:33:22Z</time>
      </trkpt>
      <trkpt lat="44.39286" lon="2.16132">
        <ele>445</ele>
        <time>2017-09-17T14:33:24Z</time>
      </trkpt>
      <trkpt lat="44.39289" lon="2.16129">
        <ele>445</ele>
        <time>2017-09-17T14:33:27Z</time>
      </trkpt>
      <trkpt lat="44.39323" lon="2.16107">
        <ele>444</ele>
        <time>2017-09-17T14:33:57Z</time>
      </trkpt>
      <trkpt lat="44.39348" lon="2.1609">
        <ele>442</ele>
        <time>2017-09-17T14:34:19Z</time>
      </trkpt>
      <trkpt lat="44.39381" lon="2.1607">
        <ele>445</ele>
        <time>2017-09-17T14:34:49Z</time>
      </trkpt>
      <trkpt lat="44.39383" lon="2.16069">
        <ele>445</ele>
        <time>2017-09-17T14:34:51Z</time>
      </trkpt>
      <trkpt lat="44.39384" lon="2.16065">
        <ele>445</ele>
        <time>2017-09-17T14:34:54Z</time>
      </trkpt>
      <trkpt lat="44.39386" lon="2.16062">
        <ele>445</ele>
        <time>2017-09-17T14:34:57Z</time>
      </trkpt>
      <trkpt lat="44.39386" lon="2.16059">
        <ele>445</ele>
        <time>2017-09-17T14:35:02Z</time>
      </trkpt>
      <trkpt lat="44.39386" lon="2.16055">
        <ele>445</ele>
        <time>2017-09-17T14:35:05Z</time>
      </trkpt>
      <trkpt lat="44.3938" lon="2.16045">
        <ele>446</ele>
        <time>2017-09-17T14:35:15Z</time>
      </trkpt>
      <trkpt lat="44.39373" lon="2.1603">
        <ele>446</ele>
        <time>2017-09-17T14:35:26Z</time>
      </trkpt>
      <trkpt lat="44.39371" lon="2.16026">
        <ele>446</ele>
        <time>2017-09-17T14:35:29Z</time>
      </trkpt>
      <trkpt lat="44.3937" lon="2.16022">
        <ele>446</ele>
        <time>2017-09-17T14:35:32Z</time>
      </trkpt>
      <trkpt lat="44.39368" lon="2.16018">
        <ele>447</ele>
        <time>2017-09-17T14:35:34Z</time>
      </trkpt>
      <trkpt lat="44.39359" lon="2.16007">
        <ele>447</ele>
        <time>2017-09-17T14:35:43Z</time>
      </trkpt>
      <trkpt lat="44.39358" lon="2.16002">
        <ele>447</ele>
        <time>2017-09-17T14:35:46Z</time>
      </trkpt>
      <trkpt lat="44.39357" lon="2.15995">
        <ele>450</ele>
        <time>2017-09-17T14:35:52Z</time>
      </trkpt>
      <trkpt lat="44.39352" lon="2.15978">
        <ele>450</ele>
        <time>2017-09-17T14:36:04Z</time>
      </trkpt>
      <trkpt lat="44.3935" lon="2.15973">
        <ele>451</ele>
        <time>2017-09-17T14:36:07Z</time>
      </trkpt>
      <trkpt lat="44.39341" lon="2.15947">
        <ele>451</ele>
        <time>2017-09-17T14:36:22Z</time>
      </trkpt>
      <trkpt lat="44.39337" lon="2.15941">
        <ele>451</ele>
        <time>2017-09-17T14:36:26Z</time>
      </trkpt>
      <trkpt lat="44.39335" lon="2.15938">
        <ele>451</ele>
        <time>2017-09-17T14:36:28Z</time>
      </trkpt>
      <trkpt lat="44.39335" lon="2.15932">
        <ele>451</ele>
        <time>2017-09-17T14:36:31Z</time>
      </trkpt>
      <trkpt lat="44.39331" lon="2.15918">
        <ele>451</ele>
        <time>2017-09-17T14:36:39Z</time>
      </trkpt>
      <trkpt lat="44.39331" lon="2.1591">
        <ele>451</ele>
        <time>2017-09-17T14:36:44Z</time>
      </trkpt>
      <trkpt lat="44.39328" lon="2.15893">
        <ele>452</ele>
        <time>2017-09-17T14:36:54Z</time>
      </trkpt>
      <trkpt lat="44.39337" lon="2.15859">
        <ele>457</ele>
        <time>2017-09-17T14:37:13Z</time>
      </trkpt>
      <trkpt lat="44.39341" lon="2.15852">
        <ele>457</ele>
        <time>2017-09-17T14:37:18Z</time>
      </trkpt>
      <trkpt lat="44.39344" lon="2.15848">
        <ele>457</ele>
        <time>2017-09-17T14:37:21Z</time>
      </trkpt>
      <trkpt lat="44.39351" lon="2.15837">
        <ele>457</ele>
        <time>2017-09-17T14:37:30Z</time>
      </trkpt>
      <trkpt lat="44.39354" lon="2.15832">
        <ele>459</ele>
        <time>2017-09-17T14:37:33Z</time>
      </trkpt>
      <trkpt lat="44.39356" lon="2.1583">
        <ele>460</ele>
        <time>2017-09-17T14:37:36Z</time>
      </trkpt>
      <trkpt lat="44.39359" lon="2.15826">
        <ele>460</ele>
        <time>2017-09-17T14:37:39Z</time>
      </trkpt>
      <trkpt lat="44.39362" lon="2.15823">
        <ele>460</ele>
        <time>2017-09-17T14:37:42Z</time>
      </trkpt>
      <trkpt lat="44.39388" lon="2.1578">
        <ele>463</ele>
        <time>2017-09-17T14:38:12Z</time>
      </trkpt>
      <trkpt lat="44.3941" lon="2.15736">
        <ele>468</ele>
        <time>2017-09-17T14:38:43Z</time>
      </trkpt>
      <trkpt lat="44.39413" lon="2.15731">
        <ele>468</ele>
        <time>2017-09-17T14:38:46Z</time>
      </trkpt>
      <trkpt lat="44.39416" lon="2.15727">
        <ele>467</ele>
        <time>2017-09-17T14:38:49Z</time>
      </trkpt>
      <trkpt lat="44.39419" lon="2.15724">
        <ele>471</ele>
        <time>2017-09-17T14:38:52Z</time>
      </trkpt>
      <trkpt lat="44.39426" lon="2.15714">
        <ele>471</ele>
        <time>2017-09-17T14:39:01Z</time>
      </trkpt>
      <trkpt lat="44.39433" lon="2.15699">
        <ele>471</ele>
        <time>2017-09-17T14:39:11Z</time>
      </trkpt>
      <trkpt lat="44.39444" lon="2.15676">
        <ele>472</ele>
        <time>2017-09-17T14:39:26Z</time>
      </trkpt>
      <trkpt lat="44.39445" lon="2.15673">
        <ele>472</ele>
        <time>2017-09-17T14:39:28Z</time>
      </trkpt>
      <trkpt lat="44.39447" lon="2.15666">
        <ele>474</ele>
        <time>2017-09-17T14:39:32Z</time>
      </trkpt>
      <trkpt lat="44.3945" lon="2.15646">
        <ele>474</ele>
        <time>2017-09-17T14:39:44Z</time>
      </trkpt>
      <trkpt lat="44.39445" lon="2.15614">
        <ele>475</ele>
        <time>2017-09-17T14:40:02Z</time>
      </trkpt>
      <trkpt lat="44.39436" lon="2.15586">
        <ele>476</ele>
        <time>2017-09-17T14:40:20Z</time>
      </trkpt>
      <trkpt lat="44.39434" lon="2.15581">
        <ele>479</ele>
        <time>2017-09-17T14:40:23Z</time>
      </trkpt>
      <trkpt lat="44.39428" lon="2.15567">
        <ele>479</ele>
        <time>2017-09-17T14:40:33Z</time>
      </trkpt>
      <trkpt lat="44.39423" lon="2.1556">
        <ele>480</ele>
        <time>2017-09-17T14:40:39Z</time>
      </trkpt>
      <trkpt lat="44.39408" lon="2.15544">
        <ele>478</ele>
        <time>2017-09-17T14:40:50Z</time>
      </trkpt>
      <trkpt lat="44.39397" lon="2.15538">
        <ele>478</ele>
        <time>2017-09-17T14:41:01Z</time>
      </trkpt>
      <trkpt lat="44.39399" lon="2.15538">
        <ele>478</ele>
        <time>2017-09-17T14:41:08Z</time>
      </trkpt>
      <trkpt lat="44.39401" lon="2.15539">
        <ele>478</ele>
        <time>2017-09-17T14:41:10Z</time>
      </trkpt>
      <trkpt lat="44.39411" lon="2.15541">
        <ele>478</ele>
        <time>2017-09-17T14:41:19Z</time>
      </trkpt>
      <trkpt lat="44.39414" lon="2.15542">
        <ele>478</ele>
        <time>2017-09-17T14:41:22Z</time>
      </trkpt>
      <trkpt lat="44.39419" lon="2.1554">
        <ele>481</ele>
        <time>2017-09-17T14:41:28Z</time>
      </trkpt>
      <trkpt lat="44.39426" lon="2.15537">
        <ele>481</ele>
        <time>2017-09-17T14:41:37Z</time>
      </trkpt>
      <trkpt lat="44.3943" lon="2.15536">
        <ele>481</ele>
        <time>2017-09-17T14:41:41Z</time>
      </trkpt>
      <trkpt lat="44.39435" lon="2.15536">
        <ele>481</ele>
        <time>2017-09-17T14:41:47Z</time>
      </trkpt>
      <trkpt lat="44.39438" lon="2.15535">
        <ele>481</ele>
        <time>2017-09-17T14:41:50Z</time>
      </trkpt>
      <trkpt lat="44.39446" lon="2.15535">
        <ele>481</ele>
        <time>2017-09-17T14:42:02Z</time>
      </trkpt>
      <trkpt lat="44.39453" lon="2.15533">
        <ele>482</ele>
        <time>2017-09-17T14:42:08Z</time>
      </trkpt>
      <trkpt lat="44.39468" lon="2.15527">
        <ele>482</ele>
        <time>2017-09-17T14:42:20Z</time>
      </trkpt>
      <trkpt lat="44.39481" lon="2.15521">
        <ele>483</ele>
        <time>2017-09-17T14:42:30Z</time>
      </trkpt>
      <trkpt lat="44.39485" lon="2.15519">
        <ele>484</ele>
        <time>2017-09-17T14:42:33Z</time>
      </trkpt>
      <trkpt lat="44.39492" lon="2.15516">
        <ele>485</ele>
        <time>2017-09-17T14:42:41Z</time>
      </trkpt>
      <trkpt lat="44.395" lon="2.15512">
        <ele>485</ele>
        <time>2017-09-17T14:42:48Z</time>
      </trkpt>
      <trkpt lat="44.39504" lon="2.15511">
        <ele>487</ele>
        <time>2017-09-17T14:42:51Z</time>
      </trkpt>
      <trkpt lat="44.39515" lon="2.15505">
        <ele>487</ele>
        <time>2017-09-17T14:43:00Z</time>
      </trkpt>
      <trkpt lat="44.39518" lon="2.15503">
        <ele>487</ele>
        <time>2017-09-17T14:43:02Z</time>
      </trkpt>
      <trkpt lat="44.39521" lon="2.15503">
        <ele>486</ele>
        <time>2017-09-17T14:43:04Z</time>
      </trkpt>
      <trkpt lat="44.39527" lon="2.15499">
        <ele>488</ele>
        <time>2017-09-17T14:43:10Z</time>
      </trkpt>
      <trkpt lat="44.39558" lon="2.15493">
        <ele>489</ele>
        <time>2017-09-17T14:43:40Z</time>
      </trkpt>
      <trkpt lat="44.39562" lon="2.15492">
        <ele>489</ele>
        <time>2017-09-17T14:43:43Z</time>
      </trkpt>
      <trkpt lat="44.39568" lon="2.15484">
        <ele>489</ele>
        <time>2017-09-17T14:43:49Z</time>
      </trkpt>
      <trkpt lat="44.39568" lon="2.15478">
        <ele>489</ele>
        <time>2017-09-17T14:43:53Z</time>
      </trkpt>
      <trkpt lat="44.39569" lon="2.15466">
        <ele>488</ele>
        <time>2017-09-17T14:44:01Z</time>
      </trkpt>
      <trkpt lat="44.3957" lon="2.15461">
        <ele>488</ele>
        <time>2017-09-17T14:44:04Z</time>
      </trkpt>
      <trkpt lat="44.3957" lon="2.15456">
        <ele>488</ele>
        <time>2017-09-17T14:44:08Z</time>
      </trkpt>
      <trkpt lat="44.3957" lon="2.15446">
        <ele>488</ele>
        <time>2017-09-17T14:44:14Z</time>
      </trkpt>
      <trkpt lat="44.39568" lon="2.15416">
        <ele>485</ele>
        <time>2017-09-17T14:44:30Z</time>
      </trkpt>
      <trkpt lat="44.39568" lon="2.15412">
        <ele>485</ele>
        <time>2017-09-17T14:44:33Z</time>
      </trkpt>
      <trkpt lat="44.39566" lon="2.1536">
        <ele>483</ele>
        <time>2017-09-17T14:45:05Z</time>
      </trkpt>
      <trkpt lat="44.39566" lon="2.15306">
        <ele>483</ele>
        <time>2017-09-17T14:45:36Z</time>
      </trkpt>
      <trkpt lat="44.39566" lon="2.15256">
        <ele>484</ele>
        <time>2017-09-17T14:46:07Z</time>
      </trkpt>
      <trkpt lat="44.39567" lon="2.15229">
        <ele>486</ele>
        <time>2017-09-17T14:46:24Z</time>
      </trkpt>
      <trkpt lat="44.39568" lon="2.15212">
        <ele>486</ele>
        <time>2017-09-17T14:46:34Z</time>
      </trkpt>
      <trkpt lat="44.3958" lon="2.15175">
        <ele>488</ele>
        <time>2017-09-17T14:46:58Z</time>
      </trkpt>
      <trkpt lat="44.39581" lon="2.15172">
        <ele>488</ele>
        <time>2017-09-17T14:47:00Z</time>
      </trkpt>
      <trkpt lat="44.39593" lon="2.1516">
        <ele>488</ele>
        <time>2017-09-17T14:47:13Z</time>
      </trkpt>
      <trkpt lat="44.39602" lon="2.15149">
        <ele>489</ele>
        <time>2017-09-17T14:47:23Z</time>
      </trkpt>
      <trkpt lat="44.39622" lon="2.15124">
        <ele>489</ele>
        <time>2017-09-17T14:47:46Z</time>
      </trkpt>
      <trkpt lat="44.39624" lon="2.1512">
        <ele>489</ele>
        <time>2017-09-17T14:47:48Z</time>
      </trkpt>
      <trkpt lat="44.39649" lon="2.15082">
        <ele>492</ele>
        <time>2017-09-17T14:48:20Z</time>
      </trkpt>
      <trkpt lat="44.39655" lon="2.15072">
        <ele>492</ele>
        <time>2017-09-17T14:48:28Z</time>
      </trkpt>
      <trkpt lat="44.39658" lon="2.15066">
        <ele>492</ele>
        <time>2017-09-17T14:48:32Z</time>
      </trkpt>
      <trkpt lat="44.39676" lon="2.15036">
        <ele>492</ele>
        <time>2017-09-17T14:48:55Z</time>
      </trkpt>
      <trkpt lat="44.39678" lon="2.15032">
        <ele>492</ele>
        <time>2017-09-17T14:48:58Z</time>
      </trkpt>
      <trkpt lat="44.3968" lon="2.15027">
        <ele>492</ele>
        <time>2017-09-17T14:49:02Z</time>
      </trkpt>
      <trkpt lat="44.39687" lon="2.15019">
        <ele>493</ele>
        <time>2017-09-17T14:49:09Z</time>
      </trkpt>
      <trkpt lat="44.39692" lon="2.15016">
        <ele>492</ele>
        <time>2017-09-17T14:49:13Z</time>
      </trkpt>
      <trkpt lat="44.39694" lon="2.15016">
        <ele>492</ele>
        <time>2017-09-17T14:49:15Z</time>
      </trkpt>
      <trkpt lat="44.39703" lon="2.15019">
        <ele>492</ele>
        <time>2017-09-17T14:49:22Z</time>
      </trkpt>
      <trkpt lat="44.39706" lon="2.15021">
        <ele>492</ele>
        <time>2017-09-17T14:49:25Z</time>
      </trkpt>
      <trkpt lat="44.39719" lon="2.15016">
        <ele>491</ele>
        <time>2017-09-17T14:49:36Z</time>
      </trkpt>
      <trkpt lat="44.39726" lon="2.15011">
        <ele>491</ele>
        <time>2017-09-17T14:49:42Z</time>
      </trkpt>
      <trkpt lat="44.39731" lon="2.1501">
        <ele>491</ele>
        <time>2017-09-17T14:49:46Z</time>
      </trkpt>
      <trkpt lat="44.39734" lon="2.15008">
        <ele>491</ele>
        <time>2017-09-17T14:49:51Z</time>
      </trkpt>
      <trkpt lat="44.39741" lon="2.15007">
        <ele>491</ele>
        <time>2017-09-17T14:50:01Z</time>
      </trkpt>
      <trkpt lat="44.39747" lon="2.15006">
        <ele>491</ele>
        <time>2017-09-17T14:50:08Z</time>
      </trkpt>
      <trkpt lat="44.39752" lon="2.15008">
        <ele>490</ele>
        <time>2017-09-17T14:50:32Z</time>
      </trkpt>
      <trkpt lat="44.3975" lon="2.15009">
        <ele>491</ele>
        <time>2017-09-17T14:51:05Z</time>
      </trkpt>
      <trkpt lat="44.39744" lon="2.15007">
        <ele>491</ele>
        <time>2017-09-17T14:51:22Z</time>
      </trkpt>
      <trkpt lat="44.39742" lon="2.15008">
        <ele>491</ele>
        <time>2017-09-17T14:51:29Z</time>
      </trkpt>
      <trkpt lat="44.39738" lon="2.15011">
        <ele>491</ele>
        <time>2017-09-17T14:51:34Z</time>
      </trkpt>
      <trkpt lat="44.39734" lon="2.15012">
        <ele>491</ele>
        <time>2017-09-17T14:51:37Z</time>
      </trkpt>
      <trkpt lat="44.39732" lon="2.15012">
        <ele>491</ele>
        <time>2017-09-17T14:51:40Z</time>
      </trkpt>
      <trkpt lat="44.39728" lon="2.15014">
        <ele>491</ele>
        <time>2017-09-17T14:51:43Z</time>
      </trkpt>
      <trkpt lat="44.39727" lon="2.15015">
        <ele>491</ele>
        <time>2017-09-17T14:51:48Z</time>
      </trkpt>
      <trkpt lat="44.39726" lon="2.15018">
        <ele>491</ele>
        <time>2017-09-17T14:51:49Z</time>
      </trkpt>
      <trkpt lat="44.39725" lon="2.15021">
        <ele>491</ele>
        <time>2017-09-17T14:52:00Z</time>
      </trkpt>
      <trkpt lat="44.39724" lon="2.15024">
        <ele>491</ele>
        <time>2017-09-17T14:52:09Z</time>
      </trkpt>
      <trkpt lat="44.39725" lon="2.15029">
        <ele>491</ele>
        <time>2017-09-17T14:53:55Z</time>
      </trkpt>
      <trkpt lat="44.39728" lon="2.1503">
        <ele>491</ele>
        <time>2017-09-17T14:52:37Z</time>
      </trkpt>
      <trkpt lat="44.39726" lon="2.15026">
        <ele>491</ele>
        <time>2017-09-17T14:52:49Z</time>
      </trkpt>
      <trkpt lat="44.39728" lon="2.15021">
        <ele>491</ele>
        <time>2017-09-17T14:52:52Z</time>
      </trkpt>
      <trkpt lat="44.39735" lon="2.15018">
        <ele>491</ele>
        <time>2017-09-17T14:53:01Z</time>
      </trkpt>
      <trkpt lat="44.39734" lon="2.15021">
        <ele>491</ele>
        <time>2017-09-17T14:53:43Z</time>
      </trkpt>
      <trkpt lat="44.39731" lon="2.15023">
        <ele>491</ele>
        <time>2017-09-17T14:53:46Z</time>
      </trkpt>
      <trkpt lat="44.39728" lon="2.15023">
        <ele>491</ele>
        <time>2017-09-17T14:53:49Z</time>
      </trkpt>
      <trkpt lat="44.39725" lon="2.15025">
        <ele>491</ele>
        <time>2017-09-17T14:53:51Z</time>
      </trkpt>
      <trkpt lat="44.39725" lon="2.15029">
        <ele>491</ele>
        <time>2017-09-17T14:53:55Z</time>
      </trkpt>
      <trkpt lat="44.39727" lon="2.1503">
        <ele>491</ele>
        <time>2017-09-17T14:53:59Z</time>
      </trkpt>
      <trkpt lat="44.3973" lon="2.15031">
        <ele>491</ele>
        <time>2017-09-17T14:54:04Z</time>
      </trkpt>
      <trkpt lat="44.39735" lon="2.1503">
        <ele>491</ele>
        <time>2017-09-17T14:54:28Z</time>
      </trkpt>
      <trkpt lat="44.39737" lon="2.1503">
        <ele>491</ele>
        <time>2017-09-17T14:54:30Z</time>
      </trkpt>
      <trkpt lat="44.39739" lon="2.15031">
        <ele>491</ele>
        <time>2017-09-17T14:54:34Z</time>
      </trkpt>
      <trkpt lat="44.39742" lon="2.15029">
        <ele>491</ele>
        <time>2017-09-17T14:54:36Z</time>
      </trkpt>
      <trkpt lat="44.39744" lon="2.15028">
        <ele>491</ele>
        <time>2017-09-17T14:54:39Z</time>
      </trkpt>
      <trkpt lat="44.39743" lon="2.15028">
        <ele>491</ele>
        <time>2017-09-17T14:55:29Z</time>
      </trkpt>
      <trkpt lat="44.39738" lon="2.15027">
        <ele>491</ele>
        <time>2017-09-17T14:55:41Z</time>
      </trkpt>
    </trkseg>
  </trk>
</gpx>